<?xml version="1.0" encoding="UTF-8" standalone="no" ?>
<gpx xmlns="http://www.topografix.com/GPX/1/1" xmlns:xsi="http://www.w3.org/2001/XMLSchema-instance" xsi:schemaLocation="http://www.topografix.com/GPX/1/1 http://www.topografix.com/GPX/1/1/gpx.xsd" version="1.1" creator="VisuGPX - https://www.visugpx.com">
  <metadata>
    <name>FromStAndréDeVézine</name>
    <desc><![CDATA[Boucle, afin de reconnaitre le parcours des Templiers entre St André et La Roque + la remontée suivante]]></desc>
  </metadata>
  <trk>
    <name><![CDATA[tracedetrail_171094]]></name>
    <trkseg>
      <trkpt lat="44.15125" lon="3.25679">
        <ele>862</ele>
        <time>2000-01-01T08:01:19.000Z</time>
      </trkpt>
      <trkpt lat="44.15128" lon="3.25674">
        <ele>862.2</ele>
        <time>2000-01-01T08:01:29.000Z</time>
      </trkpt>
      <trkpt lat="44.15125" lon="3.2567">
        <ele>862</ele>
        <time>2000-01-01T08:01:39.000Z</time>
      </trkpt>
      <trkpt lat="44.15104" lon="3.25658">
        <ele>860</ele>
        <time>2000-01-01T08:01:49.000Z</time>
      </trkpt>
      <trkpt lat="44.15095" lon="3.25654">
        <ele>860.9</ele>
        <time>2000-01-01T08:01:59.000Z</time>
      </trkpt>
      <trkpt lat="44.1507" lon="3.2565">
        <ele>859</ele>
        <time>2000-01-01T08:02:09.000Z</time>
      </trkpt>
      <trkpt lat="44.15055" lon="3.25649">
        <ele>858.6</ele>
        <time>2000-01-01T08:02:19.000Z</time>
      </trkpt>
      <trkpt lat="44.15041" lon="3.25642">
        <ele>857</ele>
        <time>2000-01-01T08:02:29.000Z</time>
      </trkpt>
      <trkpt lat="44.14999" lon="3.25618">
        <ele>854</ele>
        <time>2000-01-01T08:02:39.000Z</time>
      </trkpt>
      <trkpt lat="44.14979" lon="3.25607">
        <ele>853</ele>
        <time>2000-01-01T08:02:49.000Z</time>
      </trkpt>
      <trkpt lat="44.14968" lon="3.25602">
        <ele>853.2</ele>
        <time>2000-01-01T08:02:59.000Z</time>
      </trkpt>
      <trkpt lat="44.14962" lon="3.25597">
        <ele>852.9</ele>
        <time>2000-01-01T08:03:09.000Z</time>
      </trkpt>
      <trkpt lat="44.14953" lon="3.25588">
        <ele>852</ele>
        <time>2000-01-01T08:03:19.000Z</time>
      </trkpt>
      <trkpt lat="44.14943" lon="3.25578">
        <ele>852.3</ele>
        <time>2000-01-01T08:03:29.000Z</time>
      </trkpt>
      <trkpt lat="44.14937" lon="3.25571">
        <ele>852</ele>
        <time>2000-01-01T08:03:39.000Z</time>
      </trkpt>
      <trkpt lat="44.14935" lon="3.25568">
        <ele>852.4</ele>
        <time>2000-01-01T08:03:49.000Z</time>
      </trkpt>
      <trkpt lat="44.1493" lon="3.25562">
        <ele>852.5</ele>
        <time>2000-01-01T08:03:59.000Z</time>
      </trkpt>
      <trkpt lat="44.14926" lon="3.25558">
        <ele>852.5</ele>
        <time>2000-01-01T08:04:09.000Z</time>
      </trkpt>
      <trkpt lat="44.14919" lon="3.25551">
        <ele>852</ele>
        <time>2000-01-01T08:04:19.000Z</time>
      </trkpt>
      <trkpt lat="44.14912" lon="3.25542">
        <ele>852.5</ele>
        <time>2000-01-01T08:04:29.000Z</time>
      </trkpt>
      <trkpt lat="44.14906" lon="3.25531">
        <ele>851</ele>
        <time>2000-01-01T08:04:39.000Z</time>
      </trkpt>
      <trkpt lat="44.14882" lon="3.25481">
        <ele>851</ele>
        <time>2000-01-01T08:04:49.000Z</time>
      </trkpt>
      <trkpt lat="44.14877" lon="3.25475">
        <ele>851.9</ele>
        <time>2000-01-01T08:04:59.000Z</time>
      </trkpt>
      <trkpt lat="44.14857" lon="3.2548">
        <ele>850</ele>
        <time>2000-01-01T08:05:09.000Z</time>
      </trkpt>
      <trkpt lat="44.14845" lon="3.25484">
        <ele>848.1</ele>
        <time>2000-01-01T08:05:19.000Z</time>
      </trkpt>
      <trkpt lat="44.14832" lon="3.2549">
        <ele>847</ele>
        <time>2000-01-01T08:05:29.000Z</time>
      </trkpt>
      <trkpt lat="44.14812" lon="3.25498">
        <ele>844</ele>
        <time>2000-01-01T08:05:39.000Z</time>
      </trkpt>
      <trkpt lat="44.14802" lon="3.25498">
        <ele>842.8</ele>
        <time>2000-01-01T08:05:49.000Z</time>
      </trkpt>
      <trkpt lat="44.1479" lon="3.25485">
        <ele>842</ele>
        <time>2000-01-01T08:05:59.000Z</time>
      </trkpt>
      <trkpt lat="44.14773" lon="3.25467">
        <ele>841</ele>
        <time>2000-01-01T08:06:09.000Z</time>
      </trkpt>
      <trkpt lat="44.1477" lon="3.25463">
        <ele>841.7</ele>
        <time>2000-01-01T08:06:19.000Z</time>
      </trkpt>
      <trkpt lat="44.14756" lon="3.25454">
        <ele>841</ele>
        <time>2000-01-01T08:06:29.000Z</time>
      </trkpt>
      <trkpt lat="44.14734" lon="3.25452">
        <ele>840</ele>
        <time>2000-01-01T08:06:39.000Z</time>
      </trkpt>
      <trkpt lat="44.14726" lon="3.25454">
        <ele>840.1</ele>
        <time>2000-01-01T08:06:49.000Z</time>
      </trkpt>
      <trkpt lat="44.14702" lon="3.25459">
        <ele>839</ele>
        <time>2000-01-01T08:06:59.000Z</time>
      </trkpt>
      <trkpt lat="44.14678" lon="3.25466">
        <ele>835</ele>
        <time>2000-01-01T08:07:09.000Z</time>
      </trkpt>
      <trkpt lat="44.14664" lon="3.25463">
        <ele>833.8</ele>
        <time>2000-01-01T08:07:19.000Z</time>
      </trkpt>
      <trkpt lat="44.14651" lon="3.2546">
        <ele>834</ele>
        <time>2000-01-01T08:07:29.000Z</time>
      </trkpt>
      <trkpt lat="44.14627" lon="3.25453">
        <ele>833</ele>
        <time>2000-01-01T08:07:39.000Z</time>
      </trkpt>
      <trkpt lat="44.14616" lon="3.25454">
        <ele>832.1</ele>
        <time>2000-01-01T08:07:49.000Z</time>
      </trkpt>
      <trkpt lat="44.14603" lon="3.25457">
        <ele>831</ele>
        <time>2000-01-01T08:07:59.000Z</time>
      </trkpt>
      <trkpt lat="44.14583" lon="3.25449">
        <ele>831</ele>
        <time>2000-01-01T08:08:09.000Z</time>
      </trkpt>
      <trkpt lat="44.14568" lon="3.25446">
        <ele>829.7</ele>
        <time>2000-01-01T08:08:19.000Z</time>
      </trkpt>
      <trkpt lat="44.14548" lon="3.25442">
        <ele>828</ele>
        <time>2000-01-01T08:08:29.000Z</time>
      </trkpt>
      <trkpt lat="44.14528" lon="3.25444">
        <ele>826</ele>
        <time>2000-01-01T08:08:39.000Z</time>
      </trkpt>
      <trkpt lat="44.14511" lon="3.25438">
        <ele>826.1</ele>
        <time>2000-01-01T08:08:49.000Z</time>
      </trkpt>
      <trkpt lat="44.14497" lon="3.25425">
        <ele>824</ele>
        <time>2000-01-01T08:08:59.000Z</time>
      </trkpt>
      <trkpt lat="44.14483" lon="3.25411">
        <ele>824.3</ele>
        <time>2000-01-01T08:09:09.000Z</time>
      </trkpt>
      <trkpt lat="44.14463" lon="3.25401">
        <ele>824</ele>
        <time>2000-01-01T08:09:19.000Z</time>
      </trkpt>
      <trkpt lat="44.14442" lon="3.25398">
        <ele>824</ele>
        <time>2000-01-01T08:09:29.000Z</time>
      </trkpt>
      <trkpt lat="44.14424" lon="3.25397">
        <ele>824.4</ele>
        <time>2000-01-01T08:09:39.000Z</time>
      </trkpt>
      <trkpt lat="44.14406" lon="3.25397">
        <ele>825</ele>
        <time>2000-01-01T08:09:49.000Z</time>
      </trkpt>
      <trkpt lat="44.14391" lon="3.25397">
        <ele>825.1</ele>
        <time>2000-01-01T08:09:59.000Z</time>
      </trkpt>
      <trkpt lat="44.1438" lon="3.25398">
        <ele>825</ele>
        <time>2000-01-01T08:10:09.000Z</time>
      </trkpt>
      <trkpt lat="44.14365" lon="3.25399">
        <ele>824.7</ele>
        <time>2000-01-01T08:10:19.000Z</time>
      </trkpt>
      <trkpt lat="44.14358" lon="3.25394">
        <ele>824</ele>
        <time>2000-01-01T08:10:29.000Z</time>
      </trkpt>
      <trkpt lat="44.14344" lon="3.25382">
        <ele>824.3</ele>
        <time>2000-01-01T08:10:39.000Z</time>
      </trkpt>
      <trkpt lat="44.14323" lon="3.25366">
        <ele>822</ele>
        <time>2000-01-01T08:10:49.000Z</time>
      </trkpt>
      <trkpt lat="44.14299" lon="3.25362">
        <ele>820</ele>
        <time>2000-01-01T08:10:59.000Z</time>
      </trkpt>
      <trkpt lat="44.14287" lon="3.25364">
        <ele>819.8</ele>
        <time>2000-01-01T08:11:09.000Z</time>
      </trkpt>
      <trkpt lat="44.14272" lon="3.25366">
        <ele>818</ele>
        <time>2000-01-01T08:11:19.000Z</time>
      </trkpt>
      <trkpt lat="44.14251" lon="3.25362">
        <ele>815</ele>
        <time>2000-01-01T08:11:29.000Z</time>
      </trkpt>
      <trkpt lat="44.14241" lon="3.25357">
        <ele>814.9</ele>
        <time>2000-01-01T08:11:39.000Z</time>
      </trkpt>
      <trkpt lat="44.14223" lon="3.25349">
        <ele>813</ele>
        <time>2000-01-01T08:11:49.000Z</time>
      </trkpt>
      <trkpt lat="44.14192" lon="3.25334">
        <ele>810</ele>
        <time>2000-01-01T08:11:59.000Z</time>
      </trkpt>
      <trkpt lat="44.14176" lon="3.25326">
        <ele>809</ele>
        <time>2000-01-01T08:12:09.000Z</time>
      </trkpt>
      <trkpt lat="44.14162" lon="3.25319">
        <ele>808</ele>
        <time>2000-01-01T08:12:19.000Z</time>
      </trkpt>
      <trkpt lat="44.14143" lon="3.25309">
        <ele>807</ele>
        <time>2000-01-01T08:12:29.000Z</time>
      </trkpt>
      <trkpt lat="44.14129" lon="3.25306">
        <ele>805.2</ele>
        <time>2000-01-01T08:12:39.000Z</time>
      </trkpt>
      <trkpt lat="44.14109" lon="3.25302">
        <ele>803</ele>
        <time>2000-01-01T08:12:49.000Z</time>
      </trkpt>
      <trkpt lat="44.14094" lon="3.25299">
        <ele>803.7</ele>
        <time>2000-01-01T08:12:59.000Z</time>
      </trkpt>
      <trkpt lat="44.14073" lon="3.25295">
        <ele>802</ele>
        <time>2000-01-01T08:13:09.000Z</time>
      </trkpt>
      <trkpt lat="44.14051" lon="3.2529">
        <ele>801</ele>
        <time>2000-01-01T08:13:19.000Z</time>
      </trkpt>
      <trkpt lat="44.1403" lon="3.2528">
        <ele>801</ele>
        <time>2000-01-01T08:13:29.000Z</time>
      </trkpt>
      <trkpt lat="44.14007" lon="3.25279">
        <ele>801</ele>
        <time>2000-01-01T08:13:39.000Z</time>
      </trkpt>
      <trkpt lat="44.13995" lon="3.25278">
        <ele>800.8</ele>
        <time>2000-01-01T08:13:49.000Z</time>
      </trkpt>
      <trkpt lat="44.13977" lon="3.25282">
        <ele>799</ele>
        <time>2000-01-01T08:13:59.000Z</time>
      </trkpt>
      <trkpt lat="44.13957" lon="3.25284">
        <ele>798</ele>
        <time>2000-01-01T08:14:09.000Z</time>
      </trkpt>
      <trkpt lat="44.13939" lon="3.25287">
        <ele>797.5</ele>
        <time>2000-01-01T08:14:19.000Z</time>
      </trkpt>
      <trkpt lat="44.13924" lon="3.2529">
        <ele>796</ele>
        <time>2000-01-01T08:14:29.000Z</time>
      </trkpt>
      <trkpt lat="44.13897" lon="3.25298">
        <ele>795</ele>
        <time>2000-01-01T08:14:39.000Z</time>
      </trkpt>
      <trkpt lat="44.1388" lon="3.25303">
        <ele>794.4</ele>
        <time>2000-01-01T08:14:49.000Z</time>
      </trkpt>
      <trkpt lat="44.13864" lon="3.25307">
        <ele>792</ele>
        <time>2000-01-01T08:14:59.000Z</time>
      </trkpt>
      <trkpt lat="44.13851" lon="3.25313">
        <ele>792.3</ele>
        <time>2000-01-01T08:15:09.000Z</time>
      </trkpt>
      <trkpt lat="44.13833" lon="3.25319">
        <ele>790</ele>
        <time>2000-01-01T08:15:19.000Z</time>
      </trkpt>
      <trkpt lat="44.13814" lon="3.25325">
        <ele>788</ele>
        <time>2000-01-01T08:15:29.000Z</time>
      </trkpt>
      <trkpt lat="44.13794" lon="3.25332">
        <ele>786</ele>
        <time>2000-01-01T08:15:39.000Z</time>
      </trkpt>
      <trkpt lat="44.13774" lon="3.25334">
        <ele>784</ele>
        <time>2000-01-01T08:15:49.000Z</time>
      </trkpt>
      <trkpt lat="44.1375" lon="3.25337">
        <ele>783</ele>
        <time>2000-01-01T08:15:59.000Z</time>
      </trkpt>
      <trkpt lat="44.13727" lon="3.2534">
        <ele>781</ele>
        <time>2000-01-01T08:16:09.000Z</time>
      </trkpt>
      <trkpt lat="44.13698" lon="3.25343">
        <ele>778</ele>
        <time>2000-01-01T08:16:19.000Z</time>
      </trkpt>
      <trkpt lat="44.13689" lon="3.25345">
        <ele>778.4</ele>
        <time>2000-01-01T08:16:29.000Z</time>
      </trkpt>
      <trkpt lat="44.13667" lon="3.25352">
        <ele>774</ele>
        <time>2000-01-01T08:16:39.000Z</time>
      </trkpt>
      <trkpt lat="44.13648" lon="3.2536">
        <ele>773</ele>
        <time>2000-01-01T08:16:49.000Z</time>
      </trkpt>
      <trkpt lat="44.13629" lon="3.2535">
        <ele>773</ele>
        <time>2000-01-01T08:16:59.000Z</time>
      </trkpt>
      <trkpt lat="44.1361" lon="3.2535">
        <ele>771.6</ele>
        <time>2000-01-01T08:17:09.000Z</time>
      </trkpt>
      <trkpt lat="44.13587" lon="3.25351">
        <ele>773</ele>
        <time>2000-01-01T08:17:19.000Z</time>
      </trkpt>
      <trkpt lat="44.13575" lon="3.25352">
        <ele>773.2</ele>
        <time>2000-01-01T08:17:29.000Z</time>
      </trkpt>
      <trkpt lat="44.13556" lon="3.25328">
        <ele>772</ele>
        <time>2000-01-01T08:17:39.000Z</time>
      </trkpt>
      <trkpt lat="44.13537" lon="3.25303">
        <ele>771</ele>
        <time>2000-01-01T08:17:49.000Z</time>
      </trkpt>
      <trkpt lat="44.1352" lon="3.25281">
        <ele>769</ele>
        <time>2000-01-01T08:17:59.000Z</time>
      </trkpt>
      <trkpt lat="44.13502" lon="3.25259">
        <ele>768</ele>
        <time>2000-01-01T08:18:09.000Z</time>
      </trkpt>
      <trkpt lat="44.13477" lon="3.25228">
        <ele>766</ele>
        <time>2000-01-01T08:18:19.000Z</time>
      </trkpt>
      <trkpt lat="44.13488" lon="3.25211">
        <ele>766.5</ele>
        <time>2000-01-01T08:18:29.000Z</time>
      </trkpt>
      <trkpt lat="44.13488" lon="3.25195">
        <ele>766</ele>
        <time>2000-01-01T08:18:39.000Z</time>
      </trkpt>
      <trkpt lat="44.13466" lon="3.25159">
        <ele>766</ele>
        <time>2000-01-01T08:18:49.000Z</time>
      </trkpt>
      <trkpt lat="44.13451" lon="3.2514">
        <ele>766</ele>
        <time>2000-01-01T08:18:59.000Z</time>
      </trkpt>
      <trkpt lat="44.13443" lon="3.25132">
        <ele>766.5</ele>
        <time>2000-01-01T08:19:09.000Z</time>
      </trkpt>
      <trkpt lat="44.13434" lon="3.25115">
        <ele>766</ele>
        <time>2000-01-01T08:19:19.000Z</time>
      </trkpt>
      <trkpt lat="44.13424" lon="3.25096">
        <ele>766.3</ele>
        <time>2000-01-01T08:19:29.000Z</time>
      </trkpt>
      <trkpt lat="44.13419" lon="3.25083">
        <ele>764</ele>
        <time>2000-01-01T08:19:39.000Z</time>
      </trkpt>
      <trkpt lat="44.13409" lon="3.25057">
        <ele>763</ele>
        <time>2000-01-01T08:19:49.000Z</time>
      </trkpt>
      <trkpt lat="44.13405" lon="3.25042">
        <ele>762.3</ele>
        <time>2000-01-01T08:19:59.000Z</time>
      </trkpt>
      <trkpt lat="44.13401" lon="3.25024">
        <ele>762</ele>
        <time>2000-01-01T08:20:09.000Z</time>
      </trkpt>
      <trkpt lat="44.1339" lon="3.2501">
        <ele>761.9</ele>
        <time>2000-01-01T08:20:19.000Z</time>
      </trkpt>
      <trkpt lat="44.13383" lon="3.25002">
        <ele>761</ele>
        <time>2000-01-01T08:20:29.000Z</time>
      </trkpt>
      <trkpt lat="44.1337" lon="3.2499">
        <ele>762.1</ele>
        <time>2000-01-01T08:20:39.000Z</time>
      </trkpt>
      <trkpt lat="44.13354" lon="3.24976">
        <ele>761</ele>
        <time>2000-01-01T08:20:49.000Z</time>
      </trkpt>
      <trkpt lat="44.13349" lon="3.24961">
        <ele>761.8</ele>
        <time>2000-01-01T08:20:59.000Z</time>
      </trkpt>
      <trkpt lat="44.13342" lon="3.24939">
        <ele>759</ele>
        <time>2000-01-01T08:21:09.000Z</time>
      </trkpt>
      <trkpt lat="44.1333" lon="3.24924">
        <ele>759.6</ele>
        <time>2000-01-01T08:21:19.000Z</time>
      </trkpt>
      <trkpt lat="44.13318" lon="3.24909">
        <ele>757</ele>
        <time>2000-01-01T08:21:29.000Z</time>
      </trkpt>
      <trkpt lat="44.13311" lon="3.2491">
        <ele>755.3</ele>
        <time>2000-01-01T08:21:39.000Z</time>
      </trkpt>
      <trkpt lat="44.13305" lon="3.24905">
        <ele>754.8</ele>
        <time>2000-01-01T08:21:49.000Z</time>
      </trkpt>
      <trkpt lat="44.13299" lon="3.24895">
        <ele>754</ele>
        <time>2000-01-01T08:21:59.000Z</time>
      </trkpt>
      <trkpt lat="44.1329" lon="3.24886">
        <ele>754.4</ele>
        <time>2000-01-01T08:22:09.000Z</time>
      </trkpt>
      <trkpt lat="44.13284" lon="3.24878">
        <ele>753</ele>
        <time>2000-01-01T08:22:19.000Z</time>
      </trkpt>
      <trkpt lat="44.13277" lon="3.24871">
        <ele>752.9</ele>
        <time>2000-01-01T08:22:29.000Z</time>
      </trkpt>
      <trkpt lat="44.13274" lon="3.24865">
        <ele>752.9</ele>
        <time>2000-01-01T08:22:39.000Z</time>
      </trkpt>
      <trkpt lat="44.13269" lon="3.24862">
        <ele>751.7</ele>
        <time>2000-01-01T08:22:49.000Z</time>
      </trkpt>
      <trkpt lat="44.13266" lon="3.24857">
        <ele>751</ele>
        <time>2000-01-01T08:22:59.000Z</time>
      </trkpt>
      <trkpt lat="44.13261" lon="3.24852">
        <ele>750.6</ele>
        <time>2000-01-01T08:23:09.000Z</time>
      </trkpt>
      <trkpt lat="44.13257" lon="3.24846">
        <ele>750.2</ele>
        <time>2000-01-01T08:23:19.000Z</time>
      </trkpt>
      <trkpt lat="44.13248" lon="3.24839">
        <ele>749</ele>
        <time>2000-01-01T08:23:29.000Z</time>
      </trkpt>
      <trkpt lat="44.13245" lon="3.2483">
        <ele>748.6</ele>
        <time>2000-01-01T08:23:39.000Z</time>
      </trkpt>
      <trkpt lat="44.13242" lon="3.24824">
        <ele>748.4</ele>
        <time>2000-01-01T08:23:49.000Z</time>
      </trkpt>
      <trkpt lat="44.13238" lon="3.24817">
        <ele>747.9</ele>
        <time>2000-01-01T08:23:59.000Z</time>
      </trkpt>
      <trkpt lat="44.13233" lon="3.24809">
        <ele>748</ele>
        <time>2000-01-01T08:24:09.000Z</time>
      </trkpt>
      <trkpt lat="44.1323" lon="3.24802">
        <ele>747</ele>
        <time>2000-01-01T08:24:19.000Z</time>
      </trkpt>
      <trkpt lat="44.13225" lon="3.24797">
        <ele>745.7</ele>
        <time>2000-01-01T08:24:29.000Z</time>
      </trkpt>
      <trkpt lat="44.13219" lon="3.24785">
        <ele>747</ele>
        <time>2000-01-01T08:24:39.000Z</time>
      </trkpt>
      <trkpt lat="44.13211" lon="3.24778">
        <ele>743.5</ele>
        <time>2000-01-01T08:24:49.000Z</time>
      </trkpt>
      <trkpt lat="44.13213" lon="3.24764">
        <ele>747</ele>
        <time>2000-01-01T08:24:59.000Z</time>
      </trkpt>
      <trkpt lat="44.13212" lon="3.24763">
        <ele>747.3</ele>
        <time>2000-01-01T08:25:09.000Z</time>
      </trkpt>
      <trkpt lat="44.132" lon="3.24762">
        <ele>743.1</ele>
        <time>2000-01-01T08:25:19.000Z</time>
      </trkpt>
      <trkpt lat="44.13192" lon="3.24756">
        <ele>741</ele>
        <time>2000-01-01T08:25:29.000Z</time>
      </trkpt>
      <trkpt lat="44.13191" lon="3.24745">
        <ele>744.1</ele>
        <time>2000-01-01T08:25:39.000Z</time>
      </trkpt>
      <trkpt lat="44.13183" lon="3.2474">
        <ele>742.7</ele>
        <time>2000-01-01T08:25:49.000Z</time>
      </trkpt>
      <trkpt lat="44.13176" lon="3.24732">
        <ele>741</ele>
        <time>2000-01-01T08:25:59.000Z</time>
      </trkpt>
      <trkpt lat="44.13167" lon="3.24719">
        <ele>743.9</ele>
        <time>2000-01-01T08:26:09.000Z</time>
      </trkpt>
      <trkpt lat="44.13158" lon="3.24709">
        <ele>741</ele>
        <time>2000-01-01T08:26:19.000Z</time>
      </trkpt>
      <trkpt lat="44.1315" lon="3.24697">
        <ele>743.4</ele>
        <time>2000-01-01T08:26:29.000Z</time>
      </trkpt>
      <trkpt lat="44.13142" lon="3.24682">
        <ele>741</ele>
        <time>2000-01-01T08:26:39.000Z</time>
      </trkpt>
      <trkpt lat="44.13137" lon="3.24677">
        <ele>742.2</ele>
        <time>2000-01-01T08:26:49.000Z</time>
      </trkpt>
      <trkpt lat="44.13128" lon="3.24666">
        <ele>739.7</ele>
        <time>2000-01-01T08:26:59.000Z</time>
      </trkpt>
      <trkpt lat="44.13122" lon="3.24658">
        <ele>740</ele>
        <time>2000-01-01T08:27:09.000Z</time>
      </trkpt>
      <trkpt lat="44.13117" lon="3.24653">
        <ele>738</ele>
        <time>2000-01-01T08:27:19.000Z</time>
      </trkpt>
      <trkpt lat="44.13111" lon="3.24648">
        <ele>737</ele>
        <time>2000-01-01T08:27:29.000Z</time>
      </trkpt>
      <trkpt lat="44.13102" lon="3.24641">
        <ele>737</ele>
        <time>2000-01-01T08:27:39.000Z</time>
      </trkpt>
      <trkpt lat="44.13098" lon="3.24634">
        <ele>737.2</ele>
        <time>2000-01-01T08:27:49.000Z</time>
      </trkpt>
      <trkpt lat="44.13088" lon="3.24629">
        <ele>735.9</ele>
        <time>2000-01-01T08:27:59.000Z</time>
      </trkpt>
      <trkpt lat="44.13076" lon="3.24626">
        <ele>735</ele>
        <time>2000-01-01T08:28:09.000Z</time>
      </trkpt>
      <trkpt lat="44.13067" lon="3.24623">
        <ele>732.9</ele>
        <time>2000-01-01T08:28:19.000Z</time>
      </trkpt>
      <trkpt lat="44.13061" lon="3.24622">
        <ele>731.8</ele>
        <time>2000-01-01T08:28:29.000Z</time>
      </trkpt>
      <trkpt lat="44.13053" lon="3.24621">
        <ele>731</ele>
        <time>2000-01-01T08:28:39.000Z</time>
      </trkpt>
      <trkpt lat="44.13048" lon="3.24619">
        <ele>729.9</ele>
        <time>2000-01-01T08:28:49.000Z</time>
      </trkpt>
      <trkpt lat="44.13041" lon="3.24617">
        <ele>729.2</ele>
        <time>2000-01-01T08:28:59.000Z</time>
      </trkpt>
      <trkpt lat="44.13037" lon="3.24614">
        <ele>729.6</ele>
        <time>2000-01-01T08:29:09.000Z</time>
      </trkpt>
      <trkpt lat="44.13031" lon="3.24611">
        <ele>730</ele>
        <time>2000-01-01T08:29:19.000Z</time>
      </trkpt>
      <trkpt lat="44.13024" lon="3.24606">
        <ele>729</ele>
        <time>2000-01-01T08:29:29.000Z</time>
      </trkpt>
      <trkpt lat="44.13019" lon="3.246">
        <ele>728.9</ele>
        <time>2000-01-01T08:29:39.000Z</time>
      </trkpt>
      <trkpt lat="44.13013" lon="3.24593">
        <ele>728</ele>
        <time>2000-01-01T08:29:49.000Z</time>
      </trkpt>
      <trkpt lat="44.13008" lon="3.24595">
        <ele>727.3</ele>
        <time>2000-01-01T08:29:59.000Z</time>
      </trkpt>
      <trkpt lat="44.13002" lon="3.24594">
        <ele>726.3</ele>
        <time>2000-01-01T08:30:09.000Z</time>
      </trkpt>
      <trkpt lat="44.12996" lon="3.24591">
        <ele>725.3</ele>
        <time>2000-01-01T08:30:19.000Z</time>
      </trkpt>
      <trkpt lat="44.12983" lon="3.24581">
        <ele>722</ele>
        <time>2000-01-01T08:30:29.000Z</time>
      </trkpt>
      <trkpt lat="44.12983" lon="3.24568">
        <ele>721.7</ele>
        <time>2000-01-01T08:30:39.000Z</time>
      </trkpt>
      <trkpt lat="44.1298" lon="3.24562">
        <ele>720.4</ele>
        <time>2000-01-01T08:30:49.000Z</time>
      </trkpt>
      <trkpt lat="44.12992" lon="3.24554">
        <ele>721</ele>
        <time>2000-01-01T08:30:59.000Z</time>
      </trkpt>
      <trkpt lat="44.1301" lon="3.24541">
        <ele>721</ele>
        <time>2000-01-01T08:31:09.000Z</time>
      </trkpt>
      <trkpt lat="44.13017" lon="3.24536">
        <ele>722.3</ele>
        <time>2000-01-01T08:31:19.000Z</time>
      </trkpt>
      <trkpt lat="44.13026" lon="3.24523">
        <ele>716</ele>
        <time>2000-01-01T08:31:29.000Z</time>
      </trkpt>
      <trkpt lat="44.1304" lon="3.24502">
        <ele>711</ele>
        <time>2000-01-01T08:31:39.000Z</time>
      </trkpt>
      <trkpt lat="44.13049" lon="3.24487">
        <ele>715.8</ele>
        <time>2000-01-01T08:31:49.000Z</time>
      </trkpt>
      <trkpt lat="44.13065" lon="3.24465">
        <ele>708</ele>
        <time>2000-01-01T08:31:59.000Z</time>
      </trkpt>
      <trkpt lat="44.1307" lon="3.24456">
        <ele>712.5</ele>
        <time>2000-01-01T08:32:09.000Z</time>
      </trkpt>
      <trkpt lat="44.1308" lon="3.24439">
        <ele>707</ele>
        <time>2000-01-01T08:32:19.000Z</time>
      </trkpt>
      <trkpt lat="44.13077" lon="3.24439">
        <ele>708.9</ele>
        <time>2000-01-01T08:32:29.000Z</time>
      </trkpt>
      <trkpt lat="44.13073" lon="3.24442">
        <ele>708</ele>
        <time>2000-01-01T08:32:39.000Z</time>
      </trkpt>
      <trkpt lat="44.13067" lon="3.2445">
        <ele>708.1</ele>
        <time>2000-01-01T08:32:49.000Z</time>
      </trkpt>
      <trkpt lat="44.13063" lon="3.24454">
        <ele>706</ele>
        <time>2000-01-01T08:32:59.000Z</time>
      </trkpt>
      <trkpt lat="44.13057" lon="3.24457">
        <ele>706.1</ele>
        <time>2000-01-01T08:33:09.000Z</time>
      </trkpt>
      <trkpt lat="44.13049" lon="3.24462">
        <ele>704.7</ele>
        <time>2000-01-01T08:33:19.000Z</time>
      </trkpt>
      <trkpt lat="44.13044" lon="3.24465">
        <ele>702</ele>
        <time>2000-01-01T08:33:29.000Z</time>
      </trkpt>
      <trkpt lat="44.13038" lon="3.24469">
        <ele>702.7</ele>
        <time>2000-01-01T08:33:39.000Z</time>
      </trkpt>
      <trkpt lat="44.1303" lon="3.24476">
        <ele>701.9</ele>
        <time>2000-01-01T08:33:49.000Z</time>
      </trkpt>
      <trkpt lat="44.13026" lon="3.24483">
        <ele>699</ele>
        <time>2000-01-01T08:33:59.000Z</time>
      </trkpt>
      <trkpt lat="44.13021" lon="3.24483">
        <ele>700.9</ele>
        <time>2000-01-01T08:34:09.000Z</time>
      </trkpt>
      <trkpt lat="44.13016" lon="3.24487">
        <ele>700.4</ele>
        <time>2000-01-01T08:34:19.000Z</time>
      </trkpt>
      <trkpt lat="44.13004" lon="3.24492">
        <ele>693</ele>
        <time>2000-01-01T08:34:29.000Z</time>
      </trkpt>
      <trkpt lat="44.12994" lon="3.24496">
        <ele>694.9</ele>
        <time>2000-01-01T08:34:39.000Z</time>
      </trkpt>
      <trkpt lat="44.12984" lon="3.24497">
        <ele>685</ele>
        <time>2000-01-01T08:34:49.000Z</time>
      </trkpt>
      <trkpt lat="44.12977" lon="3.245">
        <ele>690.7</ele>
        <time>2000-01-01T08:34:59.000Z</time>
      </trkpt>
      <trkpt lat="44.12971" lon="3.24502">
        <ele>689.7</ele>
        <time>2000-01-01T08:35:09.000Z</time>
      </trkpt>
      <trkpt lat="44.12966" lon="3.24502">
        <ele>687.1</ele>
        <time>2000-01-01T08:35:19.000Z</time>
      </trkpt>
      <trkpt lat="44.12962" lon="3.24506">
        <ele>682</ele>
        <time>2000-01-01T08:35:29.000Z</time>
      </trkpt>
      <trkpt lat="44.12955" lon="3.24509">
        <ele>685.8</ele>
        <time>2000-01-01T08:35:39.000Z</time>
      </trkpt>
      <trkpt lat="44.12948" lon="3.24516">
        <ele>686.2</ele>
        <time>2000-01-01T08:35:49.000Z</time>
      </trkpt>
      <trkpt lat="44.12939" lon="3.2452">
        <ele>678</ele>
        <time>2000-01-01T08:35:59.000Z</time>
      </trkpt>
      <trkpt lat="44.12936" lon="3.24518">
        <ele>683.8</ele>
        <time>2000-01-01T08:36:09.000Z</time>
      </trkpt>
      <trkpt lat="44.12932" lon="3.24517">
        <ele>682.7</ele>
        <time>2000-01-01T08:36:19.000Z</time>
      </trkpt>
      <trkpt lat="44.12927" lon="3.24502">
        <ele>676</ele>
        <time>2000-01-01T08:36:29.000Z</time>
      </trkpt>
      <trkpt lat="44.12929" lon="3.245">
        <ele>676.1</ele>
        <time>2000-01-01T08:36:39.000Z</time>
      </trkpt>
      <trkpt lat="44.12932" lon="3.24499">
        <ele>675.4</ele>
        <time>2000-01-01T08:36:49.000Z</time>
      </trkpt>
      <trkpt lat="44.12933" lon="3.24496">
        <ele>673.7</ele>
        <time>2000-01-01T08:36:59.000Z</time>
      </trkpt>
      <trkpt lat="44.12936" lon="3.24494">
        <ele>672.6</ele>
        <time>2000-01-01T08:37:09.000Z</time>
      </trkpt>
      <trkpt lat="44.12936" lon="3.24489">
        <ele>670</ele>
        <time>2000-01-01T08:37:19.000Z</time>
      </trkpt>
      <trkpt lat="44.12934" lon="3.24485">
        <ele>664</ele>
        <time>2000-01-01T08:37:29.000Z</time>
      </trkpt>
      <trkpt lat="44.12933" lon="3.24481">
        <ele>665.6</ele>
        <time>2000-01-01T08:37:39.000Z</time>
      </trkpt>
      <trkpt lat="44.1293" lon="3.24477">
        <ele>663.1</ele>
        <time>2000-01-01T08:37:49.000Z</time>
      </trkpt>
      <trkpt lat="44.12925" lon="3.24476">
        <ele>661.8</ele>
        <time>2000-01-01T08:37:59.000Z</time>
      </trkpt>
      <trkpt lat="44.12912" lon="3.24479">
        <ele>658</ele>
        <time>2000-01-01T08:38:09.000Z</time>
      </trkpt>
      <trkpt lat="44.12906" lon="3.24479">
        <ele>662</ele>
        <time>2000-01-01T08:38:19.000Z</time>
      </trkpt>
      <trkpt lat="44.12904" lon="3.24476">
        <ele>659.7</ele>
        <time>2000-01-01T08:38:29.000Z</time>
      </trkpt>
      <trkpt lat="44.12903" lon="3.24473">
        <ele>657.6</ele>
        <time>2000-01-01T08:38:39.000Z</time>
      </trkpt>
      <trkpt lat="44.12912" lon="3.24471">
        <ele>658</ele>
        <time>2000-01-01T08:38:49.000Z</time>
      </trkpt>
      <trkpt lat="44.12926" lon="3.24469">
        <ele>658.2</ele>
        <time>2000-01-01T08:38:59.000Z</time>
      </trkpt>
      <trkpt lat="44.12936" lon="3.24462">
        <ele>654</ele>
        <time>2000-01-01T08:39:09.000Z</time>
      </trkpt>
      <trkpt lat="44.12948" lon="3.24455">
        <ele>656.2</ele>
        <time>2000-01-01T08:39:19.000Z</time>
      </trkpt>
      <trkpt lat="44.1296" lon="3.24442">
        <ele>652</ele>
        <time>2000-01-01T08:39:29.000Z</time>
      </trkpt>
      <trkpt lat="44.12981" lon="3.24421">
        <ele>650</ele>
        <time>2000-01-01T08:39:39.000Z</time>
      </trkpt>
      <trkpt lat="44.13002" lon="3.24399">
        <ele>649</ele>
        <time>2000-01-01T08:39:49.000Z</time>
      </trkpt>
      <trkpt lat="44.13007" lon="3.24381">
        <ele>653.1</ele>
        <time>2000-01-01T08:39:59.000Z</time>
      </trkpt>
      <trkpt lat="44.13004" lon="3.24379">
        <ele>652.4</ele>
        <time>2000-01-01T08:40:09.000Z</time>
      </trkpt>
      <trkpt lat="44.13" lon="3.24377">
        <ele>649</ele>
        <time>2000-01-01T08:40:19.000Z</time>
      </trkpt>
      <trkpt lat="44.12994" lon="3.24372">
        <ele>651.3</ele>
        <time>2000-01-01T08:40:29.000Z</time>
      </trkpt>
      <trkpt lat="44.12979" lon="3.24368">
        <ele>649</ele>
        <time>2000-01-01T08:40:39.000Z</time>
      </trkpt>
      <trkpt lat="44.12972" lon="3.24367">
        <ele>646.7</ele>
        <time>2000-01-01T08:40:49.000Z</time>
      </trkpt>
      <trkpt lat="44.12967" lon="3.24365">
        <ele>645.4</ele>
        <time>2000-01-01T08:40:59.000Z</time>
      </trkpt>
      <trkpt lat="44.12959" lon="3.24356">
        <ele>640</ele>
        <time>2000-01-01T08:41:09.000Z</time>
      </trkpt>
      <trkpt lat="44.12935" lon="3.24327">
        <ele>640</ele>
        <time>2000-01-01T08:41:19.000Z</time>
      </trkpt>
      <trkpt lat="44.12925" lon="3.24314">
        <ele>638.6</ele>
        <time>2000-01-01T08:41:29.000Z</time>
      </trkpt>
      <trkpt lat="44.12914" lon="3.243">
        <ele>636</ele>
        <time>2000-01-01T08:41:39.000Z</time>
      </trkpt>
      <trkpt lat="44.12911" lon="3.24289">
        <ele>637.2</ele>
        <time>2000-01-01T08:41:49.000Z</time>
      </trkpt>
      <trkpt lat="44.12909" lon="3.24279">
        <ele>638.7</ele>
        <time>2000-01-01T08:41:59.000Z</time>
      </trkpt>
      <trkpt lat="44.12907" lon="3.24266">
        <ele>635</ele>
        <time>2000-01-01T08:42:09.000Z</time>
      </trkpt>
      <trkpt lat="44.12908" lon="3.2426">
        <ele>638.4</ele>
        <time>2000-01-01T08:42:19.000Z</time>
      </trkpt>
      <trkpt lat="44.12911" lon="3.24241">
        <ele>639.5</ele>
        <time>2000-01-01T08:42:29.000Z</time>
      </trkpt>
      <trkpt lat="44.12914" lon="3.24214">
        <ele>634</ele>
        <time>2000-01-01T08:42:39.000Z</time>
      </trkpt>
      <trkpt lat="44.12918" lon="3.24181">
        <ele>634</ele>
        <time>2000-01-01T08:42:49.000Z</time>
      </trkpt>
      <trkpt lat="44.1292" lon="3.24165">
        <ele>637.7</ele>
        <time>2000-01-01T08:42:59.000Z</time>
      </trkpt>
      <trkpt lat="44.12921" lon="3.24153">
        <ele>634</ele>
        <time>2000-01-01T08:43:09.000Z</time>
      </trkpt>
      <trkpt lat="44.12922" lon="3.24142">
        <ele>637.7</ele>
        <time>2000-01-01T08:43:19.000Z</time>
      </trkpt>
      <trkpt lat="44.12924" lon="3.24132">
        <ele>636.8</ele>
        <time>2000-01-01T08:43:29.000Z</time>
      </trkpt>
      <trkpt lat="44.12929" lon="3.24118">
        <ele>634</ele>
        <time>2000-01-01T08:43:39.000Z</time>
      </trkpt>
      <trkpt lat="44.12934" lon="3.24114">
        <ele>635.9</ele>
        <time>2000-01-01T08:43:49.000Z</time>
      </trkpt>
      <trkpt lat="44.12941" lon="3.24109">
        <ele>638.1</ele>
        <time>2000-01-01T08:43:59.000Z</time>
      </trkpt>
      <trkpt lat="44.12943" lon="3.24104">
        <ele>640</ele>
        <time>2000-01-01T08:44:09.000Z</time>
      </trkpt>
      <trkpt lat="44.12941" lon="3.24099">
        <ele>634</ele>
        <time>2000-01-01T08:44:19.000Z</time>
      </trkpt>
      <trkpt lat="44.12935" lon="3.24094">
        <ele>639.2</ele>
        <time>2000-01-01T08:44:29.000Z</time>
      </trkpt>
      <trkpt lat="44.12928" lon="3.24087">
        <ele>638.2</ele>
        <time>2000-01-01T08:44:39.000Z</time>
      </trkpt>
      <trkpt lat="44.12927" lon="3.24085">
        <ele>638.3</ele>
        <time>2000-01-01T08:44:49.000Z</time>
      </trkpt>
      <trkpt lat="44.12916" lon="3.24075">
        <ele>634</ele>
        <time>2000-01-01T08:44:59.000Z</time>
      </trkpt>
      <trkpt lat="44.12906" lon="3.24064">
        <ele>641</ele>
        <time>2000-01-01T08:45:09.000Z</time>
      </trkpt>
      <trkpt lat="44.129" lon="3.24067">
        <ele>639.7</ele>
        <time>2000-01-01T08:45:19.000Z</time>
      </trkpt>
      <trkpt lat="44.12893" lon="3.24072">
        <ele>635</ele>
        <time>2000-01-01T08:45:29.000Z</time>
      </trkpt>
      <trkpt lat="44.12886" lon="3.24075">
        <ele>634.6</ele>
        <time>2000-01-01T08:45:39.000Z</time>
      </trkpt>
      <trkpt lat="44.12873" lon="3.24086">
        <ele>635</ele>
        <time>2000-01-01T08:45:49.000Z</time>
      </trkpt>
      <trkpt lat="44.12867" lon="3.24091">
        <ele>633</ele>
        <time>2000-01-01T08:45:59.000Z</time>
      </trkpt>
      <trkpt lat="44.1286" lon="3.24095">
        <ele>633.7</ele>
        <time>2000-01-01T08:46:09.000Z</time>
      </trkpt>
      <trkpt lat="44.12846" lon="3.24101">
        <ele>635</ele>
        <time>2000-01-01T08:46:19.000Z</time>
      </trkpt>
      <trkpt lat="44.12838" lon="3.24104">
        <ele>632.4</ele>
        <time>2000-01-01T08:46:29.000Z</time>
      </trkpt>
      <trkpt lat="44.12819" lon="3.24111">
        <ele>635</ele>
        <time>2000-01-01T08:46:39.000Z</time>
      </trkpt>
      <trkpt lat="44.12795" lon="3.24123">
        <ele>636</ele>
        <time>2000-01-01T08:46:49.000Z</time>
      </trkpt>
      <trkpt lat="44.12793" lon="3.24121">
        <ele>634.2</ele>
        <time>2000-01-01T08:46:59.000Z</time>
      </trkpt>
      <trkpt lat="44.1279" lon="3.24121">
        <ele>635.2</ele>
        <time>2000-01-01T08:47:09.000Z</time>
      </trkpt>
      <trkpt lat="44.12787" lon="3.24122">
        <ele>635.6</ele>
        <time>2000-01-01T08:47:19.000Z</time>
      </trkpt>
      <trkpt lat="44.12774" lon="3.24132">
        <ele>639</ele>
        <time>2000-01-01T08:47:29.000Z</time>
      </trkpt>
      <trkpt lat="44.12768" lon="3.24135">
        <ele>636.7</ele>
        <time>2000-01-01T08:47:39.000Z</time>
      </trkpt>
      <trkpt lat="44.12762" lon="3.24137">
        <ele>638.7</ele>
        <time>2000-01-01T08:47:49.000Z</time>
      </trkpt>
      <trkpt lat="44.12756" lon="3.24138">
        <ele>641.3</ele>
        <time>2000-01-01T08:47:59.000Z</time>
      </trkpt>
      <trkpt lat="44.12752" lon="3.24138">
        <ele>644</ele>
        <time>2000-01-01T08:48:09.000Z</time>
      </trkpt>
      <trkpt lat="44.12745" lon="3.24138">
        <ele>643.7</ele>
        <time>2000-01-01T08:48:19.000Z</time>
      </trkpt>
      <trkpt lat="44.12738" lon="3.24137">
        <ele>643</ele>
        <time>2000-01-01T08:48:29.000Z</time>
      </trkpt>
      <trkpt lat="44.12732" lon="3.24134">
        <ele>646</ele>
        <time>2000-01-01T08:48:39.000Z</time>
      </trkpt>
      <trkpt lat="44.12729" lon="3.24131">
        <ele>645</ele>
        <time>2000-01-01T08:48:49.000Z</time>
      </trkpt>
      <trkpt lat="44.12722" lon="3.24123">
        <ele>648.1</ele>
        <time>2000-01-01T08:48:59.000Z</time>
      </trkpt>
      <trkpt lat="44.12716" lon="3.24117">
        <ele>648</ele>
        <time>2000-01-01T08:49:09.000Z</time>
      </trkpt>
      <trkpt lat="44.1271" lon="3.2411">
        <ele>651.2</ele>
        <time>2000-01-01T08:49:19.000Z</time>
      </trkpt>
      <trkpt lat="44.12709" lon="3.24098">
        <ele>652.5</ele>
        <time>2000-01-01T08:49:29.000Z</time>
      </trkpt>
      <trkpt lat="44.12709" lon="3.24093">
        <ele>648</ele>
        <time>2000-01-01T08:49:39.000Z</time>
      </trkpt>
      <trkpt lat="44.12711" lon="3.24079">
        <ele>656.1</ele>
        <time>2000-01-01T08:49:49.000Z</time>
      </trkpt>
      <trkpt lat="44.12713" lon="3.24055">
        <ele>654</ele>
        <time>2000-01-01T08:49:59.000Z</time>
      </trkpt>
      <trkpt lat="44.12714" lon="3.2404">
        <ele>660.2</ele>
        <time>2000-01-01T08:50:09.000Z</time>
      </trkpt>
      <trkpt lat="44.12715" lon="3.2403">
        <ele>661.2</ele>
        <time>2000-01-01T08:50:19.000Z</time>
      </trkpt>
      <trkpt lat="44.12716" lon="3.24018">
        <ele>657</ele>
        <time>2000-01-01T08:50:29.000Z</time>
      </trkpt>
      <trkpt lat="44.12718" lon="3.24011">
        <ele>664.2</ele>
        <time>2000-01-01T08:50:39.000Z</time>
      </trkpt>
      <trkpt lat="44.12717" lon="3.24001">
        <ele>664.4</ele>
        <time>2000-01-01T08:50:49.000Z</time>
      </trkpt>
      <trkpt lat="44.12713" lon="3.23995">
        <ele>665.1</ele>
        <time>2000-01-01T08:50:59.000Z</time>
      </trkpt>
      <trkpt lat="44.12708" lon="3.23989">
        <ele>668</ele>
        <time>2000-01-01T08:51:09.000Z</time>
      </trkpt>
      <trkpt lat="44.12703" lon="3.23979">
        <ele>669.1</ele>
        <time>2000-01-01T08:51:19.000Z</time>
      </trkpt>
      <trkpt lat="44.12697" lon="3.23976">
        <ele>669.6</ele>
        <time>2000-01-01T08:51:29.000Z</time>
      </trkpt>
      <trkpt lat="44.12678" lon="3.23968">
        <ele>677</ele>
        <time>2000-01-01T08:51:39.000Z</time>
      </trkpt>
      <trkpt lat="44.12659" lon="3.23958">
        <ele>685</ele>
        <time>2000-01-01T08:51:49.000Z</time>
      </trkpt>
      <trkpt lat="44.12649" lon="3.23954">
        <ele>683</ele>
        <time>2000-01-01T08:51:59.000Z</time>
      </trkpt>
      <trkpt lat="44.12637" lon="3.23951">
        <ele>688</ele>
        <time>2000-01-01T08:52:09.000Z</time>
      </trkpt>
      <trkpt lat="44.12617" lon="3.23946">
        <ele>689</ele>
        <time>2000-01-01T08:52:19.000Z</time>
      </trkpt>
      <trkpt lat="44.12605" lon="3.23943">
        <ele>690.3</ele>
        <time>2000-01-01T08:52:29.000Z</time>
      </trkpt>
      <trkpt lat="44.12595" lon="3.2394">
        <ele>690</ele>
        <time>2000-01-01T08:52:39.000Z</time>
      </trkpt>
      <trkpt lat="44.12588" lon="3.23938">
        <ele>691.6</ele>
        <time>2000-01-01T08:52:49.000Z</time>
      </trkpt>
      <trkpt lat="44.12582" lon="3.23936">
        <ele>692.2</ele>
        <time>2000-01-01T08:52:59.000Z</time>
      </trkpt>
      <trkpt lat="44.12576" lon="3.23934">
        <ele>692.7</ele>
        <time>2000-01-01T08:53:09.000Z</time>
      </trkpt>
      <trkpt lat="44.1257" lon="3.23932">
        <ele>692</ele>
        <time>2000-01-01T08:53:19.000Z</time>
      </trkpt>
      <trkpt lat="44.12565" lon="3.2393">
        <ele>694</ele>
        <time>2000-01-01T08:53:29.000Z</time>
      </trkpt>
      <trkpt lat="44.1256" lon="3.23928">
        <ele>694.6</ele>
        <time>2000-01-01T08:53:39.000Z</time>
      </trkpt>
      <trkpt lat="44.1255" lon="3.2393">
        <ele>694</ele>
        <time>2000-01-01T08:53:49.000Z</time>
      </trkpt>
      <trkpt lat="44.12544" lon="3.23933">
        <ele>693.3</ele>
        <time>2000-01-01T08:53:59.000Z</time>
      </trkpt>
      <trkpt lat="44.12539" lon="3.23935">
        <ele>692.8</ele>
        <time>2000-01-01T08:54:09.000Z</time>
      </trkpt>
      <trkpt lat="44.12529" lon="3.23936">
        <ele>694</ele>
        <time>2000-01-01T08:54:19.000Z</time>
      </trkpt>
      <trkpt lat="44.12522" lon="3.23939">
        <ele>691.4</ele>
        <time>2000-01-01T08:54:29.000Z</time>
      </trkpt>
      <trkpt lat="44.12516" lon="3.23939">
        <ele>691.2</ele>
        <time>2000-01-01T08:54:39.000Z</time>
      </trkpt>
      <trkpt lat="44.12511" lon="3.23936">
        <ele>692.4</ele>
        <time>2000-01-01T08:54:49.000Z</time>
      </trkpt>
      <trkpt lat="44.12505" lon="3.23933">
        <ele>694</ele>
        <time>2000-01-01T08:54:59.000Z</time>
      </trkpt>
      <trkpt lat="44.12501" lon="3.23927">
        <ele>694.8</ele>
        <time>2000-01-01T08:55:09.000Z</time>
      </trkpt>
      <trkpt lat="44.125" lon="3.23921">
        <ele>696.6</ele>
        <time>2000-01-01T08:55:19.000Z</time>
      </trkpt>
      <trkpt lat="44.12497" lon="3.23911">
        <ele>696.1</ele>
        <time>2000-01-01T08:55:29.000Z</time>
      </trkpt>
      <trkpt lat="44.12497" lon="3.23903">
        <ele>696</ele>
        <time>2000-01-01T08:55:39.000Z</time>
      </trkpt>
      <trkpt lat="44.12499" lon="3.23892">
        <ele>698.1</ele>
        <time>2000-01-01T08:55:49.000Z</time>
      </trkpt>
      <trkpt lat="44.12503" lon="3.23882">
        <ele>699.7</ele>
        <time>2000-01-01T08:55:59.000Z</time>
      </trkpt>
      <trkpt lat="44.12507" lon="3.23875">
        <ele>698</ele>
        <time>2000-01-01T08:56:09.000Z</time>
      </trkpt>
      <trkpt lat="44.12513" lon="3.23866">
        <ele>704</ele>
        <time>2000-01-01T08:56:19.000Z</time>
      </trkpt>
      <trkpt lat="44.12518" lon="3.23853">
        <ele>698</ele>
        <time>2000-01-01T08:56:29.000Z</time>
      </trkpt>
      <trkpt lat="44.12519" lon="3.23849">
        <ele>705.4</ele>
        <time>2000-01-01T08:56:39.000Z</time>
      </trkpt>
      <trkpt lat="44.12521" lon="3.2384">
        <ele>705.1</ele>
        <time>2000-01-01T08:56:49.000Z</time>
      </trkpt>
      <trkpt lat="44.12521" lon="3.23837">
        <ele>704.6</ele>
        <time>2000-01-01T08:56:59.000Z</time>
      </trkpt>
      <trkpt lat="44.12525" lon="3.23833">
        <ele>706.8</ele>
        <time>2000-01-01T08:57:09.000Z</time>
      </trkpt>
      <trkpt lat="44.12526" lon="3.23831">
        <ele>707.2</ele>
        <time>2000-01-01T08:57:19.000Z</time>
      </trkpt>
      <trkpt lat="44.12528" lon="3.23825">
        <ele>698</ele>
        <time>2000-01-01T08:57:29.000Z</time>
      </trkpt>
      <trkpt lat="44.12532" lon="3.23823">
        <ele>710</ele>
        <time>2000-01-01T08:57:39.000Z</time>
      </trkpt>
      <trkpt lat="44.12533" lon="3.23821">
        <ele>710.3</ele>
        <time>2000-01-01T08:57:49.000Z</time>
      </trkpt>
      <trkpt lat="44.12537" lon="3.23815">
        <ele>712</ele>
        <time>2000-01-01T08:57:59.000Z</time>
      </trkpt>
      <trkpt lat="44.12542" lon="3.23805">
        <ele>709</ele>
        <time>2000-01-01T08:58:09.000Z</time>
      </trkpt>
      <trkpt lat="44.12545" lon="3.23801">
        <ele>715.4</ele>
        <time>2000-01-01T08:58:19.000Z</time>
      </trkpt>
      <trkpt lat="44.12549" lon="3.23798">
        <ele>717.9</ele>
        <time>2000-01-01T08:58:29.000Z</time>
      </trkpt>
      <trkpt lat="44.12549" lon="3.23789">
        <ele>716.6</ele>
        <time>2000-01-01T08:58:39.000Z</time>
      </trkpt>
      <trkpt lat="44.12551" lon="3.23784">
        <ele>717.2</ele>
        <time>2000-01-01T08:58:49.000Z</time>
      </trkpt>
      <trkpt lat="44.12554" lon="3.23779">
        <ele>711</ele>
        <time>2000-01-01T08:58:59.000Z</time>
      </trkpt>
      <trkpt lat="44.12557" lon="3.2377">
        <ele>719.7</ele>
        <time>2000-01-01T08:59:09.000Z</time>
      </trkpt>
      <trkpt lat="44.12558" lon="3.23763">
        <ele>720.2</ele>
        <time>2000-01-01T08:59:19.000Z</time>
      </trkpt>
      <trkpt lat="44.1256" lon="3.23752">
        <ele>713</ele>
        <time>2000-01-01T08:59:29.000Z</time>
      </trkpt>
      <trkpt lat="44.12564" lon="3.2374">
        <ele>723.2</ele>
        <time>2000-01-01T08:59:39.000Z</time>
      </trkpt>
      <trkpt lat="44.1257" lon="3.23729">
        <ele>726.9</ele>
        <time>2000-01-01T08:59:49.000Z</time>
      </trkpt>
      <trkpt lat="44.12576" lon="3.23717">
        <ele>726</ele>
        <time>2000-01-01T08:59:59.000Z</time>
      </trkpt>
      <trkpt lat="44.12581" lon="3.23706">
        <ele>733.4</ele>
        <time>2000-01-01T09:00:09.000Z</time>
      </trkpt>
      <trkpt lat="44.12585" lon="3.23697">
        <ele>735.2</ele>
        <time>2000-01-01T09:00:19.000Z</time>
      </trkpt>
      <trkpt lat="44.12588" lon="3.23687">
        <ele>732</ele>
        <time>2000-01-01T09:00:29.000Z</time>
      </trkpt>
      <trkpt lat="44.12594" lon="3.23681">
        <ele>737.2</ele>
        <time>2000-01-01T09:00:39.000Z</time>
      </trkpt>
      <trkpt lat="44.12603" lon="3.23674">
        <ele>740.4</ele>
        <time>2000-01-01T09:00:49.000Z</time>
      </trkpt>
      <trkpt lat="44.12611" lon="3.23675">
        <ele>742</ele>
        <time>2000-01-01T09:00:59.000Z</time>
      </trkpt>
      <trkpt lat="44.1262" lon="3.23672">
        <ele>747.7</ele>
        <time>2000-01-01T09:01:09.000Z</time>
      </trkpt>
      <trkpt lat="44.12623" lon="3.23675">
        <ele>749.5</ele>
        <time>2000-01-01T09:01:19.000Z</time>
      </trkpt>
      <trkpt lat="44.12618" lon="3.23681">
        <ele>743</ele>
        <time>2000-01-01T09:01:29.000Z</time>
      </trkpt>
      <trkpt lat="44.12617" lon="3.23687">
        <ele>749.7</ele>
        <time>2000-01-01T09:01:39.000Z</time>
      </trkpt>
      <trkpt lat="44.12616" lon="3.2369">
        <ele>750</ele>
        <time>2000-01-01T09:01:49.000Z</time>
      </trkpt>
      <trkpt lat="44.12617" lon="3.23693">
        <ele>751</ele>
        <time>2000-01-01T09:01:59.000Z</time>
      </trkpt>
      <trkpt lat="44.1262" lon="3.23693">
        <ele>752.2</ele>
        <time>2000-01-01T09:02:09.000Z</time>
      </trkpt>
      <trkpt lat="44.12627" lon="3.23688">
        <ele>753.9</ele>
        <time>2000-01-01T09:02:19.000Z</time>
      </trkpt>
      <trkpt lat="44.12635" lon="3.23685">
        <ele>753</ele>
        <time>2000-01-01T09:02:29.000Z</time>
      </trkpt>
      <trkpt lat="44.12649" lon="3.23674">
        <ele>759.4</ele>
        <time>2000-01-01T09:02:39.000Z</time>
      </trkpt>
      <trkpt lat="44.12656" lon="3.23669">
        <ele>758</ele>
        <time>2000-01-01T09:02:49.000Z</time>
      </trkpt>
      <trkpt lat="44.12661" lon="3.23666">
        <ele>761.8</ele>
        <time>2000-01-01T09:02:59.000Z</time>
      </trkpt>
      <trkpt lat="44.12666" lon="3.23661">
        <ele>762.7</ele>
        <time>2000-01-01T09:03:09.000Z</time>
      </trkpt>
      <trkpt lat="44.12673" lon="3.23653">
        <ele>761</ele>
        <time>2000-01-01T09:03:19.000Z</time>
      </trkpt>
      <trkpt lat="44.12682" lon="3.23651">
        <ele>763.9</ele>
        <time>2000-01-01T09:03:29.000Z</time>
      </trkpt>
      <trkpt lat="44.12692" lon="3.23648">
        <ele>764.9</ele>
        <time>2000-01-01T09:03:39.000Z</time>
      </trkpt>
      <trkpt lat="44.12701" lon="3.23644">
        <ele>764</ele>
        <time>2000-01-01T09:03:49.000Z</time>
      </trkpt>
      <trkpt lat="44.12717" lon="3.23635">
        <ele>769</ele>
        <time>2000-01-01T09:03:59.000Z</time>
      </trkpt>
      <trkpt lat="44.12725" lon="3.23629">
        <ele>766</ele>
        <time>2000-01-01T09:04:09.000Z</time>
      </trkpt>
      <trkpt lat="44.12738" lon="3.23619">
        <ele>776.8</ele>
        <time>2000-01-01T09:04:19.000Z</time>
      </trkpt>
      <trkpt lat="44.12743" lon="3.23624">
        <ele>773</ele>
        <time>2000-01-01T09:04:29.000Z</time>
      </trkpt>
      <trkpt lat="44.12752" lon="3.23617">
        <ele>783.6</ele>
        <time>2000-01-01T09:04:39.000Z</time>
      </trkpt>
      <trkpt lat="44.12757" lon="3.2361">
        <ele>783.8</ele>
        <time>2000-01-01T09:04:49.000Z</time>
      </trkpt>
      <trkpt lat="44.12763" lon="3.23603">
        <ele>784</ele>
        <time>2000-01-01T09:04:59.000Z</time>
      </trkpt>
      <trkpt lat="44.1277" lon="3.23597">
        <ele>788.5</ele>
        <time>2000-01-01T09:05:09.000Z</time>
      </trkpt>
      <trkpt lat="44.12785" lon="3.23592">
        <ele>792</ele>
        <time>2000-01-01T09:05:19.000Z</time>
      </trkpt>
      <trkpt lat="44.12787" lon="3.2359">
        <ele>794.9</ele>
        <time>2000-01-01T09:05:29.000Z</time>
      </trkpt>
      <trkpt lat="44.128" lon="3.23579">
        <ele>797.7</ele>
        <time>2000-01-01T09:05:39.000Z</time>
      </trkpt>
      <trkpt lat="44.12806" lon="3.23573">
        <ele>795</ele>
        <time>2000-01-01T09:05:49.000Z</time>
      </trkpt>
      <trkpt lat="44.12809" lon="3.23571">
        <ele>798.8</ele>
        <time>2000-01-01T09:05:59.000Z</time>
      </trkpt>
      <trkpt lat="44.12818" lon="3.23563">
        <ele>799.8</ele>
        <time>2000-01-01T09:06:09.000Z</time>
      </trkpt>
      <trkpt lat="44.12827" lon="3.23555">
        <ele>798</ele>
        <time>2000-01-01T09:06:19.000Z</time>
      </trkpt>
      <trkpt lat="44.12836" lon="3.23546">
        <ele>802.8</ele>
        <time>2000-01-01T09:06:29.000Z</time>
      </trkpt>
      <trkpt lat="44.12848" lon="3.23536">
        <ele>801</ele>
        <time>2000-01-01T09:06:39.000Z</time>
      </trkpt>
      <trkpt lat="44.12861" lon="3.23525">
        <ele>806.8</ele>
        <time>2000-01-01T09:06:49.000Z</time>
      </trkpt>
      <trkpt lat="44.12864" lon="3.23521">
        <ele>805</ele>
        <time>2000-01-01T09:06:59.000Z</time>
      </trkpt>
      <trkpt lat="44.12886" lon="3.2352">
        <ele>806</ele>
        <time>2000-01-01T09:07:09.000Z</time>
      </trkpt>
      <trkpt lat="44.12893" lon="3.23517">
        <ele>808.2</ele>
        <time>2000-01-01T09:07:19.000Z</time>
      </trkpt>
      <trkpt lat="44.129" lon="3.23515">
        <ele>808.6</ele>
        <time>2000-01-01T09:07:29.000Z</time>
      </trkpt>
      <trkpt lat="44.12908" lon="3.23512">
        <ele>807</ele>
        <time>2000-01-01T09:07:39.000Z</time>
      </trkpt>
      <trkpt lat="44.12917" lon="3.23509">
        <ele>810</ele>
        <time>2000-01-01T09:07:49.000Z</time>
      </trkpt>
      <trkpt lat="44.12927" lon="3.23492">
        <ele>808</ele>
        <time>2000-01-01T09:07:59.000Z</time>
      </trkpt>
      <trkpt lat="44.12937" lon="3.23482">
        <ele>810.8</ele>
        <time>2000-01-01T09:08:09.000Z</time>
      </trkpt>
      <trkpt lat="44.12953" lon="3.23467">
        <ele>811</ele>
        <time>2000-01-01T09:08:19.000Z</time>
      </trkpt>
      <trkpt lat="44.1296" lon="3.23458">
        <ele>813.5</ele>
        <time>2000-01-01T09:08:29.000Z</time>
      </trkpt>
      <trkpt lat="44.12974" lon="3.23443">
        <ele>815</ele>
        <time>2000-01-01T09:08:39.000Z</time>
      </trkpt>
      <trkpt lat="44.12985" lon="3.23426">
        <ele>815.9</ele>
        <time>2000-01-01T09:08:49.000Z</time>
      </trkpt>
      <trkpt lat="44.12992" lon="3.23415">
        <ele>815</ele>
        <time>2000-01-01T09:08:59.000Z</time>
      </trkpt>
      <trkpt lat="44.13" lon="3.23408">
        <ele>815.8</ele>
        <time>2000-01-01T09:09:09.000Z</time>
      </trkpt>
      <trkpt lat="44.13006" lon="3.23403">
        <ele>815.3</ele>
        <time>2000-01-01T09:09:19.000Z</time>
      </trkpt>
      <trkpt lat="44.13013" lon="3.234">
        <ele>815</ele>
        <time>2000-01-01T09:09:29.000Z</time>
      </trkpt>
      <trkpt lat="44.13017" lon="3.23398">
        <ele>815.8</ele>
        <time>2000-01-01T09:09:39.000Z</time>
      </trkpt>
      <trkpt lat="44.13031" lon="3.23394">
        <ele>816.9</ele>
        <time>2000-01-01T09:09:49.000Z</time>
      </trkpt>
      <trkpt lat="44.13039" lon="3.23395">
        <ele>817</ele>
        <time>2000-01-01T09:09:59.000Z</time>
      </trkpt>
      <trkpt lat="44.13043" lon="3.23397">
        <ele>817.3</ele>
        <time>2000-01-01T09:10:09.000Z</time>
      </trkpt>
      <trkpt lat="44.13047" lon="3.23396">
        <ele>817.4</ele>
        <time>2000-01-01T09:10:19.000Z</time>
      </trkpt>
      <trkpt lat="44.13053" lon="3.23393">
        <ele>817.8</ele>
        <time>2000-01-01T09:10:29.000Z</time>
      </trkpt>
      <trkpt lat="44.13061" lon="3.23391">
        <ele>817</ele>
        <time>2000-01-01T09:10:39.000Z</time>
      </trkpt>
      <trkpt lat="44.13068" lon="3.23388">
        <ele>818.4</ele>
        <time>2000-01-01T09:10:49.000Z</time>
      </trkpt>
      <trkpt lat="44.13087" lon="3.23377">
        <ele>816</ele>
        <time>2000-01-01T09:10:59.000Z</time>
      </trkpt>
      <trkpt lat="44.13091" lon="3.23358">
        <ele>819.3</ele>
        <time>2000-01-01T09:11:09.000Z</time>
      </trkpt>
      <trkpt lat="44.13093" lon="3.23353">
        <ele>818.8</ele>
        <time>2000-01-01T09:11:19.000Z</time>
      </trkpt>
      <trkpt lat="44.13095" lon="3.23348">
        <ele>816</ele>
        <time>2000-01-01T09:11:29.000Z</time>
      </trkpt>
      <trkpt lat="44.13099" lon="3.2334">
        <ele>818.3</ele>
        <time>2000-01-01T09:11:39.000Z</time>
      </trkpt>
      <trkpt lat="44.13104" lon="3.23331">
        <ele>818.6</ele>
        <time>2000-01-01T09:11:49.000Z</time>
      </trkpt>
      <trkpt lat="44.13109" lon="3.23319">
        <ele>816</ele>
        <time>2000-01-01T09:11:59.000Z</time>
      </trkpt>
      <trkpt lat="44.13114" lon="3.23307">
        <ele>818.8</ele>
        <time>2000-01-01T09:12:09.000Z</time>
      </trkpt>
      <trkpt lat="44.1312" lon="3.23294">
        <ele>816</ele>
        <time>2000-01-01T09:12:19.000Z</time>
      </trkpt>
      <trkpt lat="44.13123" lon="3.23291">
        <ele>818.3</ele>
        <time>2000-01-01T09:12:29.000Z</time>
      </trkpt>
      <trkpt lat="44.13126" lon="3.23287">
        <ele>818.6</ele>
        <time>2000-01-01T09:12:39.000Z</time>
      </trkpt>
      <trkpt lat="44.13129" lon="3.23283">
        <ele>819.1</ele>
        <time>2000-01-01T09:12:49.000Z</time>
      </trkpt>
      <trkpt lat="44.13132" lon="3.23278">
        <ele>819.5</ele>
        <time>2000-01-01T09:12:59.000Z</time>
      </trkpt>
      <trkpt lat="44.13134" lon="3.23273">
        <ele>819</ele>
        <time>2000-01-01T09:13:09.000Z</time>
      </trkpt>
      <trkpt lat="44.13139" lon="3.23259">
        <ele>823.4</ele>
        <time>2000-01-01T09:13:19.000Z</time>
      </trkpt>
      <trkpt lat="44.13141" lon="3.23252">
        <ele>824.1</ele>
        <time>2000-01-01T09:13:29.000Z</time>
      </trkpt>
      <trkpt lat="44.13144" lon="3.23239">
        <ele>823</ele>
        <time>2000-01-01T09:13:39.000Z</time>
      </trkpt>
      <trkpt lat="44.13146" lon="3.23229">
        <ele>823.3</ele>
        <time>2000-01-01T09:13:49.000Z</time>
      </trkpt>
      <trkpt lat="44.13149" lon="3.23221">
        <ele>823.5</ele>
        <time>2000-01-01T09:13:59.000Z</time>
      </trkpt>
      <trkpt lat="44.13152" lon="3.23215">
        <ele>825</ele>
        <time>2000-01-01T09:14:09.000Z</time>
      </trkpt>
      <trkpt lat="44.13155" lon="3.23209">
        <ele>824.7</ele>
        <time>2000-01-01T09:14:19.000Z</time>
      </trkpt>
      <trkpt lat="44.13158" lon="3.23203">
        <ele>825.6</ele>
        <time>2000-01-01T09:14:29.000Z</time>
      </trkpt>
      <trkpt lat="44.1316" lon="3.23199">
        <ele>826.4</ele>
        <time>2000-01-01T09:14:39.000Z</time>
      </trkpt>
      <trkpt lat="44.13171" lon="3.23193">
        <ele>826</ele>
        <time>2000-01-01T09:14:49.000Z</time>
      </trkpt>
      <trkpt lat="44.13177" lon="3.23189">
        <ele>829.1</ele>
        <time>2000-01-01T09:14:59.000Z</time>
      </trkpt>
      <trkpt lat="44.13183" lon="3.23184">
        <ele>829.7</ele>
        <time>2000-01-01T09:15:09.000Z</time>
      </trkpt>
      <trkpt lat="44.13185" lon="3.23181">
        <ele>830</ele>
        <time>2000-01-01T09:15:19.000Z</time>
      </trkpt>
      <trkpt lat="44.13187" lon="3.23177">
        <ele>827</ele>
        <time>2000-01-01T09:15:29.000Z</time>
      </trkpt>
      <trkpt lat="44.13191" lon="3.23171">
        <ele>832</ele>
        <time>2000-01-01T09:15:39.000Z</time>
      </trkpt>
      <trkpt lat="44.13201" lon="3.23153">
        <ele>830</ele>
        <time>2000-01-01T09:15:49.000Z</time>
      </trkpt>
      <trkpt lat="44.13202" lon="3.23146">
        <ele>832.2</ele>
        <time>2000-01-01T09:15:59.000Z</time>
      </trkpt>
      <trkpt lat="44.13204" lon="3.23133">
        <ele>831.6</ele>
        <time>2000-01-01T09:16:09.000Z</time>
      </trkpt>
      <trkpt lat="44.13205" lon="3.23127">
        <ele>833</ele>
        <time>2000-01-01T09:16:19.000Z</time>
      </trkpt>
      <trkpt lat="44.13212" lon="3.23113">
        <ele>833.1</ele>
        <time>2000-01-01T09:16:29.000Z</time>
      </trkpt>
      <trkpt lat="44.13216" lon="3.23103">
        <ele>833</ele>
        <time>2000-01-01T09:16:39.000Z</time>
      </trkpt>
      <trkpt lat="44.13219" lon="3.23096">
        <ele>835.2</ele>
        <time>2000-01-01T09:16:49.000Z</time>
      </trkpt>
      <trkpt lat="44.13215" lon="3.23089">
        <ele>833.6</ele>
        <time>2000-01-01T09:16:59.000Z</time>
      </trkpt>
      <trkpt lat="44.1321" lon="3.23083">
        <ele>831.6</ele>
        <time>2000-01-01T09:17:09.000Z</time>
      </trkpt>
      <trkpt lat="44.13206" lon="3.23076">
        <ele>833</ele>
        <time>2000-01-01T09:17:19.000Z</time>
      </trkpt>
      <trkpt lat="44.1321" lon="3.23056">
        <ele>834.9</ele>
        <time>2000-01-01T09:17:29.000Z</time>
      </trkpt>
      <trkpt lat="44.13213" lon="3.2304">
        <ele>834</ele>
        <time>2000-01-01T09:17:39.000Z</time>
      </trkpt>
      <trkpt lat="44.13224" lon="3.23025">
        <ele>836</ele>
        <time>2000-01-01T09:17:49.000Z</time>
      </trkpt>
      <trkpt lat="44.13234" lon="3.23012">
        <ele>837</ele>
        <time>2000-01-01T09:17:59.000Z</time>
      </trkpt>
      <trkpt lat="44.13244" lon="3.23004">
        <ele>838.7</ele>
        <time>2000-01-01T09:18:09.000Z</time>
      </trkpt>
      <trkpt lat="44.13255" lon="3.22995">
        <ele>838</ele>
        <time>2000-01-01T09:18:19.000Z</time>
      </trkpt>
      <trkpt lat="44.13266" lon="3.22984">
        <ele>841.2</ele>
        <time>2000-01-01T09:18:29.000Z</time>
      </trkpt>
      <trkpt lat="44.1327" lon="3.22978">
        <ele>838</ele>
        <time>2000-01-01T09:18:39.000Z</time>
      </trkpt>
      <trkpt lat="44.13275" lon="3.22972">
        <ele>842.4</ele>
        <time>2000-01-01T09:18:49.000Z</time>
      </trkpt>
      <trkpt lat="44.13282" lon="3.22962">
        <ele>843.1</ele>
        <time>2000-01-01T09:18:59.000Z</time>
      </trkpt>
      <trkpt lat="44.13286" lon="3.22939">
        <ele>839</ele>
        <time>2000-01-01T09:19:09.000Z</time>
      </trkpt>
      <trkpt lat="44.1329" lon="3.22924">
        <ele>841.1</ele>
        <time>2000-01-01T09:19:19.000Z</time>
      </trkpt>
      <trkpt lat="44.13292" lon="3.22915">
        <ele>840.7</ele>
        <time>2000-01-01T09:19:29.000Z</time>
      </trkpt>
      <trkpt lat="44.13293" lon="3.22911">
        <ele>839</ele>
        <time>2000-01-01T09:19:39.000Z</time>
      </trkpt>
      <trkpt lat="44.13283" lon="3.22898">
        <ele>840</ele>
        <time>2000-01-01T09:19:49.000Z</time>
      </trkpt>
      <trkpt lat="44.13281" lon="3.2289">
        <ele>837</ele>
        <time>2000-01-01T09:19:59.000Z</time>
      </trkpt>
      <trkpt lat="44.13279" lon="3.22876">
        <ele>840.3</ele>
        <time>2000-01-01T09:20:09.000Z</time>
      </trkpt>
      <trkpt lat="44.13279" lon="3.22867">
        <ele>840.3</ele>
        <time>2000-01-01T09:20:19.000Z</time>
      </trkpt>
      <trkpt lat="44.13279" lon="3.22844">
        <ele>837</ele>
        <time>2000-01-01T09:20:29.000Z</time>
      </trkpt>
      <trkpt lat="44.13278" lon="3.22822">
        <ele>840.7</ele>
        <time>2000-01-01T09:20:39.000Z</time>
      </trkpt>
      <trkpt lat="44.1328" lon="3.22811">
        <ele>837</ele>
        <time>2000-01-01T09:20:49.000Z</time>
      </trkpt>
      <trkpt lat="44.13281" lon="3.22803">
        <ele>841.2</ele>
        <time>2000-01-01T09:20:59.000Z</time>
      </trkpt>
      <trkpt lat="44.13283" lon="3.22791">
        <ele>842.4</ele>
        <time>2000-01-01T09:21:09.000Z</time>
      </trkpt>
      <trkpt lat="44.13278" lon="3.22786">
        <ele>836</ele>
        <time>2000-01-01T09:21:19.000Z</time>
      </trkpt>
      <trkpt lat="44.13273" lon="3.22781">
        <ele>839.7</ele>
        <time>2000-01-01T09:21:29.000Z</time>
      </trkpt>
      <trkpt lat="44.1327" lon="3.22777">
        <ele>838.6</ele>
        <time>2000-01-01T09:21:39.000Z</time>
      </trkpt>
      <trkpt lat="44.13263" lon="3.22767">
        <ele>836</ele>
        <time>2000-01-01T09:21:49.000Z</time>
      </trkpt>
      <trkpt lat="44.13262" lon="3.22759">
        <ele>835</ele>
        <time>2000-01-01T09:21:59.000Z</time>
      </trkpt>
      <trkpt lat="44.1326" lon="3.22751">
        <ele>834.2</ele>
        <time>2000-01-01T09:22:09.000Z</time>
      </trkpt>
      <trkpt lat="44.13256" lon="3.22754">
        <ele>832.9</ele>
        <time>2000-01-01T09:22:19.000Z</time>
      </trkpt>
      <trkpt lat="44.1325" lon="3.22752">
        <ele>830</ele>
        <time>2000-01-01T09:22:29.000Z</time>
      </trkpt>
      <trkpt lat="44.13243" lon="3.22745">
        <ele>827</ele>
        <time>2000-01-01T09:22:39.000Z</time>
      </trkpt>
      <trkpt lat="44.13239" lon="3.2274">
        <ele>824.1</ele>
        <time>2000-01-01T09:22:49.000Z</time>
      </trkpt>
      <trkpt lat="44.13253" lon="3.2273">
        <ele>830</ele>
        <time>2000-01-01T09:22:59.000Z</time>
      </trkpt>
      <trkpt lat="44.1326" lon="3.22713">
        <ele>831.1</ele>
        <time>2000-01-01T09:23:09.000Z</time>
      </trkpt>
      <trkpt lat="44.1326" lon="3.227">
        <ele>830</ele>
        <time>2000-01-01T09:23:19.000Z</time>
      </trkpt>
      <trkpt lat="44.13238" lon="3.22699">
        <ele>828</ele>
        <time>2000-01-01T09:23:29.000Z</time>
      </trkpt>
      <trkpt lat="44.13243" lon="3.22682">
        <ele>828.7</ele>
        <time>2000-01-01T09:23:39.000Z</time>
      </trkpt>
      <trkpt lat="44.13248" lon="3.22666">
        <ele>826</ele>
        <time>2000-01-01T09:23:49.000Z</time>
      </trkpt>
      <trkpt lat="44.1325" lon="3.22663">
        <ele>831.9</ele>
        <time>2000-01-01T09:23:59.000Z</time>
      </trkpt>
      <trkpt lat="44.13251" lon="3.22648">
        <ele>831.5</ele>
        <time>2000-01-01T09:24:09.000Z</time>
      </trkpt>
      <trkpt lat="44.13249" lon="3.22644">
        <ele>829.7</ele>
        <time>2000-01-01T09:24:19.000Z</time>
      </trkpt>
      <trkpt lat="44.13249" lon="3.22635">
        <ele>824</ele>
        <time>2000-01-01T09:24:29.000Z</time>
      </trkpt>
      <trkpt lat="44.13251" lon="3.22624">
        <ele>824.5</ele>
        <time>2000-01-01T09:24:39.000Z</time>
      </trkpt>
      <trkpt lat="44.13256" lon="3.22621">
        <ele>822.5</ele>
        <time>2000-01-01T09:24:49.000Z</time>
      </trkpt>
      <trkpt lat="44.13262" lon="3.22619">
        <ele>826</ele>
        <time>2000-01-01T09:24:59.000Z</time>
      </trkpt>
      <trkpt lat="44.13269" lon="3.22621">
        <ele>820.7</ele>
        <time>2000-01-01T09:25:09.000Z</time>
      </trkpt>
      <trkpt lat="44.13272" lon="3.22625">
        <ele>823</ele>
        <time>2000-01-01T09:25:19.000Z</time>
      </trkpt>
      <trkpt lat="44.13276" lon="3.22631">
        <ele>827.1</ele>
        <time>2000-01-01T09:25:29.000Z</time>
      </trkpt>
      <trkpt lat="44.1328" lon="3.22635">
        <ele>828</ele>
        <time>2000-01-01T09:25:39.000Z</time>
      </trkpt>
      <trkpt lat="44.13285" lon="3.22636">
        <ele>832.9</ele>
        <time>2000-01-01T09:25:49.000Z</time>
      </trkpt>
      <trkpt lat="44.1329" lon="3.22632">
        <ele>832.6</ele>
        <time>2000-01-01T09:25:59.000Z</time>
      </trkpt>
      <trkpt lat="44.13296" lon="3.22625">
        <ele>833</ele>
        <time>2000-01-01T09:26:09.000Z</time>
      </trkpt>
      <trkpt lat="44.13301" lon="3.22623">
        <ele>837</ele>
        <time>2000-01-01T09:26:19.000Z</time>
      </trkpt>
      <trkpt lat="44.13304" lon="3.22629">
        <ele>837.9</ele>
        <time>2000-01-01T09:26:29.000Z</time>
      </trkpt>
      <trkpt lat="44.13303" lon="3.22639">
        <ele>838.5</ele>
        <time>2000-01-01T09:26:39.000Z</time>
      </trkpt>
      <trkpt lat="44.13301" lon="3.22648">
        <ele>839.8</ele>
        <time>2000-01-01T09:26:49.000Z</time>
      </trkpt>
      <trkpt lat="44.133" lon="3.22657">
        <ele>838</ele>
        <time>2000-01-01T09:26:59.000Z</time>
      </trkpt>
      <trkpt lat="44.13306" lon="3.22658">
        <ele>842.4</ele>
        <time>2000-01-01T09:27:09.000Z</time>
      </trkpt>
      <trkpt lat="44.13316" lon="3.2266">
        <ele>843</ele>
        <time>2000-01-01T09:27:19.000Z</time>
      </trkpt>
      <trkpt lat="44.13323" lon="3.22659">
        <ele>840</ele>
        <time>2000-01-01T09:27:29.000Z</time>
      </trkpt>
      <trkpt lat="44.1333" lon="3.22661">
        <ele>843.3</ele>
        <time>2000-01-01T09:27:39.000Z</time>
      </trkpt>
      <trkpt lat="44.1333" lon="3.22665">
        <ele>843.8</ele>
        <time>2000-01-01T09:27:49.000Z</time>
      </trkpt>
      <trkpt lat="44.13333" lon="3.22672">
        <ele>843.6</ele>
        <time>2000-01-01T09:27:59.000Z</time>
      </trkpt>
      <trkpt lat="44.13335" lon="3.22679">
        <ele>843</ele>
        <time>2000-01-01T09:28:09.000Z</time>
      </trkpt>
      <trkpt lat="44.13336" lon="3.22683">
        <ele>843.2</ele>
        <time>2000-01-01T09:28:19.000Z</time>
      </trkpt>
      <trkpt lat="44.13336" lon="3.22687">
        <ele>842.9</ele>
        <time>2000-01-01T09:28:29.000Z</time>
      </trkpt>
      <trkpt lat="44.13336" lon="3.22689">
        <ele>842.8</ele>
        <time>2000-01-01T09:28:39.000Z</time>
      </trkpt>
      <trkpt lat="44.13347" lon="3.22689">
        <ele>844.6</ele>
        <time>2000-01-01T09:28:49.000Z</time>
      </trkpt>
      <trkpt lat="44.13368" lon="3.22691">
        <ele>847</ele>
        <time>2000-01-01T09:28:59.000Z</time>
      </trkpt>
      <trkpt lat="44.13371" lon="3.22692">
        <ele>848.2</ele>
        <time>2000-01-01T09:29:09.000Z</time>
      </trkpt>
      <trkpt lat="44.13374" lon="3.22695">
        <ele>848.9</ele>
        <time>2000-01-01T09:29:19.000Z</time>
      </trkpt>
      <trkpt lat="44.13382" lon="3.22698">
        <ele>850.3</ele>
        <time>2000-01-01T09:29:29.000Z</time>
      </trkpt>
      <trkpt lat="44.13385" lon="3.22698">
        <ele>850.7</ele>
        <time>2000-01-01T09:29:39.000Z</time>
      </trkpt>
      <trkpt lat="44.13405" lon="3.22684">
        <ele>848</ele>
        <time>2000-01-01T09:29:49.000Z</time>
      </trkpt>
      <trkpt lat="44.13411" lon="3.2268">
        <ele>851.2</ele>
        <time>2000-01-01T09:29:59.000Z</time>
      </trkpt>
      <trkpt lat="44.13415" lon="3.22678">
        <ele>851.6</ele>
        <time>2000-01-01T09:30:09.000Z</time>
      </trkpt>
      <trkpt lat="44.1342" lon="3.22677">
        <ele>851.6</ele>
        <time>2000-01-01T09:30:19.000Z</time>
      </trkpt>
      <trkpt lat="44.13426" lon="3.22678">
        <ele>850</ele>
        <time>2000-01-01T09:30:29.000Z</time>
      </trkpt>
      <trkpt lat="44.13431" lon="3.22679">
        <ele>851.5</ele>
        <time>2000-01-01T09:30:39.000Z</time>
      </trkpt>
      <trkpt lat="44.13435" lon="3.22681">
        <ele>851.8</ele>
        <time>2000-01-01T09:30:49.000Z</time>
      </trkpt>
      <trkpt lat="44.13441" lon="3.22684">
        <ele>852.4</ele>
        <time>2000-01-01T09:30:59.000Z</time>
      </trkpt>
      <trkpt lat="44.13446" lon="3.22687">
        <ele>851</ele>
        <time>2000-01-01T09:31:09.000Z</time>
      </trkpt>
      <trkpt lat="44.13449" lon="3.22689">
        <ele>853.7</ele>
        <time>2000-01-01T09:31:19.000Z</time>
      </trkpt>
      <trkpt lat="44.13453" lon="3.2269">
        <ele>854</ele>
        <time>2000-01-01T09:31:29.000Z</time>
      </trkpt>
      <trkpt lat="44.13458" lon="3.22692">
        <ele>854.5</ele>
        <time>2000-01-01T09:31:39.000Z</time>
      </trkpt>
      <trkpt lat="44.13466" lon="3.22695">
        <ele>855</ele>
        <time>2000-01-01T09:31:49.000Z</time>
      </trkpt>
      <trkpt lat="44.13471" lon="3.22697">
        <ele>855</ele>
        <time>2000-01-01T09:31:59.000Z</time>
      </trkpt>
      <trkpt lat="44.13474" lon="3.227">
        <ele>854.9</ele>
        <time>2000-01-01T09:32:09.000Z</time>
      </trkpt>
      <trkpt lat="44.13479" lon="3.2271">
        <ele>854.9</ele>
        <time>2000-01-01T09:32:19.000Z</time>
      </trkpt>
      <trkpt lat="44.13482" lon="3.22719">
        <ele>855</ele>
        <time>2000-01-01T09:32:29.000Z</time>
      </trkpt>
      <trkpt lat="44.1348" lon="3.22726">
        <ele>855</ele>
        <time>2000-01-01T09:32:39.000Z</time>
      </trkpt>
      <trkpt lat="44.13479" lon="3.22732">
        <ele>855</ele>
        <time>2000-01-01T09:32:49.000Z</time>
      </trkpt>
      <trkpt lat="44.13479" lon="3.22738">
        <ele>855</ele>
        <time>2000-01-01T09:32:59.000Z</time>
      </trkpt>
      <trkpt lat="44.1348" lon="3.22745">
        <ele>855</ele>
        <time>2000-01-01T09:33:09.000Z</time>
      </trkpt>
      <trkpt lat="44.13481" lon="3.22751">
        <ele>855</ele>
        <time>2000-01-01T09:33:19.000Z</time>
      </trkpt>
      <trkpt lat="44.13482" lon="3.22755">
        <ele>854.8</ele>
        <time>2000-01-01T09:33:29.000Z</time>
      </trkpt>
      <trkpt lat="44.13485" lon="3.22762">
        <ele>854.4</ele>
        <time>2000-01-01T09:33:39.000Z</time>
      </trkpt>
      <trkpt lat="44.13486" lon="3.22765">
        <ele>854.2</ele>
        <time>2000-01-01T09:33:49.000Z</time>
      </trkpt>
      <trkpt lat="44.1349" lon="3.22768">
        <ele>855</ele>
        <time>2000-01-01T09:33:59.000Z</time>
      </trkpt>
      <trkpt lat="44.13495" lon="3.22771">
        <ele>853.1</ele>
        <time>2000-01-01T09:34:09.000Z</time>
      </trkpt>
      <trkpt lat="44.13501" lon="3.22774">
        <ele>852.2</ele>
        <time>2000-01-01T09:34:19.000Z</time>
      </trkpt>
      <trkpt lat="44.13503" lon="3.22775">
        <ele>851.6</ele>
        <time>2000-01-01T09:34:29.000Z</time>
      </trkpt>
      <trkpt lat="44.13506" lon="3.22774">
        <ele>851.1</ele>
        <time>2000-01-01T09:34:39.000Z</time>
      </trkpt>
      <trkpt lat="44.13508" lon="3.22773">
        <ele>853</ele>
        <time>2000-01-01T09:34:49.000Z</time>
      </trkpt>
      <trkpt lat="44.13512" lon="3.22772">
        <ele>849.9</ele>
        <time>2000-01-01T09:34:59.000Z</time>
      </trkpt>
      <trkpt lat="44.13518" lon="3.2277">
        <ele>848.8</ele>
        <time>2000-01-01T09:35:09.000Z</time>
      </trkpt>
      <trkpt lat="44.13526" lon="3.2278">
        <ele>848</ele>
        <time>2000-01-01T09:35:19.000Z</time>
      </trkpt>
      <trkpt lat="44.13536" lon="3.22794">
        <ele>843.9</ele>
        <time>2000-01-01T09:35:29.000Z</time>
      </trkpt>
      <trkpt lat="44.13547" lon="3.22797">
        <ele>846</ele>
        <time>2000-01-01T09:35:39.000Z</time>
      </trkpt>
      <trkpt lat="44.13547" lon="3.22805">
        <ele>843.3</ele>
        <time>2000-01-01T09:35:49.000Z</time>
      </trkpt>
      <trkpt lat="44.13548" lon="3.22816">
        <ele>843.4</ele>
        <time>2000-01-01T09:35:59.000Z</time>
      </trkpt>
      <trkpt lat="44.13548" lon="3.22827">
        <ele>846</ele>
        <time>2000-01-01T09:36:09.000Z</time>
      </trkpt>
      <trkpt lat="44.13549" lon="3.22835">
        <ele>843.9</ele>
        <time>2000-01-01T09:36:19.000Z</time>
      </trkpt>
      <trkpt lat="44.13551" lon="3.22839">
        <ele>844.2</ele>
        <time>2000-01-01T09:36:29.000Z</time>
      </trkpt>
      <trkpt lat="44.13552" lon="3.22842">
        <ele>844.5</ele>
        <time>2000-01-01T09:36:39.000Z</time>
      </trkpt>
      <trkpt lat="44.13556" lon="3.22848">
        <ele>845.1</ele>
        <time>2000-01-01T09:36:49.000Z</time>
      </trkpt>
      <trkpt lat="44.13562" lon="3.22862">
        <ele>846</ele>
        <time>2000-01-01T09:36:59.000Z</time>
      </trkpt>
      <trkpt lat="44.13563" lon="3.22871">
        <ele>847.1</ele>
        <time>2000-01-01T09:37:09.000Z</time>
      </trkpt>
      <trkpt lat="44.13564" lon="3.22877">
        <ele>847.2</ele>
        <time>2000-01-01T09:37:19.000Z</time>
      </trkpt>
      <trkpt lat="44.13566" lon="3.22885">
        <ele>847.2</ele>
        <time>2000-01-01T09:37:29.000Z</time>
      </trkpt>
      <trkpt lat="44.13567" lon="3.22895">
        <ele>846</ele>
        <time>2000-01-01T09:37:39.000Z</time>
      </trkpt>
      <trkpt lat="44.13565" lon="3.22905">
        <ele>844.5</ele>
        <time>2000-01-01T09:37:49.000Z</time>
      </trkpt>
      <trkpt lat="44.13562" lon="3.22913">
        <ele>843.3</ele>
        <time>2000-01-01T09:37:59.000Z</time>
      </trkpt>
      <trkpt lat="44.13557" lon="3.2293">
        <ele>840</ele>
        <time>2000-01-01T09:38:09.000Z</time>
      </trkpt>
      <trkpt lat="44.13543" lon="3.22943">
        <ele>840.2</ele>
        <time>2000-01-01T09:38:19.000Z</time>
      </trkpt>
      <trkpt lat="44.13543" lon="3.22953">
        <ele>838</ele>
        <time>2000-01-01T09:38:29.000Z</time>
      </trkpt>
      <trkpt lat="44.13544" lon="3.22964">
        <ele>840.1</ele>
        <time>2000-01-01T09:38:39.000Z</time>
      </trkpt>
      <trkpt lat="44.13545" lon="3.22976">
        <ele>840</ele>
        <time>2000-01-01T09:38:49.000Z</time>
      </trkpt>
      <trkpt lat="44.13547" lon="3.22988">
        <ele>838</ele>
        <time>2000-01-01T09:38:59.000Z</time>
      </trkpt>
      <trkpt lat="44.13547" lon="3.23004">
        <ele>838.1</ele>
        <time>2000-01-01T09:39:09.000Z</time>
      </trkpt>
      <trkpt lat="44.13547" lon="3.23005">
        <ele>838.1</ele>
        <time>2000-01-01T09:39:19.000Z</time>
      </trkpt>
      <trkpt lat="44.13547" lon="3.23009">
        <ele>838</ele>
        <time>2000-01-01T09:39:29.000Z</time>
      </trkpt>
      <trkpt lat="44.13549" lon="3.23011">
        <ele>838.1</ele>
        <time>2000-01-01T09:39:39.000Z</time>
      </trkpt>
      <trkpt lat="44.13554" lon="3.23015">
        <ele>838</ele>
        <time>2000-01-01T09:39:49.000Z</time>
      </trkpt>
      <trkpt lat="44.13562" lon="3.23016">
        <ele>837.4</ele>
        <time>2000-01-01T09:39:59.000Z</time>
      </trkpt>
      <trkpt lat="44.13566" lon="3.23016">
        <ele>836.9</ele>
        <time>2000-01-01T09:40:09.000Z</time>
      </trkpt>
      <trkpt lat="44.13569" lon="3.23016">
        <ele>836.5</ele>
        <time>2000-01-01T09:40:19.000Z</time>
      </trkpt>
      <trkpt lat="44.1357" lon="3.23014">
        <ele>836.7</ele>
        <time>2000-01-01T09:40:29.000Z</time>
      </trkpt>
      <trkpt lat="44.13573" lon="3.2301">
        <ele>836</ele>
        <time>2000-01-01T09:40:39.000Z</time>
      </trkpt>
      <trkpt lat="44.13579" lon="3.23002">
        <ele>837.2</ele>
        <time>2000-01-01T09:40:49.000Z</time>
      </trkpt>
      <trkpt lat="44.13585" lon="3.22991">
        <ele>836.9</ele>
        <time>2000-01-01T09:40:59.000Z</time>
      </trkpt>
      <trkpt lat="44.1359" lon="3.22978">
        <ele>834</ele>
        <time>2000-01-01T09:41:09.000Z</time>
      </trkpt>
      <trkpt lat="44.13597" lon="3.22964">
        <ele>834</ele>
        <time>2000-01-01T09:41:19.000Z</time>
      </trkpt>
      <trkpt lat="44.136" lon="3.22957">
        <ele>833.4</ele>
        <time>2000-01-01T09:41:29.000Z</time>
      </trkpt>
      <trkpt lat="44.13604" lon="3.22949">
        <ele>833</ele>
        <time>2000-01-01T09:41:39.000Z</time>
      </trkpt>
      <trkpt lat="44.13606" lon="3.22945">
        <ele>831.8</ele>
        <time>2000-01-01T09:41:49.000Z</time>
      </trkpt>
      <trkpt lat="44.13609" lon="3.22941">
        <ele>831.1</ele>
        <time>2000-01-01T09:41:59.000Z</time>
      </trkpt>
      <trkpt lat="44.13611" lon="3.22941">
        <ele>830.4</ele>
        <time>2000-01-01T09:42:09.000Z</time>
      </trkpt>
      <trkpt lat="44.13614" lon="3.2294">
        <ele>830.4</ele>
        <time>2000-01-01T09:42:19.000Z</time>
      </trkpt>
      <trkpt lat="44.13624" lon="3.22938">
        <ele>830</ele>
        <time>2000-01-01T09:42:29.000Z</time>
      </trkpt>
      <trkpt lat="44.13631" lon="3.22932">
        <ele>830.3</ele>
        <time>2000-01-01T09:42:39.000Z</time>
      </trkpt>
      <trkpt lat="44.13633" lon="3.22929">
        <ele>830.4</ele>
        <time>2000-01-01T09:42:49.000Z</time>
      </trkpt>
      <trkpt lat="44.13635" lon="3.2293">
        <ele>830.3</ele>
        <time>2000-01-01T09:42:59.000Z</time>
      </trkpt>
      <trkpt lat="44.13657" lon="3.22935">
        <ele>829</ele>
        <time>2000-01-01T09:43:09.000Z</time>
      </trkpt>
      <trkpt lat="44.13667" lon="3.22937">
        <ele>829</ele>
        <time>2000-01-01T09:43:19.000Z</time>
      </trkpt>
      <trkpt lat="44.13684" lon="3.22926">
        <ele>828</ele>
        <time>2000-01-01T09:43:29.000Z</time>
      </trkpt>
      <trkpt lat="44.13691" lon="3.22924">
        <ele>828.6</ele>
        <time>2000-01-01T09:43:39.000Z</time>
      </trkpt>
      <trkpt lat="44.13698" lon="3.22919">
        <ele>828.3</ele>
        <time>2000-01-01T09:43:49.000Z</time>
      </trkpt>
      <trkpt lat="44.13703" lon="3.22912">
        <ele>826</ele>
        <time>2000-01-01T09:43:59.000Z</time>
      </trkpt>
      <trkpt lat="44.13711" lon="3.2291">
        <ele>827.8</ele>
        <time>2000-01-01T09:44:09.000Z</time>
      </trkpt>
      <trkpt lat="44.1372" lon="3.22907">
        <ele>827.6</ele>
        <time>2000-01-01T09:44:19.000Z</time>
      </trkpt>
      <trkpt lat="44.13729" lon="3.22903">
        <ele>826</ele>
        <time>2000-01-01T09:44:29.000Z</time>
      </trkpt>
      <trkpt lat="44.13732" lon="3.22901">
        <ele>828</ele>
        <time>2000-01-01T09:44:39.000Z</time>
      </trkpt>
      <trkpt lat="44.13737" lon="3.22896">
        <ele>828</ele>
        <time>2000-01-01T09:44:49.000Z</time>
      </trkpt>
      <trkpt lat="44.13743" lon="3.2289">
        <ele>828.1</ele>
        <time>2000-01-01T09:44:59.000Z</time>
      </trkpt>
      <trkpt lat="44.13746" lon="3.2288">
        <ele>826</ele>
        <time>2000-01-01T09:45:09.000Z</time>
      </trkpt>
      <trkpt lat="44.13749" lon="3.2287">
        <ele>829.4</ele>
        <time>2000-01-01T09:45:19.000Z</time>
      </trkpt>
      <trkpt lat="44.13746" lon="3.22848">
        <ele>821</ele>
        <time>2000-01-01T09:45:29.000Z</time>
      </trkpt>
      <trkpt lat="44.13741" lon="3.22844">
        <ele>822.5</ele>
        <time>2000-01-01T09:45:39.000Z</time>
      </trkpt>
      <trkpt lat="44.13736" lon="3.22839">
        <ele>820.3</ele>
        <time>2000-01-01T09:45:49.000Z</time>
      </trkpt>
      <trkpt lat="44.13733" lon="3.22835">
        <ele>818.9</ele>
        <time>2000-01-01T09:45:59.000Z</time>
      </trkpt>
      <trkpt lat="44.13728" lon="3.22835">
        <ele>816</ele>
        <time>2000-01-01T09:46:09.000Z</time>
      </trkpt>
      <trkpt lat="44.13724" lon="3.22834">
        <ele>817.4</ele>
        <time>2000-01-01T09:46:19.000Z</time>
      </trkpt>
      <trkpt lat="44.13719" lon="3.22834">
        <ele>817.6</ele>
        <time>2000-01-01T09:46:29.000Z</time>
      </trkpt>
      <trkpt lat="44.13711" lon="3.22828">
        <ele>817.5</ele>
        <time>2000-01-01T09:46:39.000Z</time>
      </trkpt>
      <trkpt lat="44.1371" lon="3.22823">
        <ele>814</ele>
        <time>2000-01-01T09:46:49.000Z</time>
      </trkpt>
      <trkpt lat="44.13705" lon="3.22809">
        <ele>814</ele>
        <time>2000-01-01T09:46:59.000Z</time>
      </trkpt>
      <trkpt lat="44.13702" lon="3.22803">
        <ele>813</ele>
        <time>2000-01-01T09:47:09.000Z</time>
      </trkpt>
      <trkpt lat="44.13705" lon="3.22791">
        <ele>810</ele>
        <time>2000-01-01T09:47:19.000Z</time>
      </trkpt>
      <trkpt lat="44.13716" lon="3.2278">
        <ele>806.6</ele>
        <time>2000-01-01T09:47:29.000Z</time>
      </trkpt>
      <trkpt lat="44.13729" lon="3.22768">
        <ele>800</ele>
        <time>2000-01-01T09:47:39.000Z</time>
      </trkpt>
      <trkpt lat="44.13737" lon="3.22762">
        <ele>802.3</ele>
        <time>2000-01-01T09:47:49.000Z</time>
      </trkpt>
      <trkpt lat="44.13741" lon="3.22751">
        <ele>799.6</ele>
        <time>2000-01-01T09:47:59.000Z</time>
      </trkpt>
      <trkpt lat="44.13747" lon="3.22736">
        <ele>792</ele>
        <time>2000-01-01T09:48:09.000Z</time>
      </trkpt>
      <trkpt lat="44.13755" lon="3.22719">
        <ele>790.6</ele>
        <time>2000-01-01T09:48:19.000Z</time>
      </trkpt>
      <trkpt lat="44.13761" lon="3.22704">
        <ele>786</ele>
        <time>2000-01-01T09:48:29.000Z</time>
      </trkpt>
      <trkpt lat="44.13773" lon="3.22681">
        <ele>783</ele>
        <time>2000-01-01T09:48:39.000Z</time>
      </trkpt>
      <trkpt lat="44.13786" lon="3.22661">
        <ele>783.9</ele>
        <time>2000-01-01T09:48:49.000Z</time>
      </trkpt>
      <trkpt lat="44.138" lon="3.22648">
        <ele>782</ele>
        <time>2000-01-01T09:48:59.000Z</time>
      </trkpt>
      <trkpt lat="44.13811" lon="3.22639">
        <ele>785.4</ele>
        <time>2000-01-01T09:49:09.000Z</time>
      </trkpt>
      <trkpt lat="44.13827" lon="3.22628">
        <ele>781</ele>
        <time>2000-01-01T09:49:19.000Z</time>
      </trkpt>
      <trkpt lat="44.13843" lon="3.22616">
        <ele>786</ele>
        <time>2000-01-01T09:49:29.000Z</time>
      </trkpt>
      <trkpt lat="44.1386" lon="3.22597">
        <ele>779</ele>
        <time>2000-01-01T09:49:39.000Z</time>
      </trkpt>
      <trkpt lat="44.13876" lon="3.22568">
        <ele>776</ele>
        <time>2000-01-01T09:49:49.000Z</time>
      </trkpt>
      <trkpt lat="44.13887" lon="3.22548">
        <ele>777.2</ele>
        <time>2000-01-01T09:49:59.000Z</time>
      </trkpt>
      <trkpt lat="44.13905" lon="3.22518">
        <ele>770</ele>
        <time>2000-01-01T09:50:09.000Z</time>
      </trkpt>
      <trkpt lat="44.13889" lon="3.22524">
        <ele>770.5</ele>
        <time>2000-01-01T09:50:19.000Z</time>
      </trkpt>
      <trkpt lat="44.13877" lon="3.22531">
        <ele>765</ele>
        <time>2000-01-01T09:50:29.000Z</time>
      </trkpt>
      <trkpt lat="44.13862" lon="3.22539">
        <ele>766.3</ele>
        <time>2000-01-01T09:50:39.000Z</time>
      </trkpt>
      <trkpt lat="44.13844" lon="3.22548">
        <ele>759</ele>
        <time>2000-01-01T09:50:49.000Z</time>
      </trkpt>
      <trkpt lat="44.13813" lon="3.22567">
        <ele>756</ele>
        <time>2000-01-01T09:50:59.000Z</time>
      </trkpt>
      <trkpt lat="44.13793" lon="3.22572">
        <ele>756</ele>
        <time>2000-01-01T09:51:09.000Z</time>
      </trkpt>
      <trkpt lat="44.13789" lon="3.22572">
        <ele>760.8</ele>
        <time>2000-01-01T09:51:19.000Z</time>
      </trkpt>
      <trkpt lat="44.13808" lon="3.22546">
        <ele>749</ele>
        <time>2000-01-01T09:51:29.000Z</time>
      </trkpt>
      <trkpt lat="44.1382" lon="3.22524">
        <ele>744</ele>
        <time>2000-01-01T09:51:39.000Z</time>
      </trkpt>
      <trkpt lat="44.13832" lon="3.22501">
        <ele>739</ele>
        <time>2000-01-01T09:51:49.000Z</time>
      </trkpt>
      <trkpt lat="44.13847" lon="3.22473">
        <ele>734</ele>
        <time>2000-01-01T09:51:59.000Z</time>
      </trkpt>
      <trkpt lat="44.13858" lon="3.22452">
        <ele>735.7</ele>
        <time>2000-01-01T09:52:09.000Z</time>
      </trkpt>
      <trkpt lat="44.13876" lon="3.22421">
        <ele>728</ele>
        <time>2000-01-01T09:52:19.000Z</time>
      </trkpt>
      <trkpt lat="44.13859" lon="3.22424">
        <ele>727.2</ele>
        <time>2000-01-01T09:52:29.000Z</time>
      </trkpt>
      <trkpt lat="44.13839" lon="3.22416">
        <ele>725</ele>
        <time>2000-01-01T09:52:39.000Z</time>
      </trkpt>
      <trkpt lat="44.13844" lon="3.22395">
        <ele>721.4</ele>
        <time>2000-01-01T09:52:49.000Z</time>
      </trkpt>
      <trkpt lat="44.13852" lon="3.22381">
        <ele>721</ele>
        <time>2000-01-01T09:52:59.000Z</time>
      </trkpt>
      <trkpt lat="44.13857" lon="3.22365">
        <ele>712.8</ele>
        <time>2000-01-01T09:53:09.000Z</time>
      </trkpt>
      <trkpt lat="44.13859" lon="3.22352">
        <ele>717</ele>
        <time>2000-01-01T09:53:19.000Z</time>
      </trkpt>
      <trkpt lat="44.13868" lon="3.22337">
        <ele>708.7</ele>
        <time>2000-01-01T09:53:29.000Z</time>
      </trkpt>
      <trkpt lat="44.13885" lon="3.2233">
        <ele>702</ele>
        <time>2000-01-01T09:53:39.000Z</time>
      </trkpt>
      <trkpt lat="44.13892" lon="3.22322">
        <ele>700.6</ele>
        <time>2000-01-01T09:53:49.000Z</time>
      </trkpt>
      <trkpt lat="44.13898" lon="3.22316">
        <ele>699.8</ele>
        <time>2000-01-01T09:53:59.000Z</time>
      </trkpt>
      <trkpt lat="44.13908" lon="3.22308">
        <ele>694</ele>
        <time>2000-01-01T09:54:09.000Z</time>
      </trkpt>
      <trkpt lat="44.13914" lon="3.22301">
        <ele>694.8</ele>
        <time>2000-01-01T09:54:19.000Z</time>
      </trkpt>
      <trkpt lat="44.13927" lon="3.22287">
        <ele>689</ele>
        <time>2000-01-01T09:54:29.000Z</time>
      </trkpt>
      <trkpt lat="44.1393" lon="3.22274">
        <ele>688.7</ele>
        <time>2000-01-01T09:54:39.000Z</time>
      </trkpt>
      <trkpt lat="44.13935" lon="3.22266">
        <ele>686.9</ele>
        <time>2000-01-01T09:54:49.000Z</time>
      </trkpt>
      <trkpt lat="44.13945" lon="3.22254">
        <ele>681</ele>
        <time>2000-01-01T09:54:59.000Z</time>
      </trkpt>
      <trkpt lat="44.13945" lon="3.22247">
        <ele>680.6</ele>
        <time>2000-01-01T09:55:09.000Z</time>
      </trkpt>
      <trkpt lat="44.13941" lon="3.22235">
        <ele>679.7</ele>
        <time>2000-01-01T09:55:19.000Z</time>
      </trkpt>
      <trkpt lat="44.1394" lon="3.22227">
        <ele>681</ele>
        <time>2000-01-01T09:55:29.000Z</time>
      </trkpt>
      <trkpt lat="44.13939" lon="3.22215">
        <ele>677.1</ele>
        <time>2000-01-01T09:55:39.000Z</time>
      </trkpt>
      <trkpt lat="44.13932" lon="3.2219">
        <ele>676</ele>
        <time>2000-01-01T09:55:49.000Z</time>
      </trkpt>
      <trkpt lat="44.13926" lon="3.22168">
        <ele>674.2</ele>
        <time>2000-01-01T09:55:59.000Z</time>
      </trkpt>
      <trkpt lat="44.13919" lon="3.22144">
        <ele>674</ele>
        <time>2000-01-01T09:56:09.000Z</time>
      </trkpt>
      <trkpt lat="44.13913" lon="3.22125">
        <ele>669</ele>
        <time>2000-01-01T09:56:19.000Z</time>
      </trkpt>
      <trkpt lat="44.13907" lon="3.22103">
        <ele>666</ele>
        <time>2000-01-01T09:56:29.000Z</time>
      </trkpt>
      <trkpt lat="44.13897" lon="3.22086">
        <ele>664.8</ele>
        <time>2000-01-01T09:56:39.000Z</time>
      </trkpt>
      <trkpt lat="44.13894" lon="3.22063">
        <ele>661</ele>
        <time>2000-01-01T09:56:49.000Z</time>
      </trkpt>
      <trkpt lat="44.13886" lon="3.22034">
        <ele>655</ele>
        <time>2000-01-01T09:56:59.000Z</time>
      </trkpt>
      <trkpt lat="44.13879" lon="3.22013">
        <ele>649.2</ele>
        <time>2000-01-01T09:57:09.000Z</time>
      </trkpt>
      <trkpt lat="44.1387" lon="3.22002">
        <ele>647</ele>
        <time>2000-01-01T09:57:19.000Z</time>
      </trkpt>
      <trkpt lat="44.1386" lon="3.2199">
        <ele>646.1</ele>
        <time>2000-01-01T09:57:29.000Z</time>
      </trkpt>
      <trkpt lat="44.13848" lon="3.21984">
        <ele>644</ele>
        <time>2000-01-01T09:57:39.000Z</time>
      </trkpt>
      <trkpt lat="44.13842" lon="3.21969">
        <ele>640.6</ele>
        <time>2000-01-01T09:57:49.000Z</time>
      </trkpt>
      <trkpt lat="44.13834" lon="3.21966">
        <ele>639</ele>
        <time>2000-01-01T09:57:59.000Z</time>
      </trkpt>
      <trkpt lat="44.13826" lon="3.21955">
        <ele>636.8</ele>
        <time>2000-01-01T09:58:09.000Z</time>
      </trkpt>
      <trkpt lat="44.13814" lon="3.2195">
        <ele>631</ele>
        <time>2000-01-01T09:58:19.000Z</time>
      </trkpt>
      <trkpt lat="44.13806" lon="3.21949">
        <ele>633.3</ele>
        <time>2000-01-01T09:58:29.000Z</time>
      </trkpt>
      <trkpt lat="44.138" lon="3.21949">
        <ele>631.1</ele>
        <time>2000-01-01T09:58:39.000Z</time>
      </trkpt>
      <trkpt lat="44.13789" lon="3.21951">
        <ele>624</ele>
        <time>2000-01-01T09:58:49.000Z</time>
      </trkpt>
      <trkpt lat="44.13772" lon="3.21958">
        <ele>623.7</ele>
        <time>2000-01-01T09:58:59.000Z</time>
      </trkpt>
      <trkpt lat="44.13759" lon="3.21957">
        <ele>614</ele>
        <time>2000-01-01T09:59:09.000Z</time>
      </trkpt>
      <trkpt lat="44.13764" lon="3.21947">
        <ele>617.9</ele>
        <time>2000-01-01T09:59:19.000Z</time>
      </trkpt>
      <trkpt lat="44.13767" lon="3.2194">
        <ele>616.6</ele>
        <time>2000-01-01T09:59:29.000Z</time>
      </trkpt>
      <trkpt lat="44.13756" lon="3.21939">
        <ele>608</ele>
        <time>2000-01-01T09:59:39.000Z</time>
      </trkpt>
      <trkpt lat="44.13756" lon="3.21934">
        <ele>611.4</ele>
        <time>2000-01-01T09:59:49.000Z</time>
      </trkpt>
      <trkpt lat="44.13767" lon="3.21917">
        <ele>604</ele>
        <time>2000-01-01T09:59:59.000Z</time>
      </trkpt>
      <trkpt lat="44.13763" lon="3.21913">
        <ele>607.2</ele>
        <time>2000-01-01T10:00:09.000Z</time>
      </trkpt>
      <trkpt lat="44.13749" lon="3.2191">
        <ele>600</ele>
        <time>2000-01-01T10:00:19.000Z</time>
      </trkpt>
      <trkpt lat="44.13742" lon="3.21902">
        <ele>598.8</ele>
        <time>2000-01-01T10:00:29.000Z</time>
      </trkpt>
      <trkpt lat="44.13746" lon="3.21891">
        <ele>596</ele>
        <time>2000-01-01T10:00:39.000Z</time>
      </trkpt>
      <trkpt lat="44.1375" lon="3.21886">
        <ele>591</ele>
        <time>2000-01-01T10:00:49.000Z</time>
      </trkpt>
      <trkpt lat="44.13762" lon="3.21867">
        <ele>592.3</ele>
        <time>2000-01-01T10:00:59.000Z</time>
      </trkpt>
      <trkpt lat="44.1377" lon="3.21853">
        <ele>584</ele>
        <time>2000-01-01T10:01:09.000Z</time>
      </trkpt>
      <trkpt lat="44.13776" lon="3.2184">
        <ele>587.7</ele>
        <time>2000-01-01T10:01:19.000Z</time>
      </trkpt>
      <trkpt lat="44.1378" lon="3.21829">
        <ele>577</ele>
        <time>2000-01-01T10:01:29.000Z</time>
      </trkpt>
      <trkpt lat="44.13784" lon="3.21818">
        <ele>584</ele>
        <time>2000-01-01T10:01:39.000Z</time>
      </trkpt>
      <trkpt lat="44.1378" lon="3.21815">
        <ele>582.5</ele>
        <time>2000-01-01T10:01:49.000Z</time>
      </trkpt>
      <trkpt lat="44.13764" lon="3.2183">
        <ele>573</ele>
        <time>2000-01-01T10:01:59.000Z</time>
      </trkpt>
      <trkpt lat="44.13731" lon="3.21848">
        <ele>570</ele>
        <time>2000-01-01T10:02:09.000Z</time>
      </trkpt>
      <trkpt lat="44.13722" lon="3.21852">
        <ele>573.4</ele>
        <time>2000-01-01T10:02:19.000Z</time>
      </trkpt>
      <trkpt lat="44.13706" lon="3.2185">
        <ele>562</ele>
        <time>2000-01-01T10:02:29.000Z</time>
      </trkpt>
      <trkpt lat="44.13688" lon="3.21845">
        <ele>565.1</ele>
        <time>2000-01-01T10:02:39.000Z</time>
      </trkpt>
      <trkpt lat="44.13669" lon="3.21831">
        <ele>558</ele>
        <time>2000-01-01T10:02:49.000Z</time>
      </trkpt>
      <trkpt lat="44.13663" lon="3.21837">
        <ele>562.4</ele>
        <time>2000-01-01T10:02:59.000Z</time>
      </trkpt>
      <trkpt lat="44.13659" lon="3.21839">
        <ele>563</ele>
        <time>2000-01-01T10:03:09.000Z</time>
      </trkpt>
      <trkpt lat="44.13655" lon="3.21839">
        <ele>562.7</ele>
        <time>2000-01-01T10:03:19.000Z</time>
      </trkpt>
      <trkpt lat="44.13639" lon="3.21836">
        <ele>557</ele>
        <time>2000-01-01T10:03:29.000Z</time>
      </trkpt>
      <trkpt lat="44.13631" lon="3.21833">
        <ele>558.3</ele>
        <time>2000-01-01T10:03:39.000Z</time>
      </trkpt>
      <trkpt lat="44.13625" lon="3.21832">
        <ele>557.6</ele>
        <time>2000-01-01T10:03:49.000Z</time>
      </trkpt>
      <trkpt lat="44.13618" lon="3.21832">
        <ele>555</ele>
        <time>2000-01-01T10:03:59.000Z</time>
      </trkpt>
      <trkpt lat="44.13605" lon="3.21834">
        <ele>556.9</ele>
        <time>2000-01-01T10:04:09.000Z</time>
      </trkpt>
      <trkpt lat="44.13591" lon="3.21835">
        <ele>552</ele>
        <time>2000-01-01T10:04:19.000Z</time>
      </trkpt>
      <trkpt lat="44.13582" lon="3.21835">
        <ele>555.7</ele>
        <time>2000-01-01T10:04:29.000Z</time>
      </trkpt>
      <trkpt lat="44.13566" lon="3.21832">
        <ele>552</ele>
        <time>2000-01-01T10:04:39.000Z</time>
      </trkpt>
      <trkpt lat="44.1356" lon="3.21829">
        <ele>552.3</ele>
        <time>2000-01-01T10:04:49.000Z</time>
      </trkpt>
      <trkpt lat="44.13556" lon="3.21828">
        <ele>551.9</ele>
        <time>2000-01-01T10:04:59.000Z</time>
      </trkpt>
      <trkpt lat="44.13545" lon="3.21827">
        <ele>549</ele>
        <time>2000-01-01T10:05:09.000Z</time>
      </trkpt>
      <trkpt lat="44.13547" lon="3.21823">
        <ele>550.3</ele>
        <time>2000-01-01T10:05:19.000Z</time>
      </trkpt>
      <trkpt lat="44.13549" lon="3.21817">
        <ele>549.1</ele>
        <time>2000-01-01T10:05:29.000Z</time>
      </trkpt>
      <trkpt lat="44.13551" lon="3.21812">
        <ele>548.1</ele>
        <time>2000-01-01T10:05:39.000Z</time>
      </trkpt>
      <trkpt lat="44.13549" lon="3.21809">
        <ele>547.3</ele>
        <time>2000-01-01T10:05:49.000Z</time>
      </trkpt>
      <trkpt lat="44.13545" lon="3.21805">
        <ele>545</ele>
        <time>2000-01-01T10:05:59.000Z</time>
      </trkpt>
      <trkpt lat="44.1353" lon="3.21804">
        <ele>544.9</ele>
        <time>2000-01-01T10:06:09.000Z</time>
      </trkpt>
      <trkpt lat="44.13513" lon="3.21807">
        <ele>540</ele>
        <time>2000-01-01T10:06:19.000Z</time>
      </trkpt>
      <trkpt lat="44.13497" lon="3.21802">
        <ele>538</ele>
        <time>2000-01-01T10:06:29.000Z</time>
      </trkpt>
      <trkpt lat="44.13485" lon="3.21802">
        <ele>533</ele>
        <time>2000-01-01T10:06:39.000Z</time>
      </trkpt>
      <trkpt lat="44.13472" lon="3.21804">
        <ele>533.5</ele>
        <time>2000-01-01T10:06:49.000Z</time>
      </trkpt>
      <trkpt lat="44.13458" lon="3.21808">
        <ele>525</ele>
        <time>2000-01-01T10:06:59.000Z</time>
      </trkpt>
      <trkpt lat="44.13447" lon="3.21821">
        <ele>530.9</ele>
        <time>2000-01-01T10:07:09.000Z</time>
      </trkpt>
      <trkpt lat="44.13439" lon="3.21821">
        <ele>525</ele>
        <time>2000-01-01T10:07:19.000Z</time>
      </trkpt>
      <trkpt lat="44.13425" lon="3.21822">
        <ele>524.2</ele>
        <time>2000-01-01T10:07:29.000Z</time>
      </trkpt>
      <trkpt lat="44.13414" lon="3.21828">
        <ele>520</ele>
        <time>2000-01-01T10:07:39.000Z</time>
      </trkpt>
      <trkpt lat="44.13398" lon="3.21838">
        <ele>522.3</ele>
        <time>2000-01-01T10:07:49.000Z</time>
      </trkpt>
      <trkpt lat="44.13389" lon="3.21842">
        <ele>517</ele>
        <time>2000-01-01T10:07:59.000Z</time>
      </trkpt>
      <trkpt lat="44.13372" lon="3.21847">
        <ele>514.8</ele>
        <time>2000-01-01T10:08:09.000Z</time>
      </trkpt>
      <trkpt lat="44.13359" lon="3.21855">
        <ele>517</ele>
        <time>2000-01-01T10:08:19.000Z</time>
      </trkpt>
      <trkpt lat="44.13349" lon="3.21859">
        <ele>513.1</ele>
        <time>2000-01-01T10:08:29.000Z</time>
      </trkpt>
      <trkpt lat="44.13334" lon="3.21867">
        <ele>516</ele>
        <time>2000-01-01T10:08:39.000Z</time>
      </trkpt>
      <trkpt lat="44.13327" lon="3.21878">
        <ele>512.3</ele>
        <time>2000-01-01T10:08:49.000Z</time>
      </trkpt>
      <trkpt lat="44.13322" lon="3.21889">
        <ele>516</ele>
        <time>2000-01-01T10:08:59.000Z</time>
      </trkpt>
      <trkpt lat="44.13314" lon="3.219">
        <ele>510.5</ele>
        <time>2000-01-01T10:09:09.000Z</time>
      </trkpt>
      <trkpt lat="44.13307" lon="3.21912">
        <ele>507</ele>
        <time>2000-01-01T10:09:19.000Z</time>
      </trkpt>
      <trkpt lat="44.13296" lon="3.21923">
        <ele>503.7</ele>
        <time>2000-01-01T10:09:29.000Z</time>
      </trkpt>
      <trkpt lat="44.13287" lon="3.21933">
        <ele>500</ele>
        <time>2000-01-01T10:09:39.000Z</time>
      </trkpt>
      <trkpt lat="44.13276" lon="3.21932">
        <ele>501.8</ele>
        <time>2000-01-01T10:09:49.000Z</time>
      </trkpt>
      <trkpt lat="44.13272" lon="3.21931">
        <ele>501.4</ele>
        <time>2000-01-01T10:09:59.000Z</time>
      </trkpt>
      <trkpt lat="44.13263" lon="3.21928">
        <ele>494</ele>
        <time>2000-01-01T10:10:09.000Z</time>
      </trkpt>
      <trkpt lat="44.13251" lon="3.21929">
        <ele>498.7</ele>
        <time>2000-01-01T10:10:19.000Z</time>
      </trkpt>
      <trkpt lat="44.13237" lon="3.2193">
        <ele>491</ele>
        <time>2000-01-01T10:10:29.000Z</time>
      </trkpt>
      <trkpt lat="44.13223" lon="3.21932">
        <ele>496.8</ele>
        <time>2000-01-01T10:10:39.000Z</time>
      </trkpt>
      <trkpt lat="44.13213" lon="3.21934">
        <ele>489</ele>
        <time>2000-01-01T10:10:49.000Z</time>
      </trkpt>
      <trkpt lat="44.13204" lon="3.21935">
        <ele>494.5</ele>
        <time>2000-01-01T10:10:59.000Z</time>
      </trkpt>
      <trkpt lat="44.13197" lon="3.21937">
        <ele>493.1</ele>
        <time>2000-01-01T10:11:09.000Z</time>
      </trkpt>
      <trkpt lat="44.13188" lon="3.21942">
        <ele>486</ele>
        <time>2000-01-01T10:11:19.000Z</time>
      </trkpt>
      <trkpt lat="44.13178" lon="3.21946">
        <ele>491.6</ele>
        <time>2000-01-01T10:11:29.000Z</time>
      </trkpt>
      <trkpt lat="44.1317" lon="3.21954">
        <ele>485</ele>
        <time>2000-01-01T10:11:39.000Z</time>
      </trkpt>
      <trkpt lat="44.13161" lon="3.21963">
        <ele>488.8</ele>
        <time>2000-01-01T10:11:49.000Z</time>
      </trkpt>
      <trkpt lat="44.13156" lon="3.21971">
        <ele>487.6</ele>
        <time>2000-01-01T10:11:59.000Z</time>
      </trkpt>
      <trkpt lat="44.13149" lon="3.21984">
        <ele>485</ele>
        <time>2000-01-01T10:12:09.000Z</time>
      </trkpt>
      <trkpt lat="44.13147" lon="3.21995">
        <ele>485.9</ele>
        <time>2000-01-01T10:12:19.000Z</time>
      </trkpt>
      <trkpt lat="44.13142" lon="3.22001">
        <ele>483</ele>
        <time>2000-01-01T10:12:29.000Z</time>
      </trkpt>
      <trkpt lat="44.13137" lon="3.22005">
        <ele>483</ele>
        <time>2000-01-01T10:12:39.000Z</time>
      </trkpt>
      <trkpt lat="44.13127" lon="3.22008">
        <ele>483.2</ele>
        <time>2000-01-01T10:12:49.000Z</time>
      </trkpt>
      <trkpt lat="44.13116" lon="3.22009">
        <ele>482</ele>
        <time>2000-01-01T10:12:59.000Z</time>
      </trkpt>
      <trkpt lat="44.13104" lon="3.22013">
        <ele>481.2</ele>
        <time>2000-01-01T10:13:09.000Z</time>
      </trkpt>
      <trkpt lat="44.131" lon="3.22015">
        <ele>480.7</ele>
        <time>2000-01-01T10:13:19.000Z</time>
      </trkpt>
      <trkpt lat="44.13092" lon="3.22022">
        <ele>473</ele>
        <time>2000-01-01T10:13:29.000Z</time>
      </trkpt>
      <trkpt lat="44.13084" lon="3.22028">
        <ele>474.2</ele>
        <time>2000-01-01T10:13:39.000Z</time>
      </trkpt>
      <trkpt lat="44.13075" lon="3.22034">
        <ele>476.1</ele>
        <time>2000-01-01T10:13:49.000Z</time>
      </trkpt>
      <trkpt lat="44.13066" lon="3.22036">
        <ele>473</ele>
        <time>2000-01-01T10:13:59.000Z</time>
      </trkpt>
      <trkpt lat="44.13059" lon="3.22042">
        <ele>475.1</ele>
        <time>2000-01-01T10:14:09.000Z</time>
      </trkpt>
      <trkpt lat="44.13055" lon="3.22046">
        <ele>474.1</ele>
        <time>2000-01-01T10:14:19.000Z</time>
      </trkpt>
      <trkpt lat="44.1305" lon="3.22053">
        <ele>472</ele>
        <time>2000-01-01T10:14:29.000Z</time>
      </trkpt>
      <trkpt lat="44.13044" lon="3.22059">
        <ele>473</ele>
        <time>2000-01-01T10:14:39.000Z</time>
      </trkpt>
      <trkpt lat="44.13039" lon="3.22062">
        <ele>472.9</ele>
        <time>2000-01-01T10:14:49.000Z</time>
      </trkpt>
      <trkpt lat="44.13029" lon="3.22067">
        <ele>472</ele>
        <time>2000-01-01T10:14:59.000Z</time>
      </trkpt>
      <trkpt lat="44.13021" lon="3.22076">
        <ele>472.5</ele>
        <time>2000-01-01T10:15:09.000Z</time>
      </trkpt>
      <trkpt lat="44.13009" lon="3.22089">
        <ele>470</ele>
        <time>2000-01-01T10:15:19.000Z</time>
      </trkpt>
      <trkpt lat="44.13004" lon="3.22102">
        <ele>470.2</ele>
        <time>2000-01-01T10:15:29.000Z</time>
      </trkpt>
      <trkpt lat="44.12999" lon="3.22115">
        <ele>468</ele>
        <time>2000-01-01T10:15:39.000Z</time>
      </trkpt>
      <trkpt lat="44.12998" lon="3.22131">
        <ele>466.4</ele>
        <time>2000-01-01T10:15:49.000Z</time>
      </trkpt>
      <trkpt lat="44.12994" lon="3.22145">
        <ele>465</ele>
        <time>2000-01-01T10:15:59.000Z</time>
      </trkpt>
      <trkpt lat="44.12988" lon="3.22154">
        <ele>465.9</ele>
        <time>2000-01-01T10:16:09.000Z</time>
      </trkpt>
      <trkpt lat="44.12978" lon="3.22155">
        <ele>463</ele>
        <time>2000-01-01T10:16:19.000Z</time>
      </trkpt>
      <trkpt lat="44.12965" lon="3.22145">
        <ele>460</ele>
        <time>2000-01-01T10:16:29.000Z</time>
      </trkpt>
      <trkpt lat="44.12957" lon="3.22155">
        <ele>459.8</ele>
        <time>2000-01-01T10:16:39.000Z</time>
      </trkpt>
      <trkpt lat="44.12953" lon="3.22166">
        <ele>456</ele>
        <time>2000-01-01T10:16:49.000Z</time>
      </trkpt>
      <trkpt lat="44.12944" lon="3.22165">
        <ele>456.4</ele>
        <time>2000-01-01T10:16:59.000Z</time>
      </trkpt>
      <trkpt lat="44.12937" lon="3.22159">
        <ele>457.1</ele>
        <time>2000-01-01T10:17:09.000Z</time>
      </trkpt>
      <trkpt lat="44.12925" lon="3.22151">
        <ele>453</ele>
        <time>2000-01-01T10:17:19.000Z</time>
      </trkpt>
      <trkpt lat="44.12906" lon="3.22145">
        <ele>451</ele>
        <time>2000-01-01T10:17:29.000Z</time>
      </trkpt>
      <trkpt lat="44.12889" lon="3.2214">
        <ele>450.3</ele>
        <time>2000-01-01T10:17:39.000Z</time>
      </trkpt>
      <trkpt lat="44.12876" lon="3.22144">
        <ele>447</ele>
        <time>2000-01-01T10:17:49.000Z</time>
      </trkpt>
      <trkpt lat="44.12867" lon="3.22139">
        <ele>447.7</ele>
        <time>2000-01-01T10:17:59.000Z</time>
      </trkpt>
      <trkpt lat="44.12863" lon="3.22136">
        <ele>447.4</ele>
        <time>2000-01-01T10:18:09.000Z</time>
      </trkpt>
      <trkpt lat="44.12857" lon="3.22126">
        <ele>443</ele>
        <time>2000-01-01T10:18:19.000Z</time>
      </trkpt>
      <trkpt lat="44.12849" lon="3.22113">
        <ele>447.9</ele>
        <time>2000-01-01T10:18:29.000Z</time>
      </trkpt>
      <trkpt lat="44.12845" lon="3.22108">
        <ele>447.3</ele>
        <time>2000-01-01T10:18:39.000Z</time>
      </trkpt>
      <trkpt lat="44.12834" lon="3.22097">
        <ele>442</ele>
        <time>2000-01-01T10:18:49.000Z</time>
      </trkpt>
      <trkpt lat="44.1282" lon="3.22084">
        <ele>440.7</ele>
        <time>2000-01-01T10:18:59.000Z</time>
      </trkpt>
      <trkpt lat="44.12805" lon="3.22078">
        <ele>441</ele>
        <time>2000-01-01T10:19:09.000Z</time>
      </trkpt>
      <trkpt lat="44.12792" lon="3.22082">
        <ele>442.3</ele>
        <time>2000-01-01T10:19:19.000Z</time>
      </trkpt>
      <trkpt lat="44.12784" lon="3.22101">
        <ele>437</ele>
        <time>2000-01-01T10:19:29.000Z</time>
      </trkpt>
      <trkpt lat="44.12771" lon="3.22106">
        <ele>438.5</ele>
        <time>2000-01-01T10:19:39.000Z</time>
      </trkpt>
      <trkpt lat="44.12759" lon="3.22112">
        <ele>436</ele>
        <time>2000-01-01T10:19:49.000Z</time>
      </trkpt>
      <trkpt lat="44.12748" lon="3.22126">
        <ele>435.1</ele>
        <time>2000-01-01T10:19:59.000Z</time>
      </trkpt>
      <trkpt lat="44.12732" lon="3.22139">
        <ele>433</ele>
        <time>2000-01-01T10:20:09.000Z</time>
      </trkpt>
      <trkpt lat="44.12715" lon="3.22152">
        <ele>430</ele>
        <time>2000-01-01T10:20:19.000Z</time>
      </trkpt>
      <trkpt lat="44.12702" lon="3.22162">
        <ele>432.1</ele>
        <time>2000-01-01T10:20:29.000Z</time>
      </trkpt>
      <trkpt lat="44.12692" lon="3.22179">
        <ele>429</ele>
        <time>2000-01-01T10:20:39.000Z</time>
      </trkpt>
      <trkpt lat="44.12686" lon="3.22204">
        <ele>426.5</ele>
        <time>2000-01-01T10:20:49.000Z</time>
      </trkpt>
      <trkpt lat="44.12681" lon="3.22229">
        <ele>425</ele>
        <time>2000-01-01T10:20:59.000Z</time>
      </trkpt>
      <trkpt lat="44.12675" lon="3.22248">
        <ele>425</ele>
        <time>2000-01-01T10:21:09.000Z</time>
      </trkpt>
      <trkpt lat="44.12671" lon="3.22262">
        <ele>419</ele>
        <time>2000-01-01T10:21:19.000Z</time>
      </trkpt>
      <trkpt lat="44.12665" lon="3.22263">
        <ele>423.2</ele>
        <time>2000-01-01T10:21:29.000Z</time>
      </trkpt>
      <trkpt lat="44.12656" lon="3.22263">
        <ele>422.3</ele>
        <time>2000-01-01T10:21:39.000Z</time>
      </trkpt>
      <trkpt lat="44.12647" lon="3.22262">
        <ele>418</ele>
        <time>2000-01-01T10:21:49.000Z</time>
      </trkpt>
      <trkpt lat="44.12637" lon="3.2226">
        <ele>420.2</ele>
        <time>2000-01-01T10:21:59.000Z</time>
      </trkpt>
      <trkpt lat="44.12623" lon="3.22257">
        <ele>418</ele>
        <time>2000-01-01T10:22:09.000Z</time>
      </trkpt>
      <trkpt lat="44.12624" lon="3.22268">
        <ele>419.9</ele>
        <time>2000-01-01T10:22:19.000Z</time>
      </trkpt>
      <trkpt lat="44.12631" lon="3.22279">
        <ele>421</ele>
        <time>2000-01-01T10:22:29.000Z</time>
      </trkpt>
      <trkpt lat="44.12633" lon="3.22286">
        <ele>421</ele>
        <time>2000-01-01T10:22:39.000Z</time>
      </trkpt>
      <trkpt lat="44.12632" lon="3.22289">
        <ele>423.8</ele>
        <time>2000-01-01T10:22:49.000Z</time>
      </trkpt>
      <trkpt lat="44.12631" lon="3.22292">
        <ele>424.5</ele>
        <time>2000-01-01T10:22:59.000Z</time>
      </trkpt>
      <trkpt lat="44.12627" lon="3.22298">
        <ele>425.3</ele>
        <time>2000-01-01T10:23:09.000Z</time>
      </trkpt>
      <trkpt lat="44.12619" lon="3.22301">
        <ele>424.2</ele>
        <time>2000-01-01T10:23:19.000Z</time>
      </trkpt>
      <trkpt lat="44.12608" lon="3.22307">
        <ele>421</ele>
        <time>2000-01-01T10:23:29.000Z</time>
      </trkpt>
      <trkpt lat="44.12602" lon="3.22312">
        <ele>423.9</ele>
        <time>2000-01-01T10:23:39.000Z</time>
      </trkpt>
      <trkpt lat="44.12583" lon="3.22331">
        <ele>422</ele>
        <time>2000-01-01T10:23:49.000Z</time>
      </trkpt>
      <trkpt lat="44.12573" lon="3.22335">
        <ele>426.3</ele>
        <time>2000-01-01T10:23:59.000Z</time>
      </trkpt>
      <trkpt lat="44.12567" lon="3.22337">
        <ele>426.9</ele>
        <time>2000-01-01T10:24:09.000Z</time>
      </trkpt>
      <trkpt lat="44.12562" lon="3.22338">
        <ele>423</ele>
        <time>2000-01-01T10:24:19.000Z</time>
      </trkpt>
      <trkpt lat="44.12555" lon="3.2234">
        <ele>427.6</ele>
        <time>2000-01-01T10:24:29.000Z</time>
      </trkpt>
      <trkpt lat="44.1255" lon="3.22343">
        <ele>428.2</ele>
        <time>2000-01-01T10:24:39.000Z</time>
      </trkpt>
      <trkpt lat="44.12547" lon="3.22347">
        <ele>428.8</ele>
        <time>2000-01-01T10:24:49.000Z</time>
      </trkpt>
      <trkpt lat="44.12546" lon="3.22351">
        <ele>430</ele>
        <time>2000-01-01T10:24:59.000Z</time>
      </trkpt>
      <trkpt lat="44.1254" lon="3.22351">
        <ele>427.6</ele>
        <time>2000-01-01T10:25:09.000Z</time>
      </trkpt>
      <trkpt lat="44.12538" lon="3.22354">
        <ele>427.1</ele>
        <time>2000-01-01T10:25:19.000Z</time>
      </trkpt>
      <trkpt lat="44.12538" lon="3.22358">
        <ele>427.1</ele>
        <time>2000-01-01T10:25:29.000Z</time>
      </trkpt>
      <trkpt lat="44.12542" lon="3.2237">
        <ele>430</ele>
        <time>2000-01-01T10:25:39.000Z</time>
      </trkpt>
      <trkpt lat="44.12542" lon="3.22371">
        <ele>428.1</ele>
        <time>2000-01-01T10:25:49.000Z</time>
      </trkpt>
      <trkpt lat="44.12541" lon="3.22372">
        <ele>427.5</ele>
        <time>2000-01-01T10:25:59.000Z</time>
      </trkpt>
      <trkpt lat="44.1254" lon="3.22372">
        <ele>426.9</ele>
        <time>2000-01-01T10:26:09.000Z</time>
      </trkpt>
      <trkpt lat="44.1254" lon="3.22371">
        <ele>427</ele>
        <time>2000-01-01T10:26:19.000Z</time>
      </trkpt>
      <trkpt lat="44.12537" lon="3.22366">
        <ele>426.1</ele>
        <time>2000-01-01T10:26:29.000Z</time>
      </trkpt>
      <trkpt lat="44.12532" lon="3.22353">
        <ele>425.1</ele>
        <time>2000-01-01T10:26:39.000Z</time>
      </trkpt>
      <trkpt lat="44.12526" lon="3.22343">
        <ele>420</ele>
        <time>2000-01-01T10:26:49.000Z</time>
      </trkpt>
      <trkpt lat="44.12519" lon="3.22333">
        <ele>423.9</ele>
        <time>2000-01-01T10:26:59.000Z</time>
      </trkpt>
      <trkpt lat="44.12506" lon="3.22325">
        <ele>418</ele>
        <time>2000-01-01T10:27:09.000Z</time>
      </trkpt>
      <trkpt lat="44.12504" lon="3.22324">
        <ele>419.7</ele>
        <time>2000-01-01T10:27:19.000Z</time>
      </trkpt>
      <trkpt lat="44.12503" lon="3.22321">
        <ele>420.3</ele>
        <time>2000-01-01T10:27:29.000Z</time>
      </trkpt>
      <trkpt lat="44.12496" lon="3.22313">
        <ele>420.5</ele>
        <time>2000-01-01T10:27:39.000Z</time>
      </trkpt>
      <trkpt lat="44.12493" lon="3.22311">
        <ele>419.8</ele>
        <time>2000-01-01T10:27:49.000Z</time>
      </trkpt>
      <trkpt lat="44.12488" lon="3.22309">
        <ele>416</ele>
        <time>2000-01-01T10:27:59.000Z</time>
      </trkpt>
      <trkpt lat="44.12479" lon="3.22306">
        <ele>414.3</ele>
        <time>2000-01-01T10:28:09.000Z</time>
      </trkpt>
      <trkpt lat="44.12471" lon="3.22293">
        <ele>412</ele>
        <time>2000-01-01T10:28:19.000Z</time>
      </trkpt>
      <trkpt lat="44.12466" lon="3.22282">
        <ele>412.9</ele>
        <time>2000-01-01T10:28:29.000Z</time>
      </trkpt>
      <trkpt lat="44.1246" lon="3.22277">
        <ele>411.1</ele>
        <time>2000-01-01T10:28:39.000Z</time>
      </trkpt>
      <trkpt lat="44.12456" lon="3.22274">
        <ele>405</ele>
        <time>2000-01-01T10:28:49.000Z</time>
      </trkpt>
      <trkpt lat="44.12436" lon="3.22272">
        <ele>405</ele>
        <time>2000-01-01T10:28:59.000Z</time>
      </trkpt>
      <trkpt lat="44.12432" lon="3.2227">
        <ele>403.5</ele>
        <time>2000-01-01T10:29:09.000Z</time>
      </trkpt>
      <trkpt lat="44.12441" lon="3.22255">
        <ele>404.7</ele>
        <time>2000-01-01T10:29:19.000Z</time>
      </trkpt>
      <trkpt lat="44.12446" lon="3.22241">
        <ele>405</ele>
        <time>2000-01-01T10:29:29.000Z</time>
      </trkpt>
      <trkpt lat="44.12453" lon="3.22231">
        <ele>406.4</ele>
        <time>2000-01-01T10:29:39.000Z</time>
      </trkpt>
      <trkpt lat="44.12461" lon="3.22217">
        <ele>405</ele>
        <time>2000-01-01T10:29:49.000Z</time>
      </trkpt>
      <trkpt lat="44.12457" lon="3.22213">
        <ele>406.5</ele>
        <time>2000-01-01T10:29:59.000Z</time>
      </trkpt>
      <trkpt lat="44.12451" lon="3.22209">
        <ele>406</ele>
        <time>2000-01-01T10:30:09.000Z</time>
      </trkpt>
      <trkpt lat="44.12445" lon="3.2221">
        <ele>405.5</ele>
        <time>2000-01-01T10:30:19.000Z</time>
      </trkpt>
      <trkpt lat="44.12437" lon="3.22215">
        <ele>405</ele>
        <time>2000-01-01T10:30:29.000Z</time>
      </trkpt>
      <trkpt lat="44.1243" lon="3.22221">
        <ele>405.2</ele>
        <time>2000-01-01T10:30:39.000Z</time>
      </trkpt>
      <trkpt lat="44.1242" lon="3.22229">
        <ele>404</ele>
        <time>2000-01-01T10:30:49.000Z</time>
      </trkpt>
      <trkpt lat="44.12417" lon="3.22235">
        <ele>404.1</ele>
        <time>2000-01-01T10:30:59.000Z</time>
      </trkpt>
      <trkpt lat="44.12417" lon="3.22244">
        <ele>403.5</ele>
        <time>2000-01-01T10:31:09.000Z</time>
      </trkpt>
      <trkpt lat="44.12417" lon="3.2227">
        <ele>402</ele>
        <time>2000-01-01T10:31:19.000Z</time>
      </trkpt>
      <trkpt lat="44.12417" lon="3.22281">
        <ele>400.8</ele>
        <time>2000-01-01T10:31:29.000Z</time>
      </trkpt>
      <trkpt lat="44.1241" lon="3.22281">
        <ele>401</ele>
        <time>2000-01-01T10:31:39.000Z</time>
      </trkpt>
      <trkpt lat="44.12395" lon="3.2229">
        <ele>401</ele>
        <time>2000-01-01T10:31:49.000Z</time>
      </trkpt>
      <trkpt lat="44.12388" lon="3.2229">
        <ele>400.6</ele>
        <time>2000-01-01T10:31:59.000Z</time>
      </trkpt>
      <trkpt lat="44.12375" lon="3.22281">
        <ele>400</ele>
        <time>2000-01-01T10:32:09.000Z</time>
      </trkpt>
      <trkpt lat="44.12365" lon="3.22268">
        <ele>401</ele>
        <time>2000-01-01T10:32:19.000Z</time>
      </trkpt>
      <trkpt lat="44.12351" lon="3.22251">
        <ele>400</ele>
        <time>2000-01-01T10:32:29.000Z</time>
      </trkpt>
      <trkpt lat="44.12329" lon="3.22226">
        <ele>400</ele>
        <time>2000-01-01T10:32:39.000Z</time>
      </trkpt>
      <trkpt lat="44.12335" lon="3.22215">
        <ele>401.3</ele>
        <time>2000-01-01T10:32:49.000Z</time>
      </trkpt>
      <trkpt lat="44.1233" lon="3.22194">
        <ele>400</ele>
        <time>2000-01-01T10:32:59.000Z</time>
      </trkpt>
      <trkpt lat="44.12327" lon="3.22179">
        <ele>400.4</ele>
        <time>2000-01-01T10:33:09.000Z</time>
      </trkpt>
      <trkpt lat="44.12327" lon="3.2217">
        <ele>400.6</ele>
        <time>2000-01-01T10:33:19.000Z</time>
      </trkpt>
      <trkpt lat="44.12317" lon="3.22169">
        <ele>399</ele>
        <time>2000-01-01T10:33:29.000Z</time>
      </trkpt>
      <trkpt lat="44.12314" lon="3.2217">
        <ele>397.9</ele>
        <time>2000-01-01T10:33:39.000Z</time>
      </trkpt>
      <trkpt lat="44.12306" lon="3.2217">
        <ele>396.2</ele>
        <time>2000-01-01T10:33:49.000Z</time>
      </trkpt>
      <trkpt lat="44.12293" lon="3.22169">
        <ele>399</ele>
        <time>2000-01-01T10:33:59.000Z</time>
      </trkpt>
      <trkpt lat="44.12254" lon="3.22168">
        <ele>400</ele>
        <time>2000-01-01T10:34:09.000Z</time>
      </trkpt>
      <trkpt lat="44.12252" lon="3.22167">
        <ele>401.5</ele>
        <time>2000-01-01T10:34:19.000Z</time>
      </trkpt>
      <trkpt lat="44.12248" lon="3.22167">
        <ele>403.7</ele>
        <time>2000-01-01T10:34:29.000Z</time>
      </trkpt>
      <trkpt lat="44.12245" lon="3.22158">
        <ele>405</ele>
        <time>2000-01-01T10:34:39.000Z</time>
      </trkpt>
      <trkpt lat="44.12244" lon="3.22143">
        <ele>403</ele>
        <time>2000-01-01T10:34:49.000Z</time>
      </trkpt>
      <trkpt lat="44.12239" lon="3.22118">
        <ele>406.7</ele>
        <time>2000-01-01T10:34:59.000Z</time>
      </trkpt>
      <trkpt lat="44.12238" lon="3.2212">
        <ele>407</ele>
        <time>2000-01-01T10:35:09.000Z</time>
      </trkpt>
      <trkpt lat="44.12232" lon="3.22148">
        <ele>411</ele>
        <time>2000-01-01T10:35:19.000Z</time>
      </trkpt>
      <trkpt lat="44.12234" lon="3.2217">
        <ele>416.6</ele>
        <time>2000-01-01T10:35:29.000Z</time>
      </trkpt>
      <trkpt lat="44.12238" lon="3.22176">
        <ele>420</ele>
        <time>2000-01-01T10:35:39.000Z</time>
      </trkpt>
      <trkpt lat="44.12241" lon="3.2218">
        <ele>413.4</ele>
        <time>2000-01-01T10:35:49.000Z</time>
      </trkpt>
      <trkpt lat="44.12245" lon="3.22197">
        <ele>413.2</ele>
        <time>2000-01-01T10:35:59.000Z</time>
      </trkpt>
      <trkpt lat="44.12247" lon="3.22208">
        <ele>421</ele>
        <time>2000-01-01T10:36:09.000Z</time>
      </trkpt>
      <trkpt lat="44.12246" lon="3.22226">
        <ele>420.5</ele>
        <time>2000-01-01T10:36:19.000Z</time>
      </trkpt>
      <trkpt lat="44.12251" lon="3.22252">
        <ele>425</ele>
        <time>2000-01-01T10:36:29.000Z</time>
      </trkpt>
      <trkpt lat="44.12249" lon="3.22259">
        <ele>425.9</ele>
        <time>2000-01-01T10:36:39.000Z</time>
      </trkpt>
      <trkpt lat="44.12248" lon="3.22266">
        <ele>427.6</ele>
        <time>2000-01-01T10:36:49.000Z</time>
      </trkpt>
      <trkpt lat="44.12247" lon="3.22278">
        <ele>429.8</ele>
        <time>2000-01-01T10:36:59.000Z</time>
      </trkpt>
      <trkpt lat="44.12247" lon="3.22291">
        <ele>438</ele>
        <time>2000-01-01T10:37:09.000Z</time>
      </trkpt>
      <trkpt lat="44.12246" lon="3.22309">
        <ele>441</ele>
        <time>2000-01-01T10:37:19.000Z</time>
      </trkpt>
      <trkpt lat="44.12244" lon="3.22312">
        <ele>443.6</ele>
        <time>2000-01-01T10:37:29.000Z</time>
      </trkpt>
      <trkpt lat="44.12239" lon="3.22306">
        <ele>447</ele>
        <time>2000-01-01T10:37:39.000Z</time>
      </trkpt>
      <trkpt lat="44.12229" lon="3.22309">
        <ele>452.9</ele>
        <time>2000-01-01T10:37:49.000Z</time>
      </trkpt>
      <trkpt lat="44.12226" lon="3.22326">
        <ele>465</ele>
        <time>2000-01-01T10:37:59.000Z</time>
      </trkpt>
      <trkpt lat="44.12236" lon="3.2235">
        <ele>468</ele>
        <time>2000-01-01T10:38:09.000Z</time>
      </trkpt>
      <trkpt lat="44.12227" lon="3.22351">
        <ele>475.3</ele>
        <time>2000-01-01T10:38:19.000Z</time>
      </trkpt>
      <trkpt lat="44.1222" lon="3.22352">
        <ele>481.4</ele>
        <time>2000-01-01T10:38:29.000Z</time>
      </trkpt>
      <trkpt lat="44.12218" lon="3.22355">
        <ele>484.6</ele>
        <time>2000-01-01T10:38:39.000Z</time>
      </trkpt>
      <trkpt lat="44.12222" lon="3.22362">
        <ele>486</ele>
        <time>2000-01-01T10:38:49.000Z</time>
      </trkpt>
      <trkpt lat="44.12227" lon="3.22368">
        <ele>488.1</ele>
        <time>2000-01-01T10:38:59.000Z</time>
      </trkpt>
      <trkpt lat="44.12236" lon="3.22377">
        <ele>487.4</ele>
        <time>2000-01-01T10:39:09.000Z</time>
      </trkpt>
      <trkpt lat="44.12247" lon="3.22389">
        <ele>486</ele>
        <time>2000-01-01T10:39:19.000Z</time>
      </trkpt>
      <trkpt lat="44.12248" lon="3.22397">
        <ele>486.3</ele>
        <time>2000-01-01T10:39:29.000Z</time>
      </trkpt>
      <trkpt lat="44.12249" lon="3.22411">
        <ele>493.4</ele>
        <time>2000-01-01T10:39:39.000Z</time>
      </trkpt>
      <trkpt lat="44.12245" lon="3.22424">
        <ele>503</ele>
        <time>2000-01-01T10:39:49.000Z</time>
      </trkpt>
      <trkpt lat="44.12246" lon="3.22443">
        <ele>513.1</ele>
        <time>2000-01-01T10:39:59.000Z</time>
      </trkpt>
      <trkpt lat="44.12252" lon="3.22453">
        <ele>516</ele>
        <time>2000-01-01T10:40:09.000Z</time>
      </trkpt>
      <trkpt lat="44.12261" lon="3.2246">
        <ele>512.8</ele>
        <time>2000-01-01T10:40:19.000Z</time>
      </trkpt>
      <trkpt lat="44.12262" lon="3.22475">
        <ele>520</ele>
        <time>2000-01-01T10:40:29.000Z</time>
      </trkpt>
      <trkpt lat="44.12263" lon="3.22502">
        <ele>522.9</ele>
        <time>2000-01-01T10:40:39.000Z</time>
      </trkpt>
      <trkpt lat="44.12259" lon="3.22524">
        <ele>524</ele>
        <time>2000-01-01T10:40:49.000Z</time>
      </trkpt>
      <trkpt lat="44.12251" lon="3.22542">
        <ele>526</ele>
        <time>2000-01-01T10:40:59.000Z</time>
      </trkpt>
      <trkpt lat="44.12245" lon="3.22555">
        <ele>528</ele>
        <time>2000-01-01T10:41:09.000Z</time>
      </trkpt>
      <trkpt lat="44.1224" lon="3.22552">
        <ele>528.6</ele>
        <time>2000-01-01T10:41:19.000Z</time>
      </trkpt>
      <trkpt lat="44.1223" lon="3.22527">
        <ele>542</ele>
        <time>2000-01-01T10:41:29.000Z</time>
      </trkpt>
      <trkpt lat="44.1221" lon="3.22519">
        <ele>546</ele>
        <time>2000-01-01T10:41:39.000Z</time>
      </trkpt>
      <trkpt lat="44.12199" lon="3.22515">
        <ele>550.9</ele>
        <time>2000-01-01T10:41:49.000Z</time>
      </trkpt>
      <trkpt lat="44.12185" lon="3.22521">
        <ele>557</ele>
        <time>2000-01-01T10:41:59.000Z</time>
      </trkpt>
      <trkpt lat="44.12176" lon="3.22531">
        <ele>557.1</ele>
        <time>2000-01-01T10:42:09.000Z</time>
      </trkpt>
      <trkpt lat="44.12164" lon="3.22538">
        <ele>562</ele>
        <time>2000-01-01T10:42:19.000Z</time>
      </trkpt>
      <trkpt lat="44.12148" lon="3.22546">
        <ele>562.9</ele>
        <time>2000-01-01T10:42:29.000Z</time>
      </trkpt>
      <trkpt lat="44.12132" lon="3.22554">
        <ele>569</ele>
        <time>2000-01-01T10:42:39.000Z</time>
      </trkpt>
      <trkpt lat="44.12128" lon="3.22558">
        <ele>567.4</ele>
        <time>2000-01-01T10:42:49.000Z</time>
      </trkpt>
      <trkpt lat="44.12116" lon="3.22573">
        <ele>572</ele>
        <time>2000-01-01T10:42:59.000Z</time>
      </trkpt>
      <trkpt lat="44.12109" lon="3.22582">
        <ele>571</ele>
        <time>2000-01-01T10:43:09.000Z</time>
      </trkpt>
      <trkpt lat="44.12097" lon="3.22596">
        <ele>572</ele>
        <time>2000-01-01T10:43:19.000Z</time>
      </trkpt>
      <trkpt lat="44.12086" lon="3.22628">
        <ele>572</ele>
        <time>2000-01-01T10:43:29.000Z</time>
      </trkpt>
      <trkpt lat="44.12082" lon="3.2266">
        <ele>571</ele>
        <time>2000-01-01T10:43:39.000Z</time>
      </trkpt>
      <trkpt lat="44.12078" lon="3.22685">
        <ele>568.8</ele>
        <time>2000-01-01T10:43:49.000Z</time>
      </trkpt>
      <trkpt lat="44.12075" lon="3.22705">
        <ele>571</ele>
        <time>2000-01-01T10:43:59.000Z</time>
      </trkpt>
      <trkpt lat="44.12067" lon="3.22717">
        <ele>569.7</ele>
        <time>2000-01-01T10:44:09.000Z</time>
      </trkpt>
      <trkpt lat="44.12057" lon="3.22715">
        <ele>573</ele>
        <time>2000-01-01T10:44:19.000Z</time>
      </trkpt>
      <trkpt lat="44.12046" lon="3.22702">
        <ele>575.4</ele>
        <time>2000-01-01T10:44:29.000Z</time>
      </trkpt>
      <trkpt lat="44.12028" lon="3.22689">
        <ele>584</ele>
        <time>2000-01-01T10:44:39.000Z</time>
      </trkpt>
      <trkpt lat="44.12011" lon="3.22691">
        <ele>584.3</ele>
        <time>2000-01-01T10:44:49.000Z</time>
      </trkpt>
      <trkpt lat="44.1199" lon="3.22694">
        <ele>588</ele>
        <time>2000-01-01T10:44:59.000Z</time>
      </trkpt>
      <trkpt lat="44.11976" lon="3.22689">
        <ele>592.2</ele>
        <time>2000-01-01T10:45:09.000Z</time>
      </trkpt>
      <trkpt lat="44.11963" lon="3.22691">
        <ele>595</ele>
        <time>2000-01-01T10:45:19.000Z</time>
      </trkpt>
      <trkpt lat="44.11949" lon="3.22694">
        <ele>597.8</ele>
        <time>2000-01-01T10:45:29.000Z</time>
      </trkpt>
      <trkpt lat="44.11937" lon="3.227">
        <ele>600</ele>
        <time>2000-01-01T10:45:39.000Z</time>
      </trkpt>
      <trkpt lat="44.11926" lon="3.22706">
        <ele>599.2</ele>
        <time>2000-01-01T10:45:49.000Z</time>
      </trkpt>
      <trkpt lat="44.11909" lon="3.22707">
        <ele>603</ele>
        <time>2000-01-01T10:45:59.000Z</time>
      </trkpt>
      <trkpt lat="44.11899" lon="3.22715">
        <ele>603.1</ele>
        <time>2000-01-01T10:46:09.000Z</time>
      </trkpt>
      <trkpt lat="44.11889" lon="3.22724">
        <ele>606</ele>
        <time>2000-01-01T10:46:19.000Z</time>
      </trkpt>
      <trkpt lat="44.11869" lon="3.22731">
        <ele>608</ele>
        <time>2000-01-01T10:46:29.000Z</time>
      </trkpt>
      <trkpt lat="44.11854" lon="3.22736">
        <ele>607.4</ele>
        <time>2000-01-01T10:46:39.000Z</time>
      </trkpt>
      <trkpt lat="44.11847" lon="3.22737">
        <ele>613</ele>
        <time>2000-01-01T10:46:49.000Z</time>
      </trkpt>
      <trkpt lat="44.11835" lon="3.22739">
        <ele>612.2</ele>
        <time>2000-01-01T10:46:59.000Z</time>
      </trkpt>
      <trkpt lat="44.11823" lon="3.2274">
        <ele>620</ele>
        <time>2000-01-01T10:47:09.000Z</time>
      </trkpt>
      <trkpt lat="44.11793" lon="3.22743">
        <ele>620</ele>
        <time>2000-01-01T10:47:19.000Z</time>
      </trkpt>
      <trkpt lat="44.11767" lon="3.22752">
        <ele>620</ele>
        <time>2000-01-01T10:47:29.000Z</time>
      </trkpt>
      <trkpt lat="44.11746" lon="3.22749">
        <ele>628</ele>
        <time>2000-01-01T10:47:39.000Z</time>
      </trkpt>
      <trkpt lat="44.11736" lon="3.2275">
        <ele>626.5</ele>
        <time>2000-01-01T10:47:49.000Z</time>
      </trkpt>
      <trkpt lat="44.11716" lon="3.22767">
        <ele>629</ele>
        <time>2000-01-01T10:47:59.000Z</time>
      </trkpt>
      <trkpt lat="44.1171" lon="3.22778">
        <ele>626.6</ele>
        <time>2000-01-01T10:48:09.000Z</time>
      </trkpt>
      <trkpt lat="44.11707" lon="3.22785">
        <ele>624.8</ele>
        <time>2000-01-01T10:48:19.000Z</time>
      </trkpt>
      <trkpt lat="44.11697" lon="3.22795">
        <ele>630</ele>
        <time>2000-01-01T10:48:29.000Z</time>
      </trkpt>
      <trkpt lat="44.11681" lon="3.228">
        <ele>627.8</ele>
        <time>2000-01-01T10:48:39.000Z</time>
      </trkpt>
      <trkpt lat="44.11676" lon="3.22802">
        <ele>632</ele>
        <time>2000-01-01T10:48:49.000Z</time>
      </trkpt>
      <trkpt lat="44.11665" lon="3.22807">
        <ele>631.7</ele>
        <time>2000-01-01T10:48:59.000Z</time>
      </trkpt>
      <trkpt lat="44.11642" lon="3.22827">
        <ele>643</ele>
        <time>2000-01-01T10:49:09.000Z</time>
      </trkpt>
      <trkpt lat="44.11635" lon="3.22845">
        <ele>642.3</ele>
        <time>2000-01-01T10:49:19.000Z</time>
      </trkpt>
      <trkpt lat="44.11629" lon="3.22862">
        <ele>647</ele>
        <time>2000-01-01T10:49:29.000Z</time>
      </trkpt>
      <trkpt lat="44.11622" lon="3.2288">
        <ele>650.1</ele>
        <time>2000-01-01T10:49:39.000Z</time>
      </trkpt>
      <trkpt lat="44.11627" lon="3.22896">
        <ele>651</ele>
        <time>2000-01-01T10:49:49.000Z</time>
      </trkpt>
      <trkpt lat="44.11624" lon="3.22908">
        <ele>656.7</ele>
        <time>2000-01-01T10:49:59.000Z</time>
      </trkpt>
      <trkpt lat="44.11617" lon="3.22908">
        <ele>660.3</ele>
        <time>2000-01-01T10:50:09.000Z</time>
      </trkpt>
      <trkpt lat="44.1158" lon="3.22889">
        <ele>670</ele>
        <time>2000-01-01T10:50:19.000Z</time>
      </trkpt>
      <trkpt lat="44.1157" lon="3.22881">
        <ele>677.9</ele>
        <time>2000-01-01T10:50:29.000Z</time>
      </trkpt>
      <trkpt lat="44.11567" lon="3.22876">
        <ele>680</ele>
        <time>2000-01-01T10:50:39.000Z</time>
      </trkpt>
      <trkpt lat="44.11563" lon="3.22875">
        <ele>682</ele>
        <time>2000-01-01T10:50:49.000Z</time>
      </trkpt>
      <trkpt lat="44.11551" lon="3.2288">
        <ele>686.9</ele>
        <time>2000-01-01T10:50:59.000Z</time>
      </trkpt>
      <trkpt lat="44.11539" lon="3.22835">
        <ele>691</ele>
        <time>2000-01-01T10:51:09.000Z</time>
      </trkpt>
      <trkpt lat="44.11531" lon="3.22837">
        <ele>704.6</ele>
        <time>2000-01-01T10:51:19.000Z</time>
      </trkpt>
      <trkpt lat="44.11528" lon="3.22839">
        <ele>704.9</ele>
        <time>2000-01-01T10:51:29.000Z</time>
      </trkpt>
      <trkpt lat="44.11523" lon="3.22847">
        <ele>703.1</ele>
        <time>2000-01-01T10:51:39.000Z</time>
      </trkpt>
      <trkpt lat="44.11514" lon="3.22871">
        <ele>700</ele>
        <time>2000-01-01T10:51:49.000Z</time>
      </trkpt>
      <trkpt lat="44.115" lon="3.22917">
        <ele>708</ele>
        <time>2000-01-01T10:51:59.000Z</time>
      </trkpt>
      <trkpt lat="44.11497" lon="3.22921">
        <ele>708.5</ele>
        <time>2000-01-01T10:52:09.000Z</time>
      </trkpt>
      <trkpt lat="44.11493" lon="3.22921">
        <ele>709.3</ele>
        <time>2000-01-01T10:52:19.000Z</time>
      </trkpt>
      <trkpt lat="44.11471" lon="3.22907">
        <ele>713</ele>
        <time>2000-01-01T10:52:29.000Z</time>
      </trkpt>
      <trkpt lat="44.11455" lon="3.22906">
        <ele>718</ele>
        <time>2000-01-01T10:52:39.000Z</time>
      </trkpt>
      <trkpt lat="44.11429" lon="3.22903">
        <ele>727</ele>
        <time>2000-01-01T10:52:49.000Z</time>
      </trkpt>
      <trkpt lat="44.11421" lon="3.22905">
        <ele>726.8</ele>
        <time>2000-01-01T10:52:59.000Z</time>
      </trkpt>
      <trkpt lat="44.1141" lon="3.2291">
        <ele>731</ele>
        <time>2000-01-01T10:53:09.000Z</time>
      </trkpt>
      <trkpt lat="44.114" lon="3.22911">
        <ele>731</ele>
        <time>2000-01-01T10:53:19.000Z</time>
      </trkpt>
      <trkpt lat="44.11395" lon="3.2291">
        <ele>731.9</ele>
        <time>2000-01-01T10:53:29.000Z</time>
      </trkpt>
      <trkpt lat="44.1138" lon="3.22905">
        <ele>735</ele>
        <time>2000-01-01T10:53:39.000Z</time>
      </trkpt>
      <trkpt lat="44.11358" lon="3.22901">
        <ele>735</ele>
        <time>2000-01-01T10:53:49.000Z</time>
        <extensions>
          <visugpx:TrkExtension xmlns:visugpx="https://www.visugpx.com/editgpx/">
            <visugpx:node>1</visugpx:node>
            </visugpx:TrkExtension>
        </extensions>
      </trkpt>
      <trkpt lat="44.11358" lon="3.22904">
        <ele>735.4</ele>
      </trkpt>
      <trkpt lat="44.11358" lon="3.22908">
        <ele>735.3</ele>
      </trkpt>
      <trkpt lat="44.11356" lon="3.22912">
        <ele>735.1</ele>
      </trkpt>
      <trkpt lat="44.11353" lon="3.22915">
        <ele>735</ele>
      </trkpt>
      <trkpt lat="44.11347" lon="3.22927">
        <ele>735.2</ele>
      </trkpt>
      <trkpt lat="44.1134" lon="3.2294">
        <ele>735.2</ele>
      </trkpt>
      <trkpt lat="44.11334" lon="3.22949">
        <ele>735.3</ele>
      </trkpt>
      <trkpt lat="44.11329" lon="3.22957">
        <ele>735.7</ele>
      </trkpt>
      <trkpt lat="44.11326" lon="3.22961">
        <ele>735.8</ele>
      </trkpt>
      <trkpt lat="44.11323" lon="3.22965">
        <ele>736</ele>
      </trkpt>
      <trkpt lat="44.11321" lon="3.22968">
        <ele>736.2</ele>
      </trkpt>
      <trkpt lat="44.1132" lon="3.22971">
        <ele>736.4</ele>
      </trkpt>
      <trkpt lat="44.1132" lon="3.22975">
        <ele>736.8</ele>
      </trkpt>
      <trkpt lat="44.11318" lon="3.22983">
        <ele>737.6</ele>
      </trkpt>
      <trkpt lat="44.11317" lon="3.22992">
        <ele>738.5</ele>
      </trkpt>
      <trkpt lat="44.11317" lon="3.23">
        <ele>739.4</ele>
      </trkpt>
      <trkpt lat="44.11315" lon="3.23007">
        <ele>740.1</ele>
      </trkpt>
      <trkpt lat="44.11313" lon="3.23014">
        <ele>740.8</ele>
      </trkpt>
      <trkpt lat="44.1131" lon="3.23023">
        <ele>741.6</ele>
      </trkpt>
      <trkpt lat="44.11307" lon="3.23029">
        <ele>742.2</ele>
      </trkpt>
      <trkpt lat="44.11303" lon="3.23034">
        <ele>742.5</ele>
      </trkpt>
      <trkpt lat="44.11298" lon="3.23039">
        <ele>742.7</ele>
      </trkpt>
      <trkpt lat="44.11293" lon="3.23045">
        <ele>743</ele>
      </trkpt>
      <trkpt lat="44.11285" lon="3.23052">
        <ele>743.1</ele>
      </trkpt>
      <trkpt lat="44.1128" lon="3.23054">
        <ele>743</ele>
      </trkpt>
      <trkpt lat="44.11276" lon="3.23054">
        <ele>742.6</ele>
      </trkpt>
      <trkpt lat="44.11274" lon="3.23054">
        <ele>742.4</ele>
      </trkpt>
      <trkpt lat="44.11269" lon="3.23053">
        <ele>741.8</ele>
      </trkpt>
      <trkpt lat="44.11266" lon="3.23054">
        <ele>741.6</ele>
      </trkpt>
      <trkpt lat="44.11262" lon="3.23058">
        <ele>741.6</ele>
      </trkpt>
      <trkpt lat="44.11262" lon="3.23059">
        <ele>741.7</ele>
      </trkpt>
      <trkpt lat="44.1126" lon="3.23063">
        <ele>742.1</ele>
      </trkpt>
      <trkpt lat="44.11258" lon="3.23067">
        <ele>742.4</ele>
      </trkpt>
      <trkpt lat="44.11255" lon="3.2307">
        <ele>742.5</ele>
      </trkpt>
      <trkpt lat="44.11251" lon="3.23074">
        <ele>742.7</ele>
      </trkpt>
      <trkpt lat="44.11245" lon="3.23081">
        <ele>743.1</ele>
      </trkpt>
      <trkpt lat="44.11237" lon="3.23089">
        <ele>743.3</ele>
      </trkpt>
      <trkpt lat="44.11228" lon="3.23097">
        <ele>743.5</ele>
      </trkpt>
      <trkpt lat="44.11216" lon="3.23107">
        <ele>743.7</ele>
      </trkpt>
      <trkpt lat="44.11214" lon="3.23115">
        <ele>744.6</ele>
      </trkpt>
      <trkpt lat="44.11212" lon="3.23124">
        <ele>745.5</ele>
      </trkpt>
      <trkpt lat="44.11209" lon="3.23132">
        <ele>746.2</ele>
      </trkpt>
      <trkpt lat="44.11203" lon="3.23145">
        <ele>747.3</ele>
      </trkpt>
      <trkpt lat="44.11197" lon="3.23154">
        <ele>747.9</ele>
      </trkpt>
      <trkpt lat="44.11189" lon="3.23167">
        <ele>748.4</ele>
      </trkpt>
      <trkpt lat="44.11177" lon="3.23185">
        <ele>749.1</ele>
      </trkpt>
      <trkpt lat="44.1117" lon="3.23196">
        <ele>749.5</ele>
      </trkpt>
      <trkpt lat="44.11165" lon="3.23206">
        <ele>750</ele>
      </trkpt>
      <trkpt lat="44.11162" lon="3.23211">
        <ele>750</ele>
      </trkpt>
      <trkpt lat="44.1116" lon="3.23216">
        <ele>750.3</ele>
      </trkpt>
      <trkpt lat="44.11158" lon="3.23221">
        <ele>750.6</ele>
      </trkpt>
      <trkpt lat="44.11155" lon="3.23226">
        <ele>750.6</ele>
      </trkpt>
      <trkpt lat="44.11153" lon="3.2323">
        <ele>750.7</ele>
      </trkpt>
      <trkpt lat="44.11149" lon="3.23237">
        <ele>750.9</ele>
      </trkpt>
      <trkpt lat="44.11145" lon="3.23244">
        <ele>751.1</ele>
      </trkpt>
      <trkpt lat="44.11139" lon="3.23256">
        <ele>751.4</ele>
      </trkpt>
      <trkpt lat="44.11131" lon="3.2327">
        <ele>751.5</ele>
      </trkpt>
      <trkpt lat="44.11126" lon="3.23277">
        <ele>751.5</ele>
      </trkpt>
      <trkpt lat="44.11123" lon="3.23283">
        <ele>751.8</ele>
      </trkpt>
      <trkpt lat="44.11119" lon="3.23291">
        <ele>752.1</ele>
      </trkpt>
      <trkpt lat="44.11117" lon="3.23302">
        <ele>753.1</ele>
      </trkpt>
      <trkpt lat="44.11114" lon="3.23311">
        <ele>753.6</ele>
      </trkpt>
      <trkpt lat="44.11109" lon="3.23322">
        <ele>754.1</ele>
      </trkpt>
      <trkpt lat="44.11105" lon="3.23336">
        <ele>755</ele>
      </trkpt>
      <trkpt lat="44.11102" lon="3.23343">
        <ele>755.5</ele>
      </trkpt>
      <trkpt lat="44.11098" lon="3.2335">
        <ele>756</ele>
      </trkpt>
      <trkpt lat="44.11092" lon="3.23359">
        <ele>756.8</ele>
      </trkpt>
      <trkpt lat="44.11087" lon="3.23365">
        <ele>757.3</ele>
      </trkpt>
      <trkpt lat="44.11082" lon="3.23372">
        <ele>757.9</ele>
      </trkpt>
      <trkpt lat="44.11074" lon="3.23381">
        <ele>759.1</ele>
      </trkpt>
      <trkpt lat="44.11067" lon="3.23389">
        <ele>760.2</ele>
      </trkpt>
      <trkpt lat="44.11053" lon="3.23403">
        <ele>761.6</ele>
      </trkpt>
      <trkpt lat="44.11043" lon="3.23412">
        <ele>762.7</ele>
      </trkpt>
      <trkpt lat="44.11031" lon="3.23421">
        <ele>763.9</ele>
      </trkpt>
      <trkpt lat="44.1102" lon="3.23431">
        <ele>764.8</ele>
      </trkpt>
      <trkpt lat="44.11006" lon="3.23442">
        <ele>765.7</ele>
      </trkpt>
      <trkpt lat="44.10992" lon="3.23454">
        <ele>766.4</ele>
      </trkpt>
      <trkpt lat="44.10981" lon="3.23464">
        <ele>767.2</ele>
      </trkpt>
      <trkpt lat="44.10967" lon="3.23476">
        <ele>768.2</ele>
      </trkpt>
      <trkpt lat="44.10956" lon="3.23485">
        <ele>768.9</ele>
      </trkpt>
      <trkpt lat="44.10943" lon="3.23495">
        <ele>769.9</ele>
      </trkpt>
      <trkpt lat="44.10931" lon="3.23504">
        <ele>770.9</ele>
      </trkpt>
      <trkpt lat="44.10922" lon="3.23511">
        <ele>771.5</ele>
      </trkpt>
      <trkpt lat="44.10915" lon="3.23515">
        <ele>772.1</ele>
      </trkpt>
      <trkpt lat="44.10905" lon="3.23519">
        <ele>772.8</ele>
      </trkpt>
      <trkpt lat="44.10897" lon="3.23522">
        <ele>773.4</ele>
      </trkpt>
      <trkpt lat="44.10889" lon="3.23526">
        <ele>774</ele>
      </trkpt>
      <trkpt lat="44.10884" lon="3.23529">
        <ele>774.4</ele>
      </trkpt>
      <trkpt lat="44.10878" lon="3.23531">
        <ele>774.8</ele>
      </trkpt>
      <trkpt lat="44.10873" lon="3.23533">
        <ele>775.1</ele>
      </trkpt>
      <trkpt lat="44.10876" lon="3.23533">
        <ele>774.9</ele>
        <extensions>
          <visugpx:TrkExtension xmlns:visugpx="https://www.visugpx.com/editgpx/">
            <visugpx:node>2</visugpx:node>
            </visugpx:TrkExtension>
        </extensions>
      </trkpt>
      <trkpt lat="44.10873" lon="3.23533">
        <ele>775.1</ele>
      </trkpt>
      <trkpt lat="44.10875" lon="3.23534">
        <ele>775</ele>
      </trkpt>
      <trkpt lat="44.10877" lon="3.23535">
        <ele>774.9</ele>
      </trkpt>
      <trkpt lat="44.1088" lon="3.23538">
        <ele>774.6</ele>
      </trkpt>
      <trkpt lat="44.10884" lon="3.23543">
        <ele>774.4</ele>
      </trkpt>
      <trkpt lat="44.10886" lon="3.23547">
        <ele>774.2</ele>
      </trkpt>
      <trkpt lat="44.10889" lon="3.23552">
        <ele>774</ele>
      </trkpt>
      <trkpt lat="44.1089" lon="3.23557">
        <ele>773.8</ele>
      </trkpt>
      <trkpt lat="44.10891" lon="3.23561">
        <ele>773.4</ele>
      </trkpt>
      <trkpt lat="44.10891" lon="3.23566">
        <ele>773</ele>
      </trkpt>
      <trkpt lat="44.1089" lon="3.23573">
        <ele>772.6</ele>
      </trkpt>
      <trkpt lat="44.1089" lon="3.23581">
        <ele>772.1</ele>
      </trkpt>
      <trkpt lat="44.1089" lon="3.23583">
        <ele>771.9</ele>
      </trkpt>
      <trkpt lat="44.10891" lon="3.23587">
        <ele>771.6</ele>
      </trkpt>
      <trkpt lat="44.10892" lon="3.23589">
        <ele>771.4</ele>
      </trkpt>
      <trkpt lat="44.10894" lon="3.23593">
        <ele>771</ele>
      </trkpt>
      <trkpt lat="44.10899" lon="3.23602">
        <ele>770.2</ele>
      </trkpt>
      <trkpt lat="44.10908" lon="3.23615">
        <ele>769</ele>
      </trkpt>
      <trkpt lat="44.10917" lon="3.23629">
        <ele>767.7</ele>
      </trkpt>
      <trkpt lat="44.10928" lon="3.23646">
        <ele>766.2</ele>
      </trkpt>
      <trkpt lat="44.10937" lon="3.23661">
        <ele>765.3</ele>
      </trkpt>
      <trkpt lat="44.10948" lon="3.23679">
        <ele>764.9</ele>
      </trkpt>
      <trkpt lat="44.10953" lon="3.23687">
        <ele>764.9</ele>
      </trkpt>
      <trkpt lat="44.10956" lon="3.2369">
        <ele>764.9</ele>
      </trkpt>
      <trkpt lat="44.10961" lon="3.23695">
        <ele>765</ele>
      </trkpt>
      <trkpt lat="44.10962" lon="3.23697">
        <ele>765</ele>
      </trkpt>
      <trkpt lat="44.10962" lon="3.23702">
        <ele>765.1</ele>
      </trkpt>
      <trkpt lat="44.10962" lon="3.23708">
        <ele>765.1</ele>
      </trkpt>
      <trkpt lat="44.10961" lon="3.23712">
        <ele>765.1</ele>
      </trkpt>
      <trkpt lat="44.10959" lon="3.23716">
        <ele>765</ele>
      </trkpt>
      <trkpt lat="44.10959" lon="3.23719">
        <ele>765</ele>
      </trkpt>
      <trkpt lat="44.10959" lon="3.23722">
        <ele>765</ele>
      </trkpt>
      <trkpt lat="44.10959" lon="3.23726">
        <ele>765.2</ele>
      </trkpt>
      <trkpt lat="44.10958" lon="3.23731">
        <ele>765.3</ele>
      </trkpt>
      <trkpt lat="44.10957" lon="3.23737">
        <ele>765.5</ele>
      </trkpt>
      <trkpt lat="44.10954" lon="3.23745">
        <ele>765.8</ele>
      </trkpt>
      <trkpt lat="44.10951" lon="3.23756">
        <ele>766.2</ele>
      </trkpt>
      <trkpt lat="44.10948" lon="3.23769">
        <ele>766.7</ele>
      </trkpt>
      <trkpt lat="44.10945" lon="3.23782">
        <ele>767.2</ele>
      </trkpt>
      <trkpt lat="44.10943" lon="3.23791">
        <ele>767.5</ele>
      </trkpt>
      <trkpt lat="44.10941" lon="3.23804">
        <ele>768.1</ele>
      </trkpt>
      <trkpt lat="44.10939" lon="3.23825">
        <ele>769.5</ele>
      </trkpt>
      <trkpt lat="44.10937" lon="3.23838">
        <ele>770.2</ele>
      </trkpt>
      <trkpt lat="44.10935" lon="3.23851">
        <ele>770.9</ele>
      </trkpt>
      <trkpt lat="44.10933" lon="3.23867">
        <ele>771.6</ele>
      </trkpt>
      <trkpt lat="44.10932" lon="3.23877">
        <ele>772</ele>
      </trkpt>
      <trkpt lat="44.10931" lon="3.23887">
        <ele>772.4</ele>
      </trkpt>
      <trkpt lat="44.1093" lon="3.23898">
        <ele>772.7</ele>
      </trkpt>
      <trkpt lat="44.10928" lon="3.23907">
        <ele>773</ele>
      </trkpt>
      <trkpt lat="44.10926" lon="3.23918">
        <ele>773.3</ele>
      </trkpt>
      <trkpt lat="44.10923" lon="3.23926">
        <ele>773.5</ele>
      </trkpt>
      <trkpt lat="44.10919" lon="3.23939">
        <ele>773.8</ele>
      </trkpt>
      <trkpt lat="44.10915" lon="3.23951">
        <ele>773.8</ele>
      </trkpt>
      <trkpt lat="44.10909" lon="3.23967">
        <ele>773.7</ele>
      </trkpt>
      <trkpt lat="44.10904" lon="3.23983">
        <ele>773.7</ele>
      </trkpt>
      <trkpt lat="44.109" lon="3.23996">
        <ele>773.7</ele>
      </trkpt>
      <trkpt lat="44.10899" lon="3.24003">
        <ele>773.6</ele>
      </trkpt>
      <trkpt lat="44.10898" lon="3.24005">
        <ele>773.6</ele>
      </trkpt>
      <trkpt lat="44.10898" lon="3.24008">
        <ele>773.5</ele>
      </trkpt>
      <trkpt lat="44.10899" lon="3.24011">
        <ele>773.4</ele>
      </trkpt>
      <trkpt lat="44.109" lon="3.24013">
        <ele>773.3</ele>
      </trkpt>
      <trkpt lat="44.10901" lon="3.24019">
        <ele>773.2</ele>
      </trkpt>
      <trkpt lat="44.10908" lon="3.24035">
        <ele>772.7</ele>
      </trkpt>
      <trkpt lat="44.10914" lon="3.24053">
        <ele>772.1</ele>
      </trkpt>
      <trkpt lat="44.10917" lon="3.24063">
        <ele>772</ele>
      </trkpt>
      <trkpt lat="44.10917" lon="3.24066">
        <ele>772</ele>
      </trkpt>
      <trkpt lat="44.10917" lon="3.2407">
        <ele>772</ele>
      </trkpt>
      <trkpt lat="44.10918" lon="3.24073">
        <ele>772</ele>
      </trkpt>
      <trkpt lat="44.10919" lon="3.24076">
        <ele>772.1</ele>
      </trkpt>
      <trkpt lat="44.10922" lon="3.24085">
        <ele>772.1</ele>
      </trkpt>
      <trkpt lat="44.10925" lon="3.24091">
        <ele>772</ele>
      </trkpt>
      <trkpt lat="44.10926" lon="3.24096">
        <ele>771.9</ele>
      </trkpt>
      <trkpt lat="44.10927" lon="3.241">
        <ele>771.8</ele>
      </trkpt>
      <trkpt lat="44.10927" lon="3.24103">
        <ele>771.7</ele>
      </trkpt>
      <trkpt lat="44.10927" lon="3.24107">
        <ele>771.5</ele>
      </trkpt>
      <trkpt lat="44.10925" lon="3.24112">
        <ele>771.2</ele>
      </trkpt>
      <trkpt lat="44.10923" lon="3.2412">
        <ele>770.7</ele>
      </trkpt>
      <trkpt lat="44.10921" lon="3.2413">
        <ele>769.9</ele>
      </trkpt>
      <trkpt lat="44.10918" lon="3.24144">
        <ele>768.7</ele>
      </trkpt>
      <trkpt lat="44.10916" lon="3.24151">
        <ele>768.1</ele>
      </trkpt>
      <trkpt lat="44.10913" lon="3.24155">
        <ele>767.4</ele>
      </trkpt>
      <trkpt lat="44.1091" lon="3.2416">
        <ele>766.8</ele>
      </trkpt>
      <trkpt lat="44.10906" lon="3.24165">
        <ele>766</ele>
      </trkpt>
      <trkpt lat="44.10905" lon="3.24168">
        <ele>765.7</ele>
      </trkpt>
      <trkpt lat="44.10904" lon="3.24171">
        <ele>765.5</ele>
      </trkpt>
      <trkpt lat="44.10903" lon="3.24175">
        <ele>765.2</ele>
      </trkpt>
      <trkpt lat="44.10903" lon="3.24182">
        <ele>765</ele>
      </trkpt>
      <trkpt lat="44.10904" lon="3.24205">
        <ele>764.8</ele>
      </trkpt>
      <trkpt lat="44.10905" lon="3.24219">
        <ele>765.1</ele>
      </trkpt>
      <trkpt lat="44.10905" lon="3.24225">
        <ele>765.1</ele>
      </trkpt>
      <trkpt lat="44.10906" lon="3.24228">
        <ele>765.1</ele>
      </trkpt>
      <trkpt lat="44.10908" lon="3.2423">
        <ele>765.2</ele>
      </trkpt>
      <trkpt lat="44.10909" lon="3.24234">
        <ele>765.1</ele>
      </trkpt>
      <trkpt lat="44.1091" lon="3.24238">
        <ele>765.1</ele>
      </trkpt>
      <trkpt lat="44.1091" lon="3.24241">
        <ele>765</ele>
      </trkpt>
      <trkpt lat="44.10909" lon="3.24244">
        <ele>764.9</ele>
      </trkpt>
      <trkpt lat="44.10907" lon="3.24249">
        <ele>764.7</ele>
      </trkpt>
      <trkpt lat="44.10904" lon="3.24257">
        <ele>764.4</ele>
      </trkpt>
      <trkpt lat="44.10901" lon="3.24264">
        <ele>764.2</ele>
      </trkpt>
      <trkpt lat="44.10899" lon="3.2427">
        <ele>764.1</ele>
      </trkpt>
      <trkpt lat="44.10899" lon="3.24273">
        <ele>764.1</ele>
      </trkpt>
      <trkpt lat="44.109" lon="3.24278">
        <ele>764</ele>
      </trkpt>
      <trkpt lat="44.10902" lon="3.24285">
        <ele>763.1</ele>
      </trkpt>
      <trkpt lat="44.10906" lon="3.24288">
        <ele>762.6</ele>
      </trkpt>
      <trkpt lat="44.10916" lon="3.24289">
        <ele>762</ele>
      </trkpt>
      <trkpt lat="44.10918" lon="3.24289">
        <ele>762.1</ele>
      </trkpt>
      <trkpt lat="44.10926" lon="3.24291">
        <ele>762.3</ele>
      </trkpt>
      <trkpt lat="44.10935" lon="3.24295">
        <ele>762.4</ele>
      </trkpt>
      <trkpt lat="44.10939" lon="3.24297">
        <ele>762.5</ele>
      </trkpt>
      <trkpt lat="44.10948" lon="3.24302">
        <ele>762.8</ele>
      </trkpt>
      <trkpt lat="44.10955" lon="3.24306">
        <ele>763.1</ele>
      </trkpt>
      <trkpt lat="44.10958" lon="3.24308">
        <ele>763.1</ele>
      </trkpt>
      <trkpt lat="44.10966" lon="3.24312">
        <ele>763.2</ele>
      </trkpt>
      <trkpt lat="44.10972" lon="3.24313">
        <ele>763.6</ele>
      </trkpt>
      <trkpt lat="44.10975" lon="3.24312">
        <ele>763.7</ele>
      </trkpt>
      <trkpt lat="44.10984" lon="3.24308">
        <ele>764.5</ele>
      </trkpt>
      <trkpt lat="44.1099" lon="3.24303">
        <ele>765.9</ele>
      </trkpt>
      <trkpt lat="44.10995" lon="3.243">
        <ele>766.4</ele>
      </trkpt>
      <trkpt lat="44.11" lon="3.24297">
        <ele>766.9</ele>
      </trkpt>
      <trkpt lat="44.11007" lon="3.24295">
        <ele>766.2</ele>
      </trkpt>
      <trkpt lat="44.11012" lon="3.24294">
        <ele>765.8</ele>
      </trkpt>
      <trkpt lat="44.11028" lon="3.24283">
        <ele>768.7</ele>
      </trkpt>
      <trkpt lat="44.11032" lon="3.24281">
        <ele>769.3</ele>
      </trkpt>
      <trkpt lat="44.1105" lon="3.24275">
        <ele>769.7</ele>
      </trkpt>
      <trkpt lat="44.11052" lon="3.24275">
        <ele>769.6</ele>
      </trkpt>
      <trkpt lat="44.11064" lon="3.2427">
        <ele>769.2</ele>
      </trkpt>
      <trkpt lat="44.11071" lon="3.24268">
        <ele>768.8</ele>
      </trkpt>
      <trkpt lat="44.11085" lon="3.24265">
        <ele>768.2</ele>
      </trkpt>
      <trkpt lat="44.11091" lon="3.24265">
        <ele>768</ele>
      </trkpt>
      <trkpt lat="44.11103" lon="3.24267">
        <ele>767.2</ele>
      </trkpt>
      <trkpt lat="44.11109" lon="3.24269">
        <ele>766.6</ele>
      </trkpt>
      <trkpt lat="44.11121" lon="3.24276">
        <ele>764.9</ele>
      </trkpt>
      <trkpt lat="44.11126" lon="3.24279">
        <ele>763.9</ele>
      </trkpt>
      <trkpt lat="44.11131" lon="3.24282">
        <ele>762.2</ele>
      </trkpt>
      <trkpt lat="44.11143" lon="3.24285">
        <ele>759.7</ele>
      </trkpt>
      <trkpt lat="44.11149" lon="3.24287">
        <ele>757.9</ele>
      </trkpt>
      <trkpt lat="44.11154" lon="3.24287">
        <ele>757.2</ele>
      </trkpt>
      <trkpt lat="44.11163" lon="3.2429">
        <ele>754.9</ele>
      </trkpt>
      <trkpt lat="44.11168" lon="3.24294">
        <ele>753.1</ele>
      </trkpt>
      <trkpt lat="44.11176" lon="3.24298">
        <ele>750.7</ele>
      </trkpt>
      <trkpt lat="44.11178" lon="3.24299">
        <ele>750.2</ele>
      </trkpt>
      <trkpt lat="44.11183" lon="3.24303">
        <ele>748.7</ele>
      </trkpt>
      <trkpt lat="44.11185" lon="3.24305">
        <ele>748.1</ele>
      </trkpt>
      <trkpt lat="44.11189" lon="3.2431">
        <ele>746.2</ele>
      </trkpt>
      <trkpt lat="44.11197" lon="3.24319">
        <ele>742.9</ele>
      </trkpt>
      <trkpt lat="44.11197" lon="3.24323">
        <ele>741.9</ele>
      </trkpt>
      <trkpt lat="44.11201" lon="3.24331">
        <ele>738.7</ele>
      </trkpt>
      <trkpt lat="44.11214" lon="3.24327">
        <ele>736</ele>
      </trkpt>
      <trkpt lat="44.11225" lon="3.24312">
        <ele>736.2</ele>
      </trkpt>
      <trkpt lat="44.11227" lon="3.24308">
        <ele>736.5</ele>
      </trkpt>
      <trkpt lat="44.11233" lon="3.24299">
        <ele>735.7</ele>
      </trkpt>
      <trkpt lat="44.11236" lon="3.24295">
        <ele>735.2</ele>
      </trkpt>
      <trkpt lat="44.11242" lon="3.24287">
        <ele>734.6</ele>
      </trkpt>
      <trkpt lat="44.11247" lon="3.24278">
        <ele>734.8</ele>
      </trkpt>
      <trkpt lat="44.11256" lon="3.24267">
        <ele>734.6</ele>
      </trkpt>
      <trkpt lat="44.11265" lon="3.24258">
        <ele>734.8</ele>
      </trkpt>
      <trkpt lat="44.11273" lon="3.24254">
        <ele>734.4</ele>
      </trkpt>
      <trkpt lat="44.1128" lon="3.2425">
        <ele>734.2</ele>
      </trkpt>
      <trkpt lat="44.11283" lon="3.24249">
        <ele>733.4</ele>
      </trkpt>
      <trkpt lat="44.11292" lon="3.24244">
        <ele>731.4</ele>
      </trkpt>
      <trkpt lat="44.11294" lon="3.24243">
        <ele>730.9</ele>
      </trkpt>
      <trkpt lat="44.11305" lon="3.24231">
        <ele>730</ele>
      </trkpt>
      <trkpt lat="44.11307" lon="3.24228">
        <ele>729.7</ele>
      </trkpt>
      <trkpt lat="44.11315" lon="3.24224">
        <ele>726.4</ele>
      </trkpt>
      <trkpt lat="44.11316" lon="3.24224">
        <ele>725.8</ele>
      </trkpt>
      <trkpt lat="44.11318" lon="3.24231">
        <ele>722.6</ele>
      </trkpt>
      <trkpt lat="44.11319" lon="3.24229">
        <ele>722.7</ele>
      </trkpt>
      <trkpt lat="44.11321" lon="3.24225">
        <ele>722.8</ele>
      </trkpt>
      <trkpt lat="44.11323" lon="3.24223">
        <ele>722.3</ele>
      </trkpt>
      <trkpt lat="44.11327" lon="3.24218">
        <ele>721.5</ele>
      </trkpt>
      <trkpt lat="44.1133" lon="3.24213">
        <ele>721.2</ele>
      </trkpt>
      <trkpt lat="44.11336" lon="3.24206">
        <ele>719.2</ele>
      </trkpt>
      <trkpt lat="44.11339" lon="3.24204">
        <ele>717.5</ele>
      </trkpt>
      <trkpt lat="44.11342" lon="3.24203">
        <ele>715.5</ele>
      </trkpt>
      <trkpt lat="44.11344" lon="3.24204">
        <ele>713.8</ele>
      </trkpt>
      <trkpt lat="44.11344" lon="3.2421">
        <ele>712.7</ele>
      </trkpt>
      <trkpt lat="44.11341" lon="3.24224">
        <ele>711.7</ele>
      </trkpt>
      <trkpt lat="44.11341" lon="3.24228">
        <ele>710.3</ele>
      </trkpt>
      <trkpt lat="44.11338" lon="3.24242">
        <ele>707.3</ele>
      </trkpt>
      <trkpt lat="44.11338" lon="3.24244">
        <ele>706.6</ele>
      </trkpt>
      <trkpt lat="44.11339" lon="3.24243">
        <ele>706.4</ele>
      </trkpt>
      <trkpt lat="44.11341" lon="3.24241">
        <ele>705.9</ele>
      </trkpt>
      <trkpt lat="44.11342" lon="3.24239">
        <ele>706</ele>
      </trkpt>
      <trkpt lat="44.11352" lon="3.24225">
        <ele>704.7</ele>
      </trkpt>
      <trkpt lat="44.11358" lon="3.24218">
        <ele>702.3</ele>
      </trkpt>
      <trkpt lat="44.11363" lon="3.24214">
        <ele>699.3</ele>
      </trkpt>
      <trkpt lat="44.11366" lon="3.24222">
        <ele>696.7</ele>
      </trkpt>
      <trkpt lat="44.11364" lon="3.24227">
        <ele>696.7</ele>
      </trkpt>
      <trkpt lat="44.11365" lon="3.24233">
        <ele>694.3</ele>
      </trkpt>
      <trkpt lat="44.11363" lon="3.24247">
        <ele>691.7</ele>
      </trkpt>
      <trkpt lat="44.11363" lon="3.2425">
        <ele>690.8</ele>
      </trkpt>
      <trkpt lat="44.11362" lon="3.24257">
        <ele>689.2</ele>
      </trkpt>
      <trkpt lat="44.11362" lon="3.24259">
        <ele>688.6</ele>
      </trkpt>
      <trkpt lat="44.11363" lon="3.24258">
        <ele>688.3</ele>
      </trkpt>
      <trkpt lat="44.11366" lon="3.24254">
        <ele>687.8</ele>
      </trkpt>
      <trkpt lat="44.11371" lon="3.24245">
        <ele>687.3</ele>
      </trkpt>
      <trkpt lat="44.11375" lon="3.24239">
        <ele>686.3</ele>
      </trkpt>
      <trkpt lat="44.11383" lon="3.24222">
        <ele>685</ele>
      </trkpt>
      <trkpt lat="44.11386" lon="3.24215">
        <ele>683</ele>
      </trkpt>
      <trkpt lat="44.11389" lon="3.24213">
        <ele>680.9</ele>
      </trkpt>
      <trkpt lat="44.1139" lon="3.24215">
        <ele>680.4</ele>
      </trkpt>
      <trkpt lat="44.11391" lon="3.24223">
        <ele>679.6</ele>
      </trkpt>
      <trkpt lat="44.11389" lon="3.24237">
        <ele>677.7</ele>
      </trkpt>
      <trkpt lat="44.11388" lon="3.24243">
        <ele>677.1</ele>
      </trkpt>
      <trkpt lat="44.1138" lon="3.2426">
        <ele>678.2</ele>
      </trkpt>
      <trkpt lat="44.11379" lon="3.24263">
        <ele>678</ele>
      </trkpt>
      <trkpt lat="44.11374" lon="3.24276">
        <ele>677.4</ele>
      </trkpt>
      <trkpt lat="44.1138" lon="3.24276">
        <ele>674.6</ele>
      </trkpt>
      <trkpt lat="44.1139" lon="3.24258">
        <ele>672.8</ele>
      </trkpt>
      <trkpt lat="44.11392" lon="3.24253">
        <ele>672.4</ele>
      </trkpt>
      <trkpt lat="44.114" lon="3.24237">
        <ele>671</ele>
      </trkpt>
      <trkpt lat="44.11403" lon="3.24233">
        <ele>670.1</ele>
      </trkpt>
      <trkpt lat="44.1141" lon="3.24225">
        <ele>668.1</ele>
      </trkpt>
      <trkpt lat="44.11414" lon="3.24227">
        <ele>665.2</ele>
      </trkpt>
      <trkpt lat="44.11413" lon="3.24234">
        <ele>663.8</ele>
      </trkpt>
      <trkpt lat="44.11413" lon="3.24239">
        <ele>662.4</ele>
      </trkpt>
      <trkpt lat="44.11412" lon="3.24243">
        <ele>662</ele>
      </trkpt>
      <trkpt lat="44.11412" lon="3.24246">
        <ele>661.1</ele>
      </trkpt>
      <trkpt lat="44.11413" lon="3.24244">
        <ele>661</ele>
      </trkpt>
      <trkpt lat="44.11416" lon="3.24238">
        <ele>660.9</ele>
      </trkpt>
      <trkpt lat="44.11421" lon="3.24233">
        <ele>659.6</ele>
      </trkpt>
      <trkpt lat="44.11424" lon="3.24229">
        <ele>659.1</ele>
      </trkpt>
      <trkpt lat="44.11428" lon="3.24226">
        <ele>657.8</ele>
      </trkpt>
      <trkpt lat="44.1143" lon="3.24231">
        <ele>655.3</ele>
      </trkpt>
      <trkpt lat="44.11429" lon="3.24235">
        <ele>654.7</ele>
      </trkpt>
      <trkpt lat="44.11422" lon="3.24254">
        <ele>653</ele>
      </trkpt>
      <trkpt lat="44.11421" lon="3.24258">
        <ele>652.5</ele>
      </trkpt>
      <trkpt lat="44.11419" lon="3.24276">
        <ele>648.9</ele>
      </trkpt>
      <trkpt lat="44.11418" lon="3.24281">
        <ele>649</ele>
      </trkpt>
      <trkpt lat="44.11419" lon="3.243">
        <ele>647.5</ele>
      </trkpt>
      <trkpt lat="44.11421" lon="3.24304">
        <ele>645.9</ele>
      </trkpt>
      <trkpt lat="44.11422" lon="3.24308">
        <ele>644.8</ele>
      </trkpt>
      <trkpt lat="44.11422" lon="3.24314">
        <ele>643.9</ele>
      </trkpt>
      <trkpt lat="44.1142" lon="3.24318">
        <ele>644.6</ele>
      </trkpt>
      <trkpt lat="44.11422" lon="3.24321">
        <ele>642.8</ele>
      </trkpt>
      <trkpt lat="44.11424" lon="3.24323">
        <ele>641.2</ele>
      </trkpt>
      <trkpt lat="44.11425" lon="3.24322">
        <ele>640.8</ele>
      </trkpt>
      <trkpt lat="44.11428" lon="3.24314">
        <ele>639.8</ele>
      </trkpt>
      <trkpt lat="44.1143" lon="3.2431">
        <ele>638.9</ele>
      </trkpt>
      <trkpt lat="44.11434" lon="3.24297">
        <ele>637</ele>
      </trkpt>
      <trkpt lat="44.11436" lon="3.2429">
        <ele>636</ele>
      </trkpt>
      <trkpt lat="44.11439" lon="3.24282">
        <ele>634.4</ele>
      </trkpt>
      <trkpt lat="44.11445" lon="3.24271">
        <ele>633.4</ele>
      </trkpt>
      <trkpt lat="44.11448" lon="3.24267">
        <ele>633.6</ele>
      </trkpt>
      <trkpt lat="44.11449" lon="3.24267">
        <ele>633.1</ele>
      </trkpt>
      <trkpt lat="44.1145" lon="3.24271">
        <ele>631</ele>
      </trkpt>
      <trkpt lat="44.1145" lon="3.24283">
        <ele>627.6</ele>
      </trkpt>
      <trkpt lat="44.11451" lon="3.2429">
        <ele>626.1</ele>
      </trkpt>
      <trkpt lat="44.11454" lon="3.2429">
        <ele>624.2</ele>
      </trkpt>
      <trkpt lat="44.11456" lon="3.24289">
        <ele>623.2</ele>
      </trkpt>
      <trkpt lat="44.11464" lon="3.24284">
        <ele>619.6</ele>
      </trkpt>
      <trkpt lat="44.11467" lon="3.24277">
        <ele>620</ele>
      </trkpt>
      <trkpt lat="44.11468" lon="3.24276">
        <ele>619.9</ele>
      </trkpt>
      <trkpt lat="44.11469" lon="3.24277">
        <ele>619</ele>
      </trkpt>
      <trkpt lat="44.11468" lon="3.24279">
        <ele>618.8</ele>
      </trkpt>
      <trkpt lat="44.11465" lon="3.2429">
        <ele>617.5</ele>
      </trkpt>
      <trkpt lat="44.11463" lon="3.24296">
        <ele>617.3</ele>
      </trkpt>
      <trkpt lat="44.11465" lon="3.24296">
        <ele>615.9</ele>
      </trkpt>
      <trkpt lat="44.11466" lon="3.24293">
        <ele>616.1</ele>
      </trkpt>
      <trkpt lat="44.11471" lon="3.24285">
        <ele>615.4</ele>
      </trkpt>
      <trkpt lat="44.11476" lon="3.24282">
        <ele>614.3</ele>
      </trkpt>
      <trkpt lat="44.11481" lon="3.2428">
        <ele>613.3</ele>
      </trkpt>
      <trkpt lat="44.11486" lon="3.24279">
        <ele>612.1</ele>
      </trkpt>
      <trkpt lat="44.11496" lon="3.24277">
        <ele>609.6</ele>
      </trkpt>
      <trkpt lat="44.11504" lon="3.24274">
        <ele>608.4</ele>
      </trkpt>
      <trkpt lat="44.11522" lon="3.24272">
        <ele>604.3</ele>
      </trkpt>
      <trkpt lat="44.11525" lon="3.24272">
        <ele>603.6</ele>
      </trkpt>
      <trkpt lat="44.11535" lon="3.24272">
        <ele>600.9</ele>
      </trkpt>
      <trkpt lat="44.11542" lon="3.24275">
        <ele>599.2</ele>
      </trkpt>
      <trkpt lat="44.11542" lon="3.24274">
        <ele>599.1</ele>
      </trkpt>
      <trkpt lat="44.11541" lon="3.2427">
        <ele>599.1</ele>
      </trkpt>
      <trkpt lat="44.11541" lon="3.24266">
        <ele>598.9</ele>
      </trkpt>
      <trkpt lat="44.1154" lon="3.2426">
        <ele>599</ele>
      </trkpt>
      <trkpt lat="44.11542" lon="3.24253">
        <ele>597.5</ele>
      </trkpt>
      <trkpt lat="44.11543" lon="3.24254">
        <ele>597.1</ele>
      </trkpt>
      <trkpt lat="44.11545" lon="3.24256">
        <ele>596.2</ele>
      </trkpt>
      <trkpt lat="44.11551" lon="3.24259">
        <ele>593.7</ele>
      </trkpt>
      <trkpt lat="44.11563" lon="3.24265">
        <ele>590.5</ele>
      </trkpt>
      <trkpt lat="44.11568" lon="3.24269">
        <ele>589.7</ele>
      </trkpt>
      <trkpt lat="44.1157" lon="3.24272">
        <ele>589.7</ele>
      </trkpt>
      <trkpt lat="44.11573" lon="3.24274">
        <ele>589.1</ele>
      </trkpt>
      <trkpt lat="44.11583" lon="3.24283">
        <ele>585.5</ele>
      </trkpt>
      <trkpt lat="44.11586" lon="3.24286">
        <ele>584.4</ele>
      </trkpt>
      <trkpt lat="44.11601" lon="3.24295">
        <ele>580.5</ele>
      </trkpt>
      <trkpt lat="44.11604" lon="3.24297">
        <ele>580.1</ele>
      </trkpt>
      <trkpt lat="44.11615" lon="3.24308">
        <ele>578.2</ele>
      </trkpt>
      <trkpt lat="44.11617" lon="3.24307">
        <ele>578</ele>
      </trkpt>
      <trkpt lat="44.11627" lon="3.24306">
        <ele>575.9</ele>
      </trkpt>
      <trkpt lat="44.11633" lon="3.24312">
        <ele>572.7</ele>
      </trkpt>
      <trkpt lat="44.11635" lon="3.24314">
        <ele>571.7</ele>
      </trkpt>
      <trkpt lat="44.11642" lon="3.24314">
        <ele>569.2</ele>
      </trkpt>
      <trkpt lat="44.11644" lon="3.24306">
        <ele>569.8</ele>
      </trkpt>
      <trkpt lat="44.11649" lon="3.24305">
        <ele>566.6</ele>
      </trkpt>
      <trkpt lat="44.11655" lon="3.24318">
        <ele>562.1</ele>
      </trkpt>
      <trkpt lat="44.11653" lon="3.24328">
        <ele>562</ele>
      </trkpt>
      <trkpt lat="44.11651" lon="3.24329">
        <ele>562.6</ele>
      </trkpt>
      <trkpt lat="44.11649" lon="3.24335">
        <ele>561.6</ele>
      </trkpt>
      <trkpt lat="44.11654" lon="3.24334">
        <ele>560.7</ele>
      </trkpt>
      <trkpt lat="44.11657" lon="3.24333">
        <ele>560.2</ele>
      </trkpt>
      <trkpt lat="44.1166" lon="3.24333">
        <ele>559.2</ele>
      </trkpt>
      <trkpt lat="44.1167" lon="3.24327">
        <ele>555</ele>
      </trkpt>
      <trkpt lat="44.11672" lon="3.24322">
        <ele>553.7</ele>
      </trkpt>
      <trkpt lat="44.11673" lon="3.24316">
        <ele>552.8</ele>
      </trkpt>
      <trkpt lat="44.11669" lon="3.24306">
        <ele>554.6</ele>
      </trkpt>
      <trkpt lat="44.11667" lon="3.24303">
        <ele>554.8</ele>
      </trkpt>
      <trkpt lat="44.11666" lon="3.24301">
        <ele>554.6</ele>
      </trkpt>
      <trkpt lat="44.11668" lon="3.24304">
        <ele>554.6</ele>
      </trkpt>
      <trkpt lat="44.1167" lon="3.24304">
        <ele>553.4</ele>
      </trkpt>
      <trkpt lat="44.11684" lon="3.24309">
        <ele>545.7</ele>
      </trkpt>
      <trkpt lat="44.1169" lon="3.24314">
        <ele>542.8</ele>
      </trkpt>
      <trkpt lat="44.11696" lon="3.24319">
        <ele>540.2</ele>
      </trkpt>
      <trkpt lat="44.11706" lon="3.2433">
        <ele>537</ele>
      </trkpt>
      <trkpt lat="44.11712" lon="3.24329">
        <ele>534</ele>
      </trkpt>
      <trkpt lat="44.11713" lon="3.24327">
        <ele>533.1</ele>
      </trkpt>
      <trkpt lat="44.11709" lon="3.24316">
        <ele>533</ele>
      </trkpt>
      <trkpt lat="44.11707" lon="3.24313">
        <ele>533.5</ele>
      </trkpt>
      <trkpt lat="44.11702" lon="3.24303">
        <ele>534</ele>
      </trkpt>
      <trkpt lat="44.11694" lon="3.24293">
        <ele>534.7</ele>
      </trkpt>
      <trkpt lat="44.11695" lon="3.24287">
        <ele>532</ele>
      </trkpt>
      <trkpt lat="44.11697" lon="3.2429">
        <ele>532.1</ele>
      </trkpt>
      <trkpt lat="44.11703" lon="3.24293">
        <ele>530</ele>
      </trkpt>
      <trkpt lat="44.11707" lon="3.24298">
        <ele>529.6</ele>
      </trkpt>
      <trkpt lat="44.11713" lon="3.24303">
        <ele>528.1</ele>
      </trkpt>
      <trkpt lat="44.11723" lon="3.24312">
        <ele>525</ele>
      </trkpt>
      <trkpt lat="44.11735" lon="3.24323">
        <ele>522.2</ele>
      </trkpt>
      <trkpt lat="44.11738" lon="3.24326">
        <ele>521.7</ele>
      </trkpt>
      <trkpt lat="44.11743" lon="3.24333">
        <ele>521.7</ele>
      </trkpt>
      <trkpt lat="44.11745" lon="3.24335">
        <ele>520.8</ele>
      </trkpt>
      <trkpt lat="44.11752" lon="3.24343">
        <ele>517.3</ele>
      </trkpt>
      <trkpt lat="44.11754" lon="3.24346">
        <ele>516.1</ele>
      </trkpt>
      <trkpt lat="44.11755" lon="3.2435">
        <ele>515.4</ele>
      </trkpt>
      <trkpt lat="44.11752" lon="3.24361">
        <ele>516.1</ele>
      </trkpt>
      <trkpt lat="44.1175" lon="3.24364">
        <ele>516</ele>
      </trkpt>
      <trkpt lat="44.11748" lon="3.24367">
        <ele>515.5</ele>
      </trkpt>
      <trkpt lat="44.11745" lon="3.24372">
        <ele>514.6</ele>
      </trkpt>
      <trkpt lat="44.11747" lon="3.24372">
        <ele>514</ele>
      </trkpt>
      <trkpt lat="44.11752" lon="3.2437">
        <ele>513</ele>
      </trkpt>
      <trkpt lat="44.11759" lon="3.24365">
        <ele>511.6</ele>
      </trkpt>
      <trkpt lat="44.1177" lon="3.24356">
        <ele>507.9</ele>
      </trkpt>
      <trkpt lat="44.11776" lon="3.24356">
        <ele>505</ele>
      </trkpt>
      <trkpt lat="44.11777" lon="3.24358">
        <ele>504.5</ele>
      </trkpt>
      <trkpt lat="44.11776" lon="3.24361">
        <ele>504.8</ele>
      </trkpt>
      <trkpt lat="44.11773" lon="3.24374">
        <ele>503.1</ele>
      </trkpt>
      <trkpt lat="44.1177" lon="3.24378">
        <ele>503.3</ele>
      </trkpt>
      <trkpt lat="44.11768" lon="3.24382">
        <ele>503</ele>
      </trkpt>
      <trkpt lat="44.1176" lon="3.24395">
        <ele>501.2</ele>
      </trkpt>
      <trkpt lat="44.1176" lon="3.24397">
        <ele>500.4</ele>
      </trkpt>
      <trkpt lat="44.11764" lon="3.24398">
        <ele>498.9</ele>
      </trkpt>
      <trkpt lat="44.11771" lon="3.24396">
        <ele>497.6</ele>
      </trkpt>
      <trkpt lat="44.11779" lon="3.24391">
        <ele>496.8</ele>
      </trkpt>
      <trkpt lat="44.11783" lon="3.24388">
        <ele>496.1</ele>
      </trkpt>
      <trkpt lat="44.11797" lon="3.24373">
        <ele>493.4</ele>
      </trkpt>
      <trkpt lat="44.11811" lon="3.24355">
        <ele>490</ele>
      </trkpt>
      <trkpt lat="44.11821" lon="3.24351">
        <ele>486.1</ele>
      </trkpt>
      <trkpt lat="44.11826" lon="3.24348">
        <ele>484.3</ele>
      </trkpt>
      <trkpt lat="44.11827" lon="3.24348">
        <ele>483.9</ele>
      </trkpt>
      <trkpt lat="44.11829" lon="3.2435">
        <ele>482.9</ele>
      </trkpt>
      <trkpt lat="44.11836" lon="3.2435">
        <ele>480.2</ele>
      </trkpt>
      <trkpt lat="44.11838" lon="3.24349">
        <ele>479.6</ele>
      </trkpt>
      <trkpt lat="44.11846" lon="3.24344">
        <ele>477.3</ele>
      </trkpt>
      <trkpt lat="44.11857" lon="3.24347">
        <ele>473</ele>
      </trkpt>
      <trkpt lat="44.11864" lon="3.24351">
        <ele>468.3</ele>
      </trkpt>
      <trkpt lat="44.1187" lon="3.24364">
        <ele>461</ele>
      </trkpt>
      <trkpt lat="44.1187" lon="3.2437">
        <ele>460.3</ele>
      </trkpt>
      <trkpt lat="44.11868" lon="3.24373">
        <ele>461.6</ele>
      </trkpt>
      <trkpt lat="44.11869" lon="3.24375">
        <ele>460.5</ele>
      </trkpt>
      <trkpt lat="44.11869" lon="3.24378">
        <ele>460.1</ele>
      </trkpt>
      <trkpt lat="44.1187" lon="3.24391">
        <ele>457.6</ele>
      </trkpt>
      <trkpt lat="44.1187" lon="3.24397">
        <ele>455.8</ele>
      </trkpt>
      <trkpt lat="44.1187" lon="3.24399">
        <ele>455.2</ele>
      </trkpt>
      <trkpt lat="44.11869" lon="3.24402">
        <ele>454.8</ele>
      </trkpt>
      <trkpt lat="44.11873" lon="3.244">
        <ele>453.3</ele>
      </trkpt>
      <trkpt lat="44.11883" lon="3.24391">
        <ele>450.6</ele>
      </trkpt>
      <trkpt lat="44.11886" lon="3.24402">
        <ele>446.2</ele>
      </trkpt>
      <trkpt lat="44.11885" lon="3.24412">
        <ele>444</ele>
      </trkpt>
      <trkpt lat="44.11884" lon="3.24416">
        <ele>443.5</ele>
      </trkpt>
      <trkpt lat="44.11883" lon="3.24419">
        <ele>442.7</ele>
      </trkpt>
      <trkpt lat="44.11885" lon="3.24422">
        <ele>440.3</ele>
      </trkpt>
      <trkpt lat="44.11893" lon="3.24417">
        <ele>436.6</ele>
      </trkpt>
      <trkpt lat="44.11892" lon="3.24428">
        <ele>432.6</ele>
      </trkpt>
      <trkpt lat="44.11885" lon="3.24437">
        <ele>433.2</ele>
      </trkpt>
      <trkpt lat="44.11883" lon="3.24442">
        <ele>432.1</ele>
      </trkpt>
      <trkpt lat="44.11881" lon="3.24455">
        <ele>428.7</ele>
      </trkpt>
      <trkpt lat="44.11879" lon="3.24458">
        <ele>428.9</ele>
      </trkpt>
      <trkpt lat="44.11876" lon="3.24463">
        <ele>428.9</ele>
      </trkpt>
      <trkpt lat="44.11877" lon="3.24465">
        <ele>427.5</ele>
      </trkpt>
      <trkpt lat="44.11881" lon="3.24465">
        <ele>425.1</ele>
      </trkpt>
      <trkpt lat="44.11887" lon="3.24455">
        <ele>424.8</ele>
      </trkpt>
      <trkpt lat="44.11891" lon="3.2445">
        <ele>424</ele>
      </trkpt>
      <trkpt lat="44.11896" lon="3.24441">
        <ele>424.2</ele>
      </trkpt>
      <trkpt lat="44.11904" lon="3.24427">
        <ele>422.6</ele>
      </trkpt>
      <trkpt lat="44.11909" lon="3.2442">
        <ele>419.5</ele>
      </trkpt>
      <trkpt lat="44.11913" lon="3.2442">
        <ele>415.5</ele>
      </trkpt>
      <trkpt lat="44.11915" lon="3.24425">
        <ele>413.2</ele>
      </trkpt>
      <trkpt lat="44.11915" lon="3.24429">
        <ele>412.9</ele>
      </trkpt>
      <trkpt lat="44.11915" lon="3.24443">
        <ele>412.1</ele>
      </trkpt>
      <trkpt lat="44.11913" lon="3.24453">
        <ele>410.6</ele>
      </trkpt>
      <trkpt lat="44.11906" lon="3.24473">
        <ele>408.6</ele>
      </trkpt>
      <trkpt lat="44.11911" lon="3.24477">
        <ele>405.6</ele>
      </trkpt>
      <trkpt lat="44.11918" lon="3.24484">
        <ele>403.3</ele>
        <extensions>
          <visugpx:TrkExtension xmlns:visugpx="https://www.visugpx.com/editgpx/">
            <visugpx:node>3</visugpx:node>
            </visugpx:TrkExtension>
        </extensions>
      </trkpt>
      <trkpt lat="44.11922" lon="3.24487">
        <ele>404.2</ele>
      </trkpt>
      <trkpt lat="44.11924" lon="3.24489">
        <ele>404.6</ele>
      </trkpt>
      <trkpt lat="44.11931" lon="3.24493">
        <ele>406.4</ele>
      </trkpt>
      <trkpt lat="44.11939" lon="3.24496">
        <ele>408.4</ele>
      </trkpt>
      <trkpt lat="44.11946" lon="3.24498">
        <ele>410</ele>
      </trkpt>
      <trkpt lat="44.11949" lon="3.24499">
        <ele>410.4</ele>
      </trkpt>
      <trkpt lat="44.11951" lon="3.24501">
        <ele>410.8</ele>
      </trkpt>
      <trkpt lat="44.11952" lon="3.24504">
        <ele>411</ele>
      </trkpt>
      <trkpt lat="44.11952" lon="3.24507">
        <ele>411.2</ele>
      </trkpt>
      <trkpt lat="44.11951" lon="3.24515">
        <ele>411.5</ele>
      </trkpt>
      <trkpt lat="44.1195" lon="3.24523">
        <ele>411.8</ele>
      </trkpt>
      <trkpt lat="44.11949" lon="3.24532">
        <ele>411.9</ele>
      </trkpt>
      <trkpt lat="44.11949" lon="3.24535">
        <ele>411.9</ele>
      </trkpt>
      <trkpt lat="44.11949" lon="3.24538">
        <ele>411.9</ele>
      </trkpt>
      <trkpt lat="44.11951" lon="3.2454">
        <ele>412.4</ele>
      </trkpt>
      <trkpt lat="44.11953" lon="3.24542">
        <ele>412.9</ele>
      </trkpt>
      <trkpt lat="44.11956" lon="3.24546">
        <ele>413.6</ele>
      </trkpt>
      <trkpt lat="44.11961" lon="3.24549">
        <ele>414.9</ele>
      </trkpt>
      <trkpt lat="44.1196" lon="3.24551">
        <ele>414.7</ele>
      </trkpt>
      <trkpt lat="44.11959" lon="3.24553">
        <ele>414.6</ele>
      </trkpt>
      <trkpt lat="44.11955" lon="3.24559">
        <ele>413.7</ele>
      </trkpt>
      <trkpt lat="44.11951" lon="3.24566">
        <ele>413</ele>
      </trkpt>
      <trkpt lat="44.11947" lon="3.2457">
        <ele>412.4</ele>
      </trkpt>
      <trkpt lat="44.11943" lon="3.24574">
        <ele>412.3</ele>
      </trkpt>
      <trkpt lat="44.11938" lon="3.24578">
        <ele>412.6</ele>
      </trkpt>
      <trkpt lat="44.11934" lon="3.24581">
        <ele>412.8</ele>
      </trkpt>
      <trkpt lat="44.11932" lon="3.24582">
        <ele>412.9</ele>
      </trkpt>
      <trkpt lat="44.11927" lon="3.24585">
        <ele>413.4</ele>
      </trkpt>
      <trkpt lat="44.11917" lon="3.24589">
        <ele>414.8</ele>
      </trkpt>
      <trkpt lat="44.11902" lon="3.24595">
        <ele>414.7</ele>
      </trkpt>
      <trkpt lat="44.11889" lon="3.24599">
        <ele>414.9</ele>
      </trkpt>
      <trkpt lat="44.11874" lon="3.24605">
        <ele>415.1</ele>
      </trkpt>
      <trkpt lat="44.11866" lon="3.24608">
        <ele>414.8</ele>
      </trkpt>
      <trkpt lat="44.11858" lon="3.24609">
        <ele>414.1</ele>
      </trkpt>
      <trkpt lat="44.1185" lon="3.24611">
        <ele>414.6</ele>
      </trkpt>
      <trkpt lat="44.1184" lon="3.24612">
        <ele>414.7</ele>
      </trkpt>
      <trkpt lat="44.11838" lon="3.24614">
        <ele>415.7</ele>
      </trkpt>
      <trkpt lat="44.11836" lon="3.24616">
        <ele>416.6</ele>
      </trkpt>
      <trkpt lat="44.11829" lon="3.24619">
        <ele>417.8</ele>
      </trkpt>
      <trkpt lat="44.11817" lon="3.24623">
        <ele>419.2</ele>
      </trkpt>
      <trkpt lat="44.11805" lon="3.24626">
        <ele>419.9</ele>
      </trkpt>
      <trkpt lat="44.11794" lon="3.24629">
        <ele>419.7</ele>
      </trkpt>
      <trkpt lat="44.11786" lon="3.24634">
        <ele>420.9</ele>
      </trkpt>
      <trkpt lat="44.11778" lon="3.2464">
        <ele>422.5</ele>
      </trkpt>
      <trkpt lat="44.11767" lon="3.24648">
        <ele>423.1</ele>
      </trkpt>
      <trkpt lat="44.11757" lon="3.24656">
        <ele>423.7</ele>
      </trkpt>
      <trkpt lat="44.11752" lon="3.24662">
        <ele>424.7</ele>
      </trkpt>
      <trkpt lat="44.11748" lon="3.24667">
        <ele>425.6</ele>
      </trkpt>
      <trkpt lat="44.11743" lon="3.24672">
        <ele>426.1</ele>
      </trkpt>
      <trkpt lat="44.11738" lon="3.24678">
        <ele>426.7</ele>
      </trkpt>
      <trkpt lat="44.11729" lon="3.24694">
        <ele>429.1</ele>
      </trkpt>
      <trkpt lat="44.11722" lon="3.24705">
        <ele>429.6</ele>
      </trkpt>
      <trkpt lat="44.11717" lon="3.24716">
        <ele>431.2</ele>
      </trkpt>
      <trkpt lat="44.11716" lon="3.24721">
        <ele>432.3</ele>
      </trkpt>
      <trkpt lat="44.11715" lon="3.24725">
        <ele>433.2</ele>
      </trkpt>
      <trkpt lat="44.11716" lon="3.24728">
        <ele>434.3</ele>
      </trkpt>
      <trkpt lat="44.11718" lon="3.24729">
        <ele>435</ele>
      </trkpt>
      <trkpt lat="44.11721" lon="3.24728">
        <ele>435.4</ele>
      </trkpt>
      <trkpt lat="44.11726" lon="3.24722">
        <ele>435.7</ele>
      </trkpt>
      <trkpt lat="44.11729" lon="3.24718">
        <ele>436</ele>
      </trkpt>
      <trkpt lat="44.11731" lon="3.24715">
        <ele>436</ele>
      </trkpt>
      <trkpt lat="44.11734" lon="3.24711">
        <ele>436</ele>
      </trkpt>
      <trkpt lat="44.11742" lon="3.24704">
        <ele>436.8</ele>
      </trkpt>
      <trkpt lat="44.11751" lon="3.24697">
        <ele>437.3</ele>
      </trkpt>
      <trkpt lat="44.11762" lon="3.24692">
        <ele>439</ele>
      </trkpt>
      <trkpt lat="44.11777" lon="3.24686">
        <ele>441.4</ele>
      </trkpt>
      <trkpt lat="44.11794" lon="3.24681">
        <ele>443.2</ele>
      </trkpt>
      <trkpt lat="44.11801" lon="3.24679">
        <ele>443.9</ele>
      </trkpt>
      <trkpt lat="44.11802" lon="3.24679">
        <ele>444.1</ele>
      </trkpt>
      <trkpt lat="44.11803" lon="3.2468">
        <ele>444.7</ele>
      </trkpt>
      <trkpt lat="44.11802" lon="3.24682">
        <ele>445.3</ele>
      </trkpt>
      <trkpt lat="44.11799" lon="3.24685">
        <ele>445.8</ele>
      </trkpt>
      <trkpt lat="44.11792" lon="3.2469">
        <ele>446.3</ele>
      </trkpt>
      <trkpt lat="44.11782" lon="3.24698">
        <ele>447.3</ele>
      </trkpt>
      <trkpt lat="44.11773" lon="3.24706">
        <ele>448</ele>
      </trkpt>
      <trkpt lat="44.11765" lon="3.24717">
        <ele>449.8</ele>
      </trkpt>
      <trkpt lat="44.11757" lon="3.24727">
        <ele>451</ele>
      </trkpt>
      <trkpt lat="44.11749" lon="3.2474">
        <ele>452.9</ele>
      </trkpt>
      <trkpt lat="44.11743" lon="3.24751">
        <ele>453.6</ele>
      </trkpt>
      <trkpt lat="44.11739" lon="3.24761">
        <ele>456.1</ele>
      </trkpt>
      <trkpt lat="44.11735" lon="3.24769">
        <ele>458.3</ele>
      </trkpt>
      <trkpt lat="44.11732" lon="3.24773">
        <ele>459.3</ele>
      </trkpt>
      <trkpt lat="44.1173" lon="3.24775">
        <ele>459.7</ele>
      </trkpt>
      <trkpt lat="44.11727" lon="3.24776">
        <ele>459.4</ele>
      </trkpt>
      <trkpt lat="44.11722" lon="3.24776">
        <ele>457.9</ele>
      </trkpt>
      <trkpt lat="44.11719" lon="3.24777">
        <ele>457.9</ele>
      </trkpt>
      <trkpt lat="44.11719" lon="3.24779">
        <ele>459.1</ele>
      </trkpt>
      <trkpt lat="44.1172" lon="3.2478">
        <ele>459.9</ele>
      </trkpt>
      <trkpt lat="44.11726" lon="3.24781">
        <ele>461.8</ele>
      </trkpt>
      <trkpt lat="44.1173" lon="3.24782">
        <ele>463.4</ele>
      </trkpt>
      <trkpt lat="44.11733" lon="3.24781">
        <ele>463.7</ele>
      </trkpt>
      <trkpt lat="44.11736" lon="3.24779">
        <ele>463.6</ele>
      </trkpt>
      <trkpt lat="44.11744" lon="3.2477">
        <ele>462</ele>
      </trkpt>
      <trkpt lat="44.1175" lon="3.24763">
        <ele>461.7</ele>
      </trkpt>
      <trkpt lat="44.1176" lon="3.24757">
        <ele>462.8</ele>
      </trkpt>
      <trkpt lat="44.11772" lon="3.24749">
        <ele>463.8</ele>
      </trkpt>
      <trkpt lat="44.11787" lon="3.24743">
        <ele>466.1</ele>
      </trkpt>
      <trkpt lat="44.11801" lon="3.24735">
        <ele>466.8</ele>
      </trkpt>
      <trkpt lat="44.11805" lon="3.24732">
        <ele>466.7</ele>
      </trkpt>
      <trkpt lat="44.11807" lon="3.24731">
        <ele>466.9</ele>
      </trkpt>
      <trkpt lat="44.11809" lon="3.24731">
        <ele>467.4</ele>
      </trkpt>
      <trkpt lat="44.11809" lon="3.24732">
        <ele>467.8</ele>
      </trkpt>
      <trkpt lat="44.11809" lon="3.24734">
        <ele>468.6</ele>
      </trkpt>
      <trkpt lat="44.11809" lon="3.24736">
        <ele>469.4</ele>
      </trkpt>
      <trkpt lat="44.11805" lon="3.24739">
        <ele>469.5</ele>
      </trkpt>
      <trkpt lat="44.11796" lon="3.24748">
        <ele>470.5</ele>
      </trkpt>
      <trkpt lat="44.1179" lon="3.24754">
        <ele>471</ele>
      </trkpt>
      <trkpt lat="44.11779" lon="3.24768">
        <ele>472.9</ele>
      </trkpt>
      <trkpt lat="44.11769" lon="3.2478">
        <ele>474.1</ele>
      </trkpt>
      <trkpt lat="44.11759" lon="3.24791">
        <ele>475.5</ele>
      </trkpt>
      <trkpt lat="44.11741" lon="3.24808">
        <ele>478.6</ele>
      </trkpt>
      <trkpt lat="44.11735" lon="3.24814">
        <ele>480.4</ele>
      </trkpt>
      <trkpt lat="44.1173" lon="3.24816">
        <ele>480.4</ele>
      </trkpt>
      <trkpt lat="44.11728" lon="3.24817">
        <ele>480.5</ele>
      </trkpt>
      <trkpt lat="44.11724" lon="3.24817">
        <ele>479.7</ele>
      </trkpt>
      <trkpt lat="44.11718" lon="3.24815">
        <ele>478.8</ele>
      </trkpt>
      <trkpt lat="44.11713" lon="3.24813">
        <ele>478.4</ele>
      </trkpt>
      <trkpt lat="44.11709" lon="3.24813">
        <ele>478.8</ele>
      </trkpt>
      <trkpt lat="44.11705" lon="3.24816">
        <ele>480.1</ele>
      </trkpt>
      <trkpt lat="44.11697" lon="3.24823">
        <ele>482.1</ele>
      </trkpt>
      <trkpt lat="44.11686" lon="3.24836">
        <ele>482.7</ele>
      </trkpt>
      <trkpt lat="44.11678" lon="3.24844">
        <ele>483.2</ele>
      </trkpt>
      <trkpt lat="44.11674" lon="3.24848">
        <ele>483.5</ele>
      </trkpt>
      <trkpt lat="44.11672" lon="3.24849">
        <ele>483.3</ele>
      </trkpt>
      <trkpt lat="44.11673" lon="3.24851">
        <ele>484.2</ele>
      </trkpt>
      <trkpt lat="44.11674" lon="3.24853">
        <ele>485</ele>
      </trkpt>
      <trkpt lat="44.11676" lon="3.24853">
        <ele>485.5</ele>
      </trkpt>
      <trkpt lat="44.1168" lon="3.24852">
        <ele>486.1</ele>
      </trkpt>
      <trkpt lat="44.11693" lon="3.24845">
        <ele>487</ele>
      </trkpt>
      <trkpt lat="44.11699" lon="3.24842">
        <ele>487.1</ele>
      </trkpt>
      <trkpt lat="44.11703" lon="3.24841">
        <ele>487.3</ele>
      </trkpt>
      <trkpt lat="44.1171" lon="3.24841">
        <ele>488.2</ele>
      </trkpt>
      <trkpt lat="44.11714" lon="3.24842">
        <ele>489</ele>
      </trkpt>
      <trkpt lat="44.11719" lon="3.24842">
        <ele>489.7</ele>
      </trkpt>
      <trkpt lat="44.11729" lon="3.2484">
        <ele>490.9</ele>
      </trkpt>
      <trkpt lat="44.11742" lon="3.24836">
        <ele>492.2</ele>
      </trkpt>
      <trkpt lat="44.1176" lon="3.24829">
        <ele>493.4</ele>
      </trkpt>
      <trkpt lat="44.11778" lon="3.24824">
        <ele>495.7</ele>
      </trkpt>
      <trkpt lat="44.1179" lon="3.2482">
        <ele>497.5</ele>
      </trkpt>
      <trkpt lat="44.118" lon="3.24815">
        <ele>498.3</ele>
      </trkpt>
      <trkpt lat="44.11811" lon="3.24809">
        <ele>498.9</ele>
      </trkpt>
      <trkpt lat="44.11828" lon="3.24804">
        <ele>501</ele>
      </trkpt>
      <trkpt lat="44.11845" lon="3.24798">
        <ele>502.9</ele>
      </trkpt>
      <trkpt lat="44.11871" lon="3.2479">
        <ele>506</ele>
      </trkpt>
      <trkpt lat="44.11886" lon="3.24786">
        <ele>507.6</ele>
      </trkpt>
      <trkpt lat="44.11897" lon="3.24784">
        <ele>508</ele>
      </trkpt>
      <trkpt lat="44.11908" lon="3.24786">
        <ele>509.6</ele>
      </trkpt>
      <trkpt lat="44.11916" lon="3.24788">
        <ele>511</ele>
      </trkpt>
      <trkpt lat="44.11925" lon="3.24793">
        <ele>511.2</ele>
      </trkpt>
      <trkpt lat="44.11933" lon="3.248">
        <ele>511.9</ele>
      </trkpt>
      <trkpt lat="44.11939" lon="3.24807">
        <ele>512.8</ele>
      </trkpt>
      <trkpt lat="44.11944" lon="3.24817">
        <ele>514</ele>
      </trkpt>
      <trkpt lat="44.11946" lon="3.24824">
        <ele>514.6</ele>
      </trkpt>
      <trkpt lat="44.11947" lon="3.24832">
        <ele>516.1</ele>
      </trkpt>
      <trkpt lat="44.11948" lon="3.24842">
        <ele>517.4</ele>
      </trkpt>
      <trkpt lat="44.1195" lon="3.24855">
        <ele>519.1</ele>
      </trkpt>
      <trkpt lat="44.11951" lon="3.2486">
        <ele>519.9</ele>
      </trkpt>
      <trkpt lat="44.11955" lon="3.24869">
        <ele>520.4</ele>
      </trkpt>
      <trkpt lat="44.11959" lon="3.24875">
        <ele>520.6</ele>
      </trkpt>
      <trkpt lat="44.11962" lon="3.24878">
        <ele>520.5</ele>
      </trkpt>
      <trkpt lat="44.11965" lon="3.24879">
        <ele>520.1</ele>
      </trkpt>
      <trkpt lat="44.1197" lon="3.24879">
        <ele>519</ele>
      </trkpt>
      <trkpt lat="44.11973" lon="3.24877">
        <ele>518.3</ele>
      </trkpt>
      <trkpt lat="44.11976" lon="3.24873">
        <ele>518.5</ele>
      </trkpt>
      <trkpt lat="44.1198" lon="3.24869">
        <ele>518.8</ele>
      </trkpt>
      <trkpt lat="44.11986" lon="3.24863">
        <ele>519.1</ele>
      </trkpt>
      <trkpt lat="44.11991" lon="3.2486">
        <ele>519.6</ele>
      </trkpt>
      <trkpt lat="44.12" lon="3.24856">
        <ele>520.6</ele>
      </trkpt>
      <trkpt lat="44.1201" lon="3.24854">
        <ele>520.6</ele>
      </trkpt>
      <trkpt lat="44.12018" lon="3.24853">
        <ele>520.8</ele>
      </trkpt>
      <trkpt lat="44.12028" lon="3.24853">
        <ele>521.6</ele>
      </trkpt>
      <trkpt lat="44.12033" lon="3.24854">
        <ele>521.4</ele>
      </trkpt>
      <trkpt lat="44.12041" lon="3.24856">
        <ele>521.3</ele>
      </trkpt>
      <trkpt lat="44.12047" lon="3.24858">
        <ele>521.6</ele>
      </trkpt>
      <trkpt lat="44.12057" lon="3.24862">
        <ele>522.5</ele>
      </trkpt>
      <trkpt lat="44.1207" lon="3.24865">
        <ele>523.7</ele>
      </trkpt>
      <trkpt lat="44.12077" lon="3.24866">
        <ele>523.9</ele>
      </trkpt>
      <trkpt lat="44.12085" lon="3.24865">
        <ele>523.6</ele>
      </trkpt>
      <trkpt lat="44.12091" lon="3.24865">
        <ele>525.4</ele>
      </trkpt>
      <trkpt lat="44.12097" lon="3.24863">
        <ele>526.2</ele>
      </trkpt>
      <trkpt lat="44.121" lon="3.24861">
        <ele>526.4</ele>
      </trkpt>
      <trkpt lat="44.12101" lon="3.24858">
        <ele>525.9</ele>
      </trkpt>
      <trkpt lat="44.12103" lon="3.24854">
        <ele>525.6</ele>
      </trkpt>
      <trkpt lat="44.12106" lon="3.24848">
        <ele>525.5</ele>
      </trkpt>
      <trkpt lat="44.1211" lon="3.24837">
        <ele>525.1</ele>
      </trkpt>
      <trkpt lat="44.12114" lon="3.24828">
        <ele>527.3</ele>
      </trkpt>
      <trkpt lat="44.12117" lon="3.24818">
        <ele>529.5</ele>
      </trkpt>
      <trkpt lat="44.12119" lon="3.24813">
        <ele>531</ele>
      </trkpt>
      <trkpt lat="44.12119" lon="3.24805">
        <ele>531</ele>
      </trkpt>
      <trkpt lat="44.12118" lon="3.24782">
        <ele>531.1</ele>
      </trkpt>
      <trkpt lat="44.12117" lon="3.24756">
        <ele>533</ele>
      </trkpt>
      <trkpt lat="44.12115" lon="3.24738">
        <ele>533.6</ele>
      </trkpt>
      <trkpt lat="44.12114" lon="3.24724">
        <ele>534.6</ele>
      </trkpt>
      <trkpt lat="44.12112" lon="3.24716">
        <ele>534.2</ele>
      </trkpt>
      <trkpt lat="44.1211" lon="3.24707">
        <ele>533.9</ele>
      </trkpt>
      <trkpt lat="44.1211" lon="3.24699">
        <ele>534.8</ele>
      </trkpt>
      <trkpt lat="44.12111" lon="3.24686">
        <ele>535.6</ele>
      </trkpt>
      <trkpt lat="44.12113" lon="3.24678">
        <ele>536.1</ele>
      </trkpt>
      <trkpt lat="44.12115" lon="3.24673">
        <ele>536.4</ele>
      </trkpt>
      <trkpt lat="44.12117" lon="3.24669">
        <ele>536.7</ele>
      </trkpt>
      <trkpt lat="44.12121" lon="3.24664">
        <ele>537</ele>
      </trkpt>
      <trkpt lat="44.12128" lon="3.24659">
        <ele>537.8</ele>
      </trkpt>
      <trkpt lat="44.12137" lon="3.24652">
        <ele>538.4</ele>
      </trkpt>
      <trkpt lat="44.12147" lon="3.24646">
        <ele>539.7</ele>
      </trkpt>
      <trkpt lat="44.12158" lon="3.2464">
        <ele>541.1</ele>
      </trkpt>
      <trkpt lat="44.12164" lon="3.24637">
        <ele>541.9</ele>
      </trkpt>
      <trkpt lat="44.12175" lon="3.2463">
        <ele>543</ele>
      </trkpt>
      <trkpt lat="44.12187" lon="3.24624">
        <ele>544.3</ele>
      </trkpt>
      <trkpt lat="44.12199" lon="3.24619">
        <ele>545.5</ele>
      </trkpt>
      <trkpt lat="44.12212" lon="3.24613">
        <ele>546.4</ele>
      </trkpt>
      <trkpt lat="44.12224" lon="3.24608">
        <ele>547.2</ele>
      </trkpt>
      <trkpt lat="44.12239" lon="3.24605">
        <ele>548.3</ele>
      </trkpt>
      <trkpt lat="44.12248" lon="3.24605">
        <ele>549.5</ele>
      </trkpt>
      <trkpt lat="44.12255" lon="3.24605">
        <ele>550.2</ele>
      </trkpt>
      <trkpt lat="44.1227" lon="3.24611">
        <ele>554.1</ele>
      </trkpt>
      <trkpt lat="44.12276" lon="3.24614">
        <ele>556</ele>
      </trkpt>
      <trkpt lat="44.12278" lon="3.24614">
        <ele>556.3</ele>
      </trkpt>
      <trkpt lat="44.12284" lon="3.24616">
        <ele>557.5</ele>
      </trkpt>
      <trkpt lat="44.12294" lon="3.24617">
        <ele>558.6</ele>
      </trkpt>
      <trkpt lat="44.12306" lon="3.24618">
        <ele>559.8</ele>
      </trkpt>
      <trkpt lat="44.12318" lon="3.2462">
        <ele>563.1</ele>
      </trkpt>
      <trkpt lat="44.12328" lon="3.24622">
        <ele>565.8</ele>
      </trkpt>
      <trkpt lat="44.12334" lon="3.24622">
        <ele>567.1</ele>
      </trkpt>
      <trkpt lat="44.12338" lon="3.24623">
        <ele>568.4</ele>
      </trkpt>
      <trkpt lat="44.12341" lon="3.24622">
        <ele>568.7</ele>
      </trkpt>
      <trkpt lat="44.12346" lon="3.24619">
        <ele>568.9</ele>
      </trkpt>
      <trkpt lat="44.12353" lon="3.24614">
        <ele>568.9</ele>
      </trkpt>
      <trkpt lat="44.12358" lon="3.24607">
        <ele>568.5</ele>
      </trkpt>
      <trkpt lat="44.12362" lon="3.24598">
        <ele>568.6</ele>
      </trkpt>
      <trkpt lat="44.12366" lon="3.24587">
        <ele>569</ele>
      </trkpt>
      <trkpt lat="44.12368" lon="3.24582">
        <ele>569.2</ele>
      </trkpt>
      <trkpt lat="44.1237" lon="3.24577">
        <ele>569.1</ele>
      </trkpt>
      <trkpt lat="44.12376" lon="3.2457">
        <ele>570.3</ele>
      </trkpt>
      <trkpt lat="44.12381" lon="3.24565">
        <ele>571.3</ele>
      </trkpt>
      <trkpt lat="44.12391" lon="3.24558">
        <ele>573.4</ele>
      </trkpt>
      <trkpt lat="44.12409" lon="3.24545">
        <ele>574.5</ele>
      </trkpt>
      <trkpt lat="44.12423" lon="3.24537">
        <ele>576.3</ele>
      </trkpt>
      <trkpt lat="44.12435" lon="3.24531">
        <ele>577.6</ele>
      </trkpt>
      <trkpt lat="44.12444" lon="3.24526">
        <ele>578.2</ele>
      </trkpt>
      <trkpt lat="44.12457" lon="3.24519">
        <ele>580.8</ele>
      </trkpt>
      <trkpt lat="44.1247" lon="3.2451">
        <ele>582.7</ele>
      </trkpt>
      <trkpt lat="44.12482" lon="3.245">
        <ele>583.5</ele>
      </trkpt>
      <trkpt lat="44.12495" lon="3.24493">
        <ele>585.6</ele>
      </trkpt>
      <trkpt lat="44.12504" lon="3.24488">
        <ele>586.6</ele>
      </trkpt>
      <trkpt lat="44.12515" lon="3.24485">
        <ele>588.1</ele>
      </trkpt>
      <trkpt lat="44.12523" lon="3.24483">
        <ele>589.2</ele>
      </trkpt>
      <trkpt lat="44.12533" lon="3.24483">
        <ele>590.8</ele>
      </trkpt>
      <trkpt lat="44.12542" lon="3.24483">
        <ele>591.8</ele>
      </trkpt>
      <trkpt lat="44.12548" lon="3.24484">
        <ele>592.8</ele>
      </trkpt>
      <trkpt lat="44.12556" lon="3.24486">
        <ele>594.4</ele>
      </trkpt>
      <trkpt lat="44.12561" lon="3.24489">
        <ele>594.3</ele>
      </trkpt>
      <trkpt lat="44.12565" lon="3.24492">
        <ele>594.5</ele>
      </trkpt>
      <trkpt lat="44.12567" lon="3.24494">
        <ele>594.8</ele>
      </trkpt>
      <trkpt lat="44.1257" lon="3.24499">
        <ele>596</ele>
      </trkpt>
      <trkpt lat="44.12575" lon="3.24513">
        <ele>599.4</ele>
      </trkpt>
      <trkpt lat="44.1258" lon="3.24527">
        <ele>602.1</ele>
      </trkpt>
      <trkpt lat="44.12583" lon="3.24536">
        <ele>603.8</ele>
      </trkpt>
      <trkpt lat="44.12587" lon="3.24544">
        <ele>604.6</ele>
      </trkpt>
      <trkpt lat="44.12593" lon="3.24552">
        <ele>604.6</ele>
      </trkpt>
      <trkpt lat="44.12601" lon="3.24561">
        <ele>604.6</ele>
      </trkpt>
      <trkpt lat="44.12613" lon="3.24577">
        <ele>606.6</ele>
      </trkpt>
      <trkpt lat="44.12626" lon="3.246">
        <ele>610.9</ele>
      </trkpt>
      <trkpt lat="44.12635" lon="3.24613">
        <ele>612.4</ele>
      </trkpt>
      <trkpt lat="44.12643" lon="3.24625">
        <ele>614.6</ele>
      </trkpt>
      <trkpt lat="44.12648" lon="3.24632">
        <ele>615.8</ele>
      </trkpt>
      <trkpt lat="44.12654" lon="3.24637">
        <ele>615.8</ele>
      </trkpt>
      <trkpt lat="44.12662" lon="3.24644">
        <ele>615.7</ele>
      </trkpt>
      <trkpt lat="44.12669" lon="3.24649">
        <ele>614.9</ele>
      </trkpt>
      <trkpt lat="44.12673" lon="3.24654">
        <ele>614.9</ele>
      </trkpt>
      <trkpt lat="44.12678" lon="3.24663">
        <ele>615.9</ele>
      </trkpt>
      <trkpt lat="44.1268" lon="3.2467">
        <ele>617.5</ele>
      </trkpt>
      <trkpt lat="44.12683" lon="3.24677">
        <ele>618.8</ele>
      </trkpt>
      <trkpt lat="44.12684" lon="3.24681">
        <ele>620</ele>
      </trkpt>
      <trkpt lat="44.12686" lon="3.24684">
        <ele>620.4</ele>
      </trkpt>
      <trkpt lat="44.12687" lon="3.24684">
        <ele>620</ele>
      </trkpt>
      <trkpt lat="44.1269" lon="3.24685">
        <ele>619.3</ele>
      </trkpt>
      <trkpt lat="44.12694" lon="3.24688">
        <ele>619.1</ele>
      </trkpt>
      <trkpt lat="44.127" lon="3.24693">
        <ele>620.1</ele>
      </trkpt>
      <trkpt lat="44.12709" lon="3.24699">
        <ele>620.9</ele>
      </trkpt>
      <trkpt lat="44.12717" lon="3.24706">
        <ele>622.2</ele>
      </trkpt>
      <trkpt lat="44.12726" lon="3.24712">
        <ele>622.5</ele>
      </trkpt>
      <trkpt lat="44.12737" lon="3.24719">
        <ele>622.7</ele>
      </trkpt>
      <trkpt lat="44.12741" lon="3.24724">
        <ele>624</ele>
      </trkpt>
      <trkpt lat="44.12742" lon="3.24726">
        <ele>624.6</ele>
      </trkpt>
      <trkpt lat="44.12742" lon="3.24729">
        <ele>625.9</ele>
      </trkpt>
      <trkpt lat="44.12742" lon="3.2473">
        <ele>626.3</ele>
      </trkpt>
      <trkpt lat="44.12741" lon="3.24731">
        <ele>627</ele>
      </trkpt>
      <trkpt lat="44.1274" lon="3.24732">
        <ele>627.6</ele>
      </trkpt>
      <trkpt lat="44.12738" lon="3.24731">
        <ele>627.7</ele>
      </trkpt>
      <trkpt lat="44.12732" lon="3.24726">
        <ele>627.1</ele>
      </trkpt>
      <trkpt lat="44.12721" lon="3.24718">
        <ele>626.5</ele>
      </trkpt>
      <trkpt lat="44.12708" lon="3.24711">
        <ele>626.5</ele>
      </trkpt>
      <trkpt lat="44.12701" lon="3.24708">
        <ele>626.8</ele>
      </trkpt>
      <trkpt lat="44.12697" lon="3.24706">
        <ele>626.8</ele>
      </trkpt>
      <trkpt lat="44.12692" lon="3.24706">
        <ele>628.1</ele>
      </trkpt>
      <trkpt lat="44.12687" lon="3.24705">
        <ele>629</ele>
      </trkpt>
      <trkpt lat="44.12684" lon="3.24705">
        <ele>629.9</ele>
      </trkpt>
      <trkpt lat="44.12681" lon="3.24704">
        <ele>630.3</ele>
      </trkpt>
      <trkpt lat="44.12677" lon="3.24701">
        <ele>630.3</ele>
      </trkpt>
      <trkpt lat="44.12672" lon="3.24693">
        <ele>628.8</ele>
      </trkpt>
      <trkpt lat="44.12666" lon="3.24685">
        <ele>628.6</ele>
      </trkpt>
      <trkpt lat="44.12664" lon="3.24681">
        <ele>628.2</ele>
      </trkpt>
      <trkpt lat="44.12659" lon="3.24676">
        <ele>628.6</ele>
      </trkpt>
      <trkpt lat="44.12649" lon="3.24669">
        <ele>630.1</ele>
      </trkpt>
      <trkpt lat="44.12632" lon="3.24656">
        <ele>631.5</ele>
      </trkpt>
      <trkpt lat="44.12609" lon="3.24636">
        <ele>632.5</ele>
      </trkpt>
      <trkpt lat="44.12595" lon="3.24623">
        <ele>632.3</ele>
      </trkpt>
      <trkpt lat="44.12583" lon="3.24613">
        <ele>632.9</ele>
      </trkpt>
      <trkpt lat="44.12574" lon="3.24604">
        <ele>632.4</ele>
      </trkpt>
      <trkpt lat="44.12565" lon="3.24593">
        <ele>631.6</ele>
      </trkpt>
      <trkpt lat="44.12561" lon="3.24589">
        <ele>631.8</ele>
      </trkpt>
      <trkpt lat="44.12559" lon="3.24588">
        <ele>632.2</ele>
      </trkpt>
      <trkpt lat="44.12558" lon="3.24588">
        <ele>632.6</ele>
      </trkpt>
      <trkpt lat="44.12557" lon="3.24589">
        <ele>633.3</ele>
      </trkpt>
      <trkpt lat="44.12558" lon="3.24591">
        <ele>633.6</ele>
      </trkpt>
      <trkpt lat="44.12558" lon="3.24592">
        <ele>633.9</ele>
      </trkpt>
      <trkpt lat="44.12558" lon="3.24594">
        <ele>634.6</ele>
      </trkpt>
      <trkpt lat="44.1256" lon="3.24598">
        <ele>635.2</ele>
      </trkpt>
      <trkpt lat="44.12569" lon="3.24609">
        <ele>635.9</ele>
      </trkpt>
      <trkpt lat="44.12577" lon="3.24619">
        <ele>637.1</ele>
      </trkpt>
      <trkpt lat="44.12585" lon="3.24628">
        <ele>638.1</ele>
      </trkpt>
      <trkpt lat="44.126" lon="3.24646">
        <ele>639.8</ele>
      </trkpt>
      <trkpt lat="44.12612" lon="3.24661">
        <ele>641.4</ele>
      </trkpt>
      <trkpt lat="44.12623" lon="3.24676">
        <ele>642.8</ele>
      </trkpt>
      <trkpt lat="44.12637" lon="3.24696">
        <ele>644.5</ele>
      </trkpt>
      <trkpt lat="44.12643" lon="3.24703">
        <ele>644.8</ele>
      </trkpt>
      <trkpt lat="44.12645" lon="3.24707">
        <ele>645.6</ele>
      </trkpt>
      <trkpt lat="44.12651" lon="3.24719">
        <ele>647.6</ele>
      </trkpt>
      <trkpt lat="44.1266" lon="3.24733">
        <ele>649.5</ele>
      </trkpt>
      <trkpt lat="44.12668" lon="3.24739">
        <ele>649.2</ele>
      </trkpt>
      <trkpt lat="44.12677" lon="3.24743">
        <ele>649.2</ele>
      </trkpt>
      <trkpt lat="44.12684" lon="3.24747">
        <ele>649.7</ele>
      </trkpt>
      <trkpt lat="44.12691" lon="3.24753">
        <ele>651.2</ele>
      </trkpt>
      <trkpt lat="44.12697" lon="3.24759">
        <ele>652.3</ele>
      </trkpt>
      <trkpt lat="44.12703" lon="3.24766">
        <ele>653.2</ele>
      </trkpt>
      <trkpt lat="44.1271" lon="3.24777">
        <ele>655.5</ele>
      </trkpt>
      <trkpt lat="44.12718" lon="3.24786">
        <ele>656.3</ele>
      </trkpt>
      <trkpt lat="44.12723" lon="3.24793">
        <ele>657.4</ele>
      </trkpt>
      <trkpt lat="44.12726" lon="3.24796">
        <ele>658.1</ele>
      </trkpt>
      <trkpt lat="44.12729" lon="3.24798">
        <ele>658.4</ele>
      </trkpt>
      <trkpt lat="44.12733" lon="3.24801">
        <ele>659</ele>
      </trkpt>
      <trkpt lat="44.12742" lon="3.24805">
        <ele>659.2</ele>
      </trkpt>
      <trkpt lat="44.12753" lon="3.24809">
        <ele>660</ele>
      </trkpt>
      <trkpt lat="44.12764" lon="3.24812">
        <ele>661.1</ele>
      </trkpt>
      <trkpt lat="44.12775" lon="3.24815">
        <ele>662</ele>
      </trkpt>
      <trkpt lat="44.12784" lon="3.24813">
        <ele>661.3</ele>
      </trkpt>
      <trkpt lat="44.12799" lon="3.24809">
        <ele>660.8</ele>
      </trkpt>
      <trkpt lat="44.12818" lon="3.24804">
        <ele>658.9</ele>
      </trkpt>
      <trkpt lat="44.1283" lon="3.24801">
        <ele>657.4</ele>
      </trkpt>
      <trkpt lat="44.1284" lon="3.24796">
        <ele>657.2</ele>
      </trkpt>
      <trkpt lat="44.12848" lon="3.2479">
        <ele>657.1</ele>
      </trkpt>
      <trkpt lat="44.12854" lon="3.24786">
        <ele>657.2</ele>
      </trkpt>
      <trkpt lat="44.12858" lon="3.24781">
        <ele>656.4</ele>
      </trkpt>
      <trkpt lat="44.1286" lon="3.24776">
        <ele>655.3</ele>
      </trkpt>
      <trkpt lat="44.12863" lon="3.24768">
        <ele>654.3</ele>
      </trkpt>
      <trkpt lat="44.12865" lon="3.24762">
        <ele>653.5</ele>
      </trkpt>
      <trkpt lat="44.12866" lon="3.24756">
        <ele>652.3</ele>
      </trkpt>
      <trkpt lat="44.12869" lon="3.24753">
        <ele>652.7</ele>
      </trkpt>
      <trkpt lat="44.12872" lon="3.24748">
        <ele>652.4</ele>
      </trkpt>
      <trkpt lat="44.12875" lon="3.24745">
        <ele>652.6</ele>
      </trkpt>
      <trkpt lat="44.12878" lon="3.24741">
        <ele>652.4</ele>
      </trkpt>
      <trkpt lat="44.12879" lon="3.24739">
        <ele>652.2</ele>
      </trkpt>
      <trkpt lat="44.1288" lon="3.24736">
        <ele>651.6</ele>
      </trkpt>
      <trkpt lat="44.1288" lon="3.24732">
        <ele>650.4</ele>
      </trkpt>
      <trkpt lat="44.12881" lon="3.24721">
        <ele>648.3</ele>
      </trkpt>
      <trkpt lat="44.1288" lon="3.24712">
        <ele>652.1</ele>
      </trkpt>
      <trkpt lat="44.12879" lon="3.2471">
        <ele>652.8</ele>
      </trkpt>
      <trkpt lat="44.12879" lon="3.24708">
        <ele>653.7</ele>
      </trkpt>
      <trkpt lat="44.12878" lon="3.24707">
        <ele>654</ele>
      </trkpt>
      <trkpt lat="44.12875" lon="3.24705">
        <ele>654.4</ele>
      </trkpt>
      <trkpt lat="44.1287" lon="3.24704">
        <ele>654</ele>
      </trkpt>
      <trkpt lat="44.12866" lon="3.24703">
        <ele>653.9</ele>
      </trkpt>
      <trkpt lat="44.12861" lon="3.24702">
        <ele>653.6</ele>
      </trkpt>
      <trkpt lat="44.12857" lon="3.247">
        <ele>652.9</ele>
      </trkpt>
      <trkpt lat="44.12855" lon="3.24699">
        <ele>652.6</ele>
      </trkpt>
      <trkpt lat="44.12852" lon="3.24696">
        <ele>652.9</ele>
      </trkpt>
      <trkpt lat="44.12846" lon="3.24689">
        <ele>653.1</ele>
      </trkpt>
      <trkpt lat="44.12838" lon="3.24676">
        <ele>654</ele>
      </trkpt>
      <trkpt lat="44.12834" lon="3.24667">
        <ele>655.2</ele>
      </trkpt>
      <trkpt lat="44.12833" lon="3.24663">
        <ele>655</ele>
      </trkpt>
      <trkpt lat="44.12832" lon="3.24656">
        <ele>654.9</ele>
      </trkpt>
      <trkpt lat="44.12831" lon="3.24649">
        <ele>654.8</ele>
      </trkpt>
      <trkpt lat="44.12831" lon="3.24631">
        <ele>655.6</ele>
      </trkpt>
      <trkpt lat="44.1283" lon="3.24616">
        <ele>655.2</ele>
      </trkpt>
      <trkpt lat="44.1283" lon="3.24603">
        <ele>655.5</ele>
      </trkpt>
      <trkpt lat="44.12829" lon="3.24587">
        <ele>655.5</ele>
      </trkpt>
      <trkpt lat="44.12829" lon="3.24582">
        <ele>655.6</ele>
      </trkpt>
      <trkpt lat="44.12829" lon="3.24577">
        <ele>655.4</ele>
      </trkpt>
      <trkpt lat="44.12831" lon="3.24565">
        <ele>655.8</ele>
      </trkpt>
      <trkpt lat="44.12832" lon="3.24555">
        <ele>655.5</ele>
      </trkpt>
      <trkpt lat="44.12834" lon="3.24543">
        <ele>656</ele>
      </trkpt>
      <trkpt lat="44.12837" lon="3.24533">
        <ele>657.9</ele>
      </trkpt>
      <trkpt lat="44.12841" lon="3.24524">
        <ele>659.5</ele>
      </trkpt>
      <trkpt lat="44.12844" lon="3.24517">
        <ele>658.9</ele>
      </trkpt>
      <trkpt lat="44.12849" lon="3.24508">
        <ele>657.8</ele>
      </trkpt>
      <trkpt lat="44.12852" lon="3.24505">
        <ele>657.9</ele>
      </trkpt>
      <trkpt lat="44.12855" lon="3.245">
        <ele>656.6</ele>
      </trkpt>
      <trkpt lat="44.12859" lon="3.24497">
        <ele>657</ele>
      </trkpt>
      <trkpt lat="44.12861" lon="3.24495">
        <ele>657</ele>
      </trkpt>
      <trkpt lat="44.12864" lon="3.24493">
        <ele>657.8</ele>
      </trkpt>
      <trkpt lat="44.12866" lon="3.24491">
        <ele>657.9</ele>
      </trkpt>
      <trkpt lat="44.12869" lon="3.24489">
        <ele>658.5</ele>
      </trkpt>
      <trkpt lat="44.12871" lon="3.24487">
        <ele>658.4</ele>
      </trkpt>
      <trkpt lat="44.12873" lon="3.24492">
        <ele>662</ele>
      </trkpt>
      <trkpt lat="44.12876" lon="3.24495">
        <ele>665.3</ele>
      </trkpt>
      <trkpt lat="44.12878" lon="3.24497">
        <ele>667.6</ele>
      </trkpt>
      <trkpt lat="44.12882" lon="3.24497">
        <ele>669.9</ele>
      </trkpt>
      <trkpt lat="44.12886" lon="3.24496">
        <ele>671.5</ele>
      </trkpt>
      <trkpt lat="44.12891" lon="3.24493">
        <ele>671.1</ele>
      </trkpt>
      <trkpt lat="44.129" lon="3.24492">
        <ele>670.8</ele>
      </trkpt>
      <trkpt lat="44.12915" lon="3.24489">
        <ele>669.4</ele>
      </trkpt>
      <trkpt lat="44.12923" lon="3.24489">
        <ele>669.7</ele>
      </trkpt>
      <trkpt lat="44.12926" lon="3.2449">
        <ele>670.3</ele>
      </trkpt>
      <trkpt lat="44.12928" lon="3.24491">
        <ele>671</ele>
      </trkpt>
      <trkpt lat="44.1293" lon="3.24493">
        <ele>672.1</ele>
      </trkpt>
      <trkpt lat="44.12932" lon="3.24496">
        <ele>673.7</ele>
      </trkpt>
      <trkpt lat="44.12932" lon="3.24497">
        <ele>674.3</ele>
      </trkpt>
      <trkpt lat="44.12931" lon="3.24499">
        <ele>675.4</ele>
      </trkpt>
      <trkpt lat="44.12929" lon="3.245">
        <ele>676.1</ele>
      </trkpt>
      <trkpt lat="44.12928" lon="3.245">
        <ele>676.2</ele>
      </trkpt>
      <trkpt lat="44.12926" lon="3.245">
        <ele>676.3</ele>
      </trkpt>
      <trkpt lat="44.12924" lon="3.245">
        <ele>676.5</ele>
      </trkpt>
      <trkpt lat="44.12922" lon="3.24502">
        <ele>677.1</ele>
      </trkpt>
      <trkpt lat="44.12922" lon="3.24505">
        <ele>677.9</ele>
      </trkpt>
      <trkpt lat="44.12921" lon="3.24508">
        <ele>678.6</ele>
      </trkpt>
      <trkpt lat="44.12923" lon="3.24519">
        <ele>681.7</ele>
      </trkpt>
      <trkpt lat="44.12925" lon="3.2452">
        <ele>682.4</ele>
      </trkpt>
      <trkpt lat="44.12927" lon="3.24522">
        <ele>683.5</ele>
      </trkpt>
      <trkpt lat="44.12928" lon="3.24523">
        <ele>684</ele>
      </trkpt>
      <trkpt lat="44.1293" lon="3.24523">
        <ele>684.6</ele>
      </trkpt>
      <trkpt lat="44.12934" lon="3.24521">
        <ele>684.7</ele>
      </trkpt>
      <trkpt lat="44.12939" lon="3.2452">
        <ele>685.4</ele>
      </trkpt>
      <trkpt lat="44.12941" lon="3.24519">
        <ele>685.3</ele>
      </trkpt>
      <trkpt lat="44.12947" lon="3.24515">
        <ele>685</ele>
      </trkpt>
      <trkpt lat="44.12951" lon="3.24512">
        <ele>685.4</ele>
      </trkpt>
      <trkpt lat="44.12957" lon="3.24508">
        <ele>686.2</ele>
      </trkpt>
      <trkpt lat="44.12961" lon="3.24505">
        <ele>686.4</ele>
      </trkpt>
      <trkpt lat="44.12966" lon="3.24503">
        <ele>687.8</ele>
      </trkpt>
      <trkpt lat="44.12971" lon="3.24502">
        <ele>689.7</ele>
      </trkpt>
      <trkpt lat="44.12977" lon="3.245">
        <ele>690.7</ele>
      </trkpt>
      <trkpt lat="44.12982" lon="3.24498">
        <ele>691.4</ele>
      </trkpt>
      <trkpt lat="44.12989" lon="3.24496">
        <ele>693</ele>
      </trkpt>
      <trkpt lat="44.12997" lon="3.24495">
        <ele>695.5</ele>
      </trkpt>
      <trkpt lat="44.13005" lon="3.24491">
        <ele>697.1</ele>
      </trkpt>
      <trkpt lat="44.13013" lon="3.24488">
        <ele>699.5</ele>
      </trkpt>
      <trkpt lat="44.13016" lon="3.24487">
        <ele>700.4</ele>
      </trkpt>
      <trkpt lat="44.13022" lon="3.24482">
        <ele>700.9</ele>
      </trkpt>
      <trkpt lat="44.13024" lon="3.24481">
        <ele>701.3</ele>
      </trkpt>
      <trkpt lat="44.13026" lon="3.2448">
        <ele>701.8</ele>
      </trkpt>
      <trkpt lat="44.13029" lon="3.24477">
        <ele>701.8</ele>
      </trkpt>
      <trkpt lat="44.13032" lon="3.24474">
        <ele>701.9</ele>
      </trkpt>
      <trkpt lat="44.13038" lon="3.24469">
        <ele>702.7</ele>
      </trkpt>
      <trkpt lat="44.13044" lon="3.24465">
        <ele>703.8</ele>
      </trkpt>
      <trkpt lat="44.13049" lon="3.24461">
        <ele>704.2</ele>
      </trkpt>
      <trkpt lat="44.13053" lon="3.24459">
        <ele>705.1</ele>
      </trkpt>
      <trkpt lat="44.13057" lon="3.24457">
        <ele>706.1</ele>
      </trkpt>
      <trkpt lat="44.13059" lon="3.24456">
        <ele>706.7</ele>
      </trkpt>
      <trkpt lat="44.13063" lon="3.24454">
        <ele>707.8</ele>
      </trkpt>
      <trkpt lat="44.13067" lon="3.2445">
        <ele>708.1</ele>
      </trkpt>
      <trkpt lat="44.13073" lon="3.24443">
        <ele>708.4</ele>
      </trkpt>
      <trkpt lat="44.13078" lon="3.24438">
        <ele>709</ele>
      </trkpt>
      <trkpt lat="44.13075" lon="3.24444">
        <ele>710</ele>
      </trkpt>
      <trkpt lat="44.13064" lon="3.24461">
        <ele>711.7</ele>
      </trkpt>
      <trkpt lat="44.13055" lon="3.24474">
        <ele>713.4</ele>
      </trkpt>
      <trkpt lat="44.13046" lon="3.24486">
        <ele>714</ele>
      </trkpt>
      <trkpt lat="44.13038" lon="3.24497">
        <ele>715.1</ele>
      </trkpt>
      <trkpt lat="44.13031" lon="3.24508">
        <ele>716.5</ele>
      </trkpt>
      <trkpt lat="44.13025" lon="3.24518">
        <ele>718.1</ele>
      </trkpt>
      <trkpt lat="44.13018" lon="3.24527">
        <ele>719.5</ele>
      </trkpt>
      <trkpt lat="44.13014" lon="3.24532">
        <ele>720</ele>
      </trkpt>
      <trkpt lat="44.13011" lon="3.24537">
        <ele>720.8</ele>
      </trkpt>
      <trkpt lat="44.13007" lon="3.24542">
        <ele>721.3</ele>
      </trkpt>
      <trkpt lat="44.13004" lon="3.24545">
        <ele>721.4</ele>
      </trkpt>
      <trkpt lat="44.13" lon="3.24551">
        <ele>722.4</ele>
      </trkpt>
      <trkpt lat="44.12996" lon="3.24555">
        <ele>722.9</ele>
      </trkpt>
      <trkpt lat="44.12993" lon="3.24558">
        <ele>722.8</ele>
      </trkpt>
      <trkpt lat="44.12992" lon="3.2456">
        <ele>722.8</ele>
      </trkpt>
      <trkpt lat="44.12991" lon="3.24561">
        <ele>722.6</ele>
      </trkpt>
      <trkpt lat="44.12991" lon="3.24562">
        <ele>722.8</ele>
      </trkpt>
      <trkpt lat="44.12991" lon="3.24564">
        <ele>723</ele>
      </trkpt>
      <trkpt lat="44.12991" lon="3.24565">
        <ele>723.1</ele>
      </trkpt>
      <trkpt lat="44.12992" lon="3.24566">
        <ele>723.4</ele>
      </trkpt>
      <trkpt lat="44.12993" lon="3.24566">
        <ele>723.6</ele>
      </trkpt>
      <trkpt lat="44.12994" lon="3.24566">
        <ele>723.8</ele>
      </trkpt>
      <trkpt lat="44.12996" lon="3.24566">
        <ele>724.3</ele>
      </trkpt>
      <trkpt lat="44.12998" lon="3.24565">
        <ele>724.6</ele>
      </trkpt>
      <trkpt lat="44.13" lon="3.24564">
        <ele>724.9</ele>
      </trkpt>
      <trkpt lat="44.13006" lon="3.24563">
        <ele>726.4</ele>
      </trkpt>
      <trkpt lat="44.13013" lon="3.24563">
        <ele>728.3</ele>
      </trkpt>
      <trkpt lat="44.13017" lon="3.24563">
        <ele>729.4</ele>
      </trkpt>
      <trkpt lat="44.1302" lon="3.24563">
        <ele>730.2</ele>
      </trkpt>
      <trkpt lat="44.13022" lon="3.24563">
        <ele>730.7</ele>
      </trkpt>
      <trkpt lat="44.13023" lon="3.24564">
        <ele>731</ele>
      </trkpt>
      <trkpt lat="44.13025" lon="3.24567">
        <ele>731.7</ele>
      </trkpt>
      <trkpt lat="44.13029" lon="3.24563">
        <ele>732.5</ele>
        <extensions>
          <visugpx:TrkExtension xmlns:visugpx="https://www.visugpx.com/editgpx/">
            <visugpx:node>4</visugpx:node>
            </visugpx:TrkExtension>
        </extensions>
      </trkpt>
      <trkpt lat="44.13031" lon="3.24561">
        <ele>732.9</ele>
      </trkpt>
      <trkpt lat="44.13036" lon="3.24558">
        <ele>733.8</ele>
      </trkpt>
      <trkpt lat="44.1304" lon="3.24555">
        <ele>734.5</ele>
      </trkpt>
      <trkpt lat="44.13043" lon="3.24556">
        <ele>735.3</ele>
      </trkpt>
      <trkpt lat="44.13044" lon="3.24556">
        <ele>735.5</ele>
      </trkpt>
      <trkpt lat="44.13045" lon="3.24557">
        <ele>735.7</ele>
      </trkpt>
      <trkpt lat="44.13046" lon="3.24558">
        <ele>736</ele>
      </trkpt>
      <trkpt lat="44.13047" lon="3.2456">
        <ele>736.2</ele>
      </trkpt>
      <trkpt lat="44.13048" lon="3.24564">
        <ele>736.5</ele>
      </trkpt>
      <trkpt lat="44.13049" lon="3.24568">
        <ele>736.7</ele>
      </trkpt>
      <trkpt lat="44.13052" lon="3.24575">
        <ele>737.3</ele>
      </trkpt>
      <trkpt lat="44.13055" lon="3.24583">
        <ele>737.9</ele>
      </trkpt>
      <trkpt lat="44.13058" lon="3.24586">
        <ele>738.2</ele>
      </trkpt>
      <trkpt lat="44.13064" lon="3.24585">
        <ele>739.6</ele>
      </trkpt>
      <trkpt lat="44.13081" lon="3.24583">
        <ele>743.5</ele>
      </trkpt>
      <trkpt lat="44.1309" lon="3.24581">
        <ele>745.2</ele>
      </trkpt>
      <trkpt lat="44.13104" lon="3.2458">
        <ele>747.7</ele>
      </trkpt>
      <trkpt lat="44.13116" lon="3.24578">
        <ele>750</ele>
      </trkpt>
      <trkpt lat="44.13124" lon="3.24578">
        <ele>751.7</ele>
      </trkpt>
      <trkpt lat="44.1313" lon="3.24578">
        <ele>752.9</ele>
      </trkpt>
      <trkpt lat="44.13136" lon="3.24578">
        <ele>754.2</ele>
      </trkpt>
      <trkpt lat="44.13146" lon="3.24579">
        <ele>756.3</ele>
      </trkpt>
      <trkpt lat="44.13158" lon="3.2458">
        <ele>758.9</ele>
      </trkpt>
      <trkpt lat="44.1317" lon="3.24582">
        <ele>761.6</ele>
      </trkpt>
      <trkpt lat="44.13181" lon="3.24584">
        <ele>764.1</ele>
      </trkpt>
      <trkpt lat="44.13193" lon="3.24586">
        <ele>766.7</ele>
      </trkpt>
      <trkpt lat="44.13204" lon="3.24588">
        <ele>768.7</ele>
      </trkpt>
      <trkpt lat="44.13217" lon="3.24591">
        <ele>771.1</ele>
      </trkpt>
      <trkpt lat="44.13241" lon="3.24594">
        <ele>775</ele>
      </trkpt>
      <trkpt lat="44.13247" lon="3.24594">
        <ele>775.9</ele>
      </trkpt>
      <trkpt lat="44.13253" lon="3.24594">
        <ele>776.8</ele>
      </trkpt>
      <trkpt lat="44.13258" lon="3.24594">
        <ele>777.4</ele>
      </trkpt>
      <trkpt lat="44.13265" lon="3.24592">
        <ele>778.3</ele>
      </trkpt>
      <trkpt lat="44.1327" lon="3.24591">
        <ele>779</ele>
      </trkpt>
      <trkpt lat="44.13274" lon="3.24591">
        <ele>779.5</ele>
      </trkpt>
      <trkpt lat="44.13278" lon="3.24589">
        <ele>780</ele>
      </trkpt>
      <trkpt lat="44.13281" lon="3.24589">
        <ele>780.3</ele>
      </trkpt>
      <trkpt lat="44.13285" lon="3.24589">
        <ele>780.8</ele>
      </trkpt>
      <trkpt lat="44.13289" lon="3.2459">
        <ele>781.2</ele>
      </trkpt>
      <trkpt lat="44.13293" lon="3.24592">
        <ele>781.6</ele>
      </trkpt>
      <trkpt lat="44.133" lon="3.24596">
        <ele>782.4</ele>
      </trkpt>
      <trkpt lat="44.13301" lon="3.24597">
        <ele>782.5</ele>
      </trkpt>
      <trkpt lat="44.13304" lon="3.24599">
        <ele>782.8</ele>
      </trkpt>
      <trkpt lat="44.13307" lon="3.24601">
        <ele>783.1</ele>
      </trkpt>
      <trkpt lat="44.13309" lon="3.24603">
        <ele>783.1</ele>
      </trkpt>
      <trkpt lat="44.13315" lon="3.24605">
        <ele>783.3</ele>
      </trkpt>
      <trkpt lat="44.13322" lon="3.24608">
        <ele>783.6</ele>
      </trkpt>
      <trkpt lat="44.13334" lon="3.24615">
        <ele>784</ele>
      </trkpt>
      <trkpt lat="44.13342" lon="3.24621">
        <ele>784.3</ele>
      </trkpt>
      <trkpt lat="44.1335" lon="3.24629">
        <ele>784.6</ele>
      </trkpt>
      <trkpt lat="44.13355" lon="3.24634">
        <ele>784.8</ele>
      </trkpt>
      <trkpt lat="44.1336" lon="3.24644">
        <ele>785</ele>
      </trkpt>
      <trkpt lat="44.13366" lon="3.24653">
        <ele>785.4</ele>
      </trkpt>
      <trkpt lat="44.13373" lon="3.24665">
        <ele>785.9</ele>
      </trkpt>
      <trkpt lat="44.13379" lon="3.24677">
        <ele>786.3</ele>
      </trkpt>
      <trkpt lat="44.13385" lon="3.2468">
        <ele>786.7</ele>
      </trkpt>
      <trkpt lat="44.1339" lon="3.24683">
        <ele>787.1</ele>
      </trkpt>
      <trkpt lat="44.13394" lon="3.24686">
        <ele>787.3</ele>
      </trkpt>
      <trkpt lat="44.13398" lon="3.2469">
        <ele>787.6</ele>
      </trkpt>
      <trkpt lat="44.13404" lon="3.24694">
        <ele>788.1</ele>
      </trkpt>
      <trkpt lat="44.13409" lon="3.24698">
        <ele>788.4</ele>
      </trkpt>
      <trkpt lat="44.13418" lon="3.24704">
        <ele>788.7</ele>
      </trkpt>
      <trkpt lat="44.13427" lon="3.24711">
        <ele>789</ele>
      </trkpt>
      <trkpt lat="44.13439" lon="3.24718">
        <ele>789.6</ele>
      </trkpt>
      <trkpt lat="44.13444" lon="3.24719">
        <ele>790</ele>
      </trkpt>
      <trkpt lat="44.13448" lon="3.24719">
        <ele>790.1</ele>
      </trkpt>
      <trkpt lat="44.1345" lon="3.2472">
        <ele>790.2</ele>
      </trkpt>
      <trkpt lat="44.13454" lon="3.24721">
        <ele>790.3</ele>
      </trkpt>
      <trkpt lat="44.13462" lon="3.24724">
        <ele>790.6</ele>
      </trkpt>
      <trkpt lat="44.13471" lon="3.24729">
        <ele>791</ele>
      </trkpt>
      <trkpt lat="44.13479" lon="3.24735">
        <ele>791.1</ele>
      </trkpt>
      <trkpt lat="44.13489" lon="3.2474">
        <ele>791.4</ele>
      </trkpt>
      <trkpt lat="44.13501" lon="3.24747">
        <ele>791.9</ele>
      </trkpt>
      <trkpt lat="44.13514" lon="3.24754">
        <ele>792.1</ele>
      </trkpt>
      <trkpt lat="44.13524" lon="3.24758">
        <ele>792.2</ele>
      </trkpt>
      <trkpt lat="44.13532" lon="3.2476">
        <ele>792.4</ele>
      </trkpt>
      <trkpt lat="44.1354" lon="3.24763">
        <ele>792.7</ele>
      </trkpt>
      <trkpt lat="44.13548" lon="3.24766">
        <ele>793</ele>
      </trkpt>
      <trkpt lat="44.13566" lon="3.24772">
        <ele>793.6</ele>
      </trkpt>
      <trkpt lat="44.13576" lon="3.24775">
        <ele>793.8</ele>
      </trkpt>
      <trkpt lat="44.13587" lon="3.24776">
        <ele>793.9</ele>
      </trkpt>
      <trkpt lat="44.13596" lon="3.24777">
        <ele>793.9</ele>
      </trkpt>
      <trkpt lat="44.13607" lon="3.24778">
        <ele>794</ele>
      </trkpt>
      <trkpt lat="44.13615" lon="3.24778">
        <ele>794.2</ele>
      </trkpt>
      <trkpt lat="44.13623" lon="3.24777">
        <ele>794.4</ele>
      </trkpt>
      <trkpt lat="44.13632" lon="3.24777">
        <ele>794.7</ele>
      </trkpt>
      <trkpt lat="44.1364" lon="3.24776">
        <ele>794.9</ele>
      </trkpt>
      <trkpt lat="44.13646" lon="3.24775">
        <ele>795.2</ele>
      </trkpt>
      <trkpt lat="44.13651" lon="3.24773">
        <ele>795.4</ele>
      </trkpt>
      <trkpt lat="44.13657" lon="3.24772">
        <ele>795.8</ele>
      </trkpt>
      <trkpt lat="44.13662" lon="3.24771">
        <ele>796.1</ele>
      </trkpt>
      <trkpt lat="44.13667" lon="3.2477">
        <ele>796.5</ele>
      </trkpt>
      <trkpt lat="44.13676" lon="3.24768">
        <ele>797.3</ele>
      </trkpt>
      <trkpt lat="44.13687" lon="3.24767">
        <ele>798.4</ele>
      </trkpt>
      <trkpt lat="44.13692" lon="3.24766">
        <ele>798.9</ele>
      </trkpt>
      <trkpt lat="44.13695" lon="3.24765">
        <ele>799.2</ele>
      </trkpt>
      <trkpt lat="44.13697" lon="3.24765">
        <ele>799.4</ele>
      </trkpt>
      <trkpt lat="44.137" lon="3.24763">
        <ele>799.6</ele>
      </trkpt>
      <trkpt lat="44.13701" lon="3.24761">
        <ele>799.6</ele>
      </trkpt>
      <trkpt lat="44.13703" lon="3.24759">
        <ele>799.7</ele>
      </trkpt>
      <trkpt lat="44.13708" lon="3.24754">
        <ele>799.8</ele>
      </trkpt>
      <trkpt lat="44.13712" lon="3.24749">
        <ele>799.8</ele>
      </trkpt>
      <trkpt lat="44.13714" lon="3.24747">
        <ele>799.8</ele>
      </trkpt>
      <trkpt lat="44.13717" lon="3.24744">
        <ele>799.8</ele>
      </trkpt>
      <trkpt lat="44.13719" lon="3.24743">
        <ele>799.9</ele>
      </trkpt>
      <trkpt lat="44.13721" lon="3.24742">
        <ele>800</ele>
      </trkpt>
      <trkpt lat="44.13726" lon="3.2474">
        <ele>800.2</ele>
      </trkpt>
      <trkpt lat="44.13733" lon="3.24739">
        <ele>800.7</ele>
      </trkpt>
      <trkpt lat="44.13738" lon="3.24738">
        <ele>801.1</ele>
      </trkpt>
      <trkpt lat="44.13746" lon="3.24739">
        <ele>801.9</ele>
      </trkpt>
      <trkpt lat="44.13755" lon="3.2474">
        <ele>802.6</ele>
      </trkpt>
      <trkpt lat="44.13763" lon="3.24743">
        <ele>803.4</ele>
      </trkpt>
      <trkpt lat="44.1377" lon="3.24745">
        <ele>804.1</ele>
      </trkpt>
      <trkpt lat="44.13776" lon="3.24746">
        <ele>804.6</ele>
      </trkpt>
      <trkpt lat="44.13785" lon="3.24747">
        <ele>805.1</ele>
      </trkpt>
      <trkpt lat="44.13793" lon="3.24747">
        <ele>805.4</ele>
      </trkpt>
      <trkpt lat="44.13803" lon="3.24747">
        <ele>805.8</ele>
      </trkpt>
      <trkpt lat="44.13811" lon="3.24747">
        <ele>806.3</ele>
      </trkpt>
      <trkpt lat="44.13819" lon="3.24747">
        <ele>806.9</ele>
      </trkpt>
      <trkpt lat="44.1383" lon="3.24748">
        <ele>807.7</ele>
      </trkpt>
      <trkpt lat="44.13841" lon="3.24748">
        <ele>808.8</ele>
      </trkpt>
      <trkpt lat="44.1385" lon="3.24748">
        <ele>809.7</ele>
      </trkpt>
      <trkpt lat="44.13858" lon="3.24749">
        <ele>810.6</ele>
      </trkpt>
      <trkpt lat="44.13865" lon="3.24751">
        <ele>811.2</ele>
      </trkpt>
      <trkpt lat="44.13872" lon="3.24753">
        <ele>811.6</ele>
      </trkpt>
      <trkpt lat="44.13882" lon="3.24756">
        <ele>812.2</ele>
      </trkpt>
      <trkpt lat="44.13889" lon="3.24758">
        <ele>812.6</ele>
      </trkpt>
      <trkpt lat="44.13894" lon="3.2476">
        <ele>812.6</ele>
      </trkpt>
      <trkpt lat="44.13898" lon="3.2476">
        <ele>812.5</ele>
      </trkpt>
      <trkpt lat="44.139" lon="3.24761">
        <ele>812.5</ele>
      </trkpt>
      <trkpt lat="44.13901" lon="3.24765">
        <ele>812.6</ele>
      </trkpt>
      <trkpt lat="44.13905" lon="3.24772">
        <ele>812.7</ele>
      </trkpt>
      <trkpt lat="44.1391" lon="3.24779">
        <ele>812.6</ele>
      </trkpt>
      <trkpt lat="44.13917" lon="3.24786">
        <ele>812.6</ele>
      </trkpt>
      <trkpt lat="44.13927" lon="3.24796">
        <ele>812.2</ele>
      </trkpt>
      <trkpt lat="44.13934" lon="3.24804">
        <ele>812</ele>
      </trkpt>
      <trkpt lat="44.13944" lon="3.24811">
        <ele>811.6</ele>
      </trkpt>
      <trkpt lat="44.13958" lon="3.2482">
        <ele>811.3</ele>
      </trkpt>
      <trkpt lat="44.13963" lon="3.2482">
        <ele>810.9</ele>
      </trkpt>
      <trkpt lat="44.1397" lon="3.24822">
        <ele>810.6</ele>
      </trkpt>
      <trkpt lat="44.13977" lon="3.24825">
        <ele>810.6</ele>
      </trkpt>
      <trkpt lat="44.13985" lon="3.24827">
        <ele>810.5</ele>
      </trkpt>
      <trkpt lat="44.13993" lon="3.2483">
        <ele>810.7</ele>
      </trkpt>
      <trkpt lat="44.13997" lon="3.24831">
        <ele>810.7</ele>
      </trkpt>
      <trkpt lat="44.14008" lon="3.24831">
        <ele>809.7</ele>
      </trkpt>
      <trkpt lat="44.14019" lon="3.24832">
        <ele>808.7</ele>
      </trkpt>
      <trkpt lat="44.14027" lon="3.24833">
        <ele>808</ele>
      </trkpt>
      <trkpt lat="44.14033" lon="3.24835">
        <ele>807.4</ele>
      </trkpt>
      <trkpt lat="44.14041" lon="3.24839">
        <ele>806.8</ele>
      </trkpt>
      <trkpt lat="44.1405" lon="3.24845">
        <ele>806.4</ele>
      </trkpt>
      <trkpt lat="44.14062" lon="3.24851">
        <ele>805.9</ele>
      </trkpt>
      <trkpt lat="44.14076" lon="3.24858">
        <ele>805.4</ele>
      </trkpt>
      <trkpt lat="44.14088" lon="3.24864">
        <ele>805.2</ele>
      </trkpt>
      <trkpt lat="44.14093" lon="3.24866">
        <ele>805.4</ele>
      </trkpt>
      <trkpt lat="44.14096" lon="3.24867">
        <ele>805.4</ele>
      </trkpt>
      <trkpt lat="44.14104" lon="3.24873">
        <ele>805.9</ele>
      </trkpt>
      <trkpt lat="44.14115" lon="3.24877">
        <ele>806.4</ele>
      </trkpt>
      <trkpt lat="44.14129" lon="3.24884">
        <ele>807.8</ele>
      </trkpt>
      <trkpt lat="44.14137" lon="3.24887">
        <ele>808.7</ele>
      </trkpt>
      <trkpt lat="44.14148" lon="3.24893">
        <ele>809.8</ele>
      </trkpt>
      <trkpt lat="44.14158" lon="3.24898">
        <ele>810.9</ele>
      </trkpt>
      <trkpt lat="44.14167" lon="3.24903">
        <ele>812</ele>
      </trkpt>
      <trkpt lat="44.14178" lon="3.24909">
        <ele>813.4</ele>
      </trkpt>
      <trkpt lat="44.14186" lon="3.24914">
        <ele>814.4</ele>
      </trkpt>
      <trkpt lat="44.14194" lon="3.24918">
        <ele>815.1</ele>
      </trkpt>
      <trkpt lat="44.14203" lon="3.24922">
        <ele>815.4</ele>
      </trkpt>
      <trkpt lat="44.14209" lon="3.24926">
        <ele>815.7</ele>
      </trkpt>
      <trkpt lat="44.14215" lon="3.24928">
        <ele>815.8</ele>
      </trkpt>
      <trkpt lat="44.14223" lon="3.2493">
        <ele>815.9</ele>
      </trkpt>
      <trkpt lat="44.14231" lon="3.24933">
        <ele>815.9</ele>
      </trkpt>
      <trkpt lat="44.14239" lon="3.24936">
        <ele>816</ele>
      </trkpt>
      <trkpt lat="44.14254" lon="3.24942">
        <ele>816.4</ele>
      </trkpt>
      <trkpt lat="44.14268" lon="3.24948">
        <ele>816.3</ele>
      </trkpt>
      <trkpt lat="44.1428" lon="3.24953">
        <ele>816.5</ele>
      </trkpt>
      <trkpt lat="44.14289" lon="3.24956">
        <ele>816.7</ele>
      </trkpt>
      <trkpt lat="44.14299" lon="3.24959">
        <ele>816.9</ele>
      </trkpt>
      <trkpt lat="44.14316" lon="3.24965">
        <ele>817.4</ele>
      </trkpt>
      <trkpt lat="44.14334" lon="3.24972">
        <ele>818</ele>
      </trkpt>
      <trkpt lat="44.1435" lon="3.24978">
        <ele>819.3</ele>
      </trkpt>
      <trkpt lat="44.1437" lon="3.24985">
        <ele>821</ele>
      </trkpt>
      <trkpt lat="44.14384" lon="3.24991">
        <ele>822.7</ele>
      </trkpt>
      <trkpt lat="44.14399" lon="3.24998">
        <ele>824.5</ele>
      </trkpt>
      <trkpt lat="44.1442" lon="3.25007">
        <ele>827.1</ele>
      </trkpt>
      <trkpt lat="44.14437" lon="3.25013">
        <ele>829.6</ele>
      </trkpt>
      <trkpt lat="44.14448" lon="3.25019">
        <ele>831.3</ele>
      </trkpt>
      <trkpt lat="44.14456" lon="3.25022">
        <ele>832.3</ele>
      </trkpt>
      <trkpt lat="44.14461" lon="3.25023">
        <ele>832.8</ele>
      </trkpt>
      <trkpt lat="44.14471" lon="3.25024">
        <ele>833.6</ele>
      </trkpt>
      <trkpt lat="44.14481" lon="3.25025">
        <ele>834.4</ele>
      </trkpt>
      <trkpt lat="44.14489" lon="3.25027">
        <ele>835.2</ele>
      </trkpt>
      <trkpt lat="44.14495" lon="3.25028">
        <ele>835.6</ele>
      </trkpt>
      <trkpt lat="44.145" lon="3.2503">
        <ele>836.1</ele>
      </trkpt>
      <trkpt lat="44.14505" lon="3.25035">
        <ele>836.7</ele>
      </trkpt>
      <trkpt lat="44.1451" lon="3.25042">
        <ele>837.4</ele>
      </trkpt>
      <trkpt lat="44.14513" lon="3.25045">
        <ele>837.8</ele>
      </trkpt>
      <trkpt lat="44.14517" lon="3.2505">
        <ele>838.5</ele>
      </trkpt>
      <trkpt lat="44.14527" lon="3.25063">
        <ele>839.9</ele>
      </trkpt>
      <trkpt lat="44.14544" lon="3.25079">
        <ele>841.1</ele>
      </trkpt>
      <trkpt lat="44.14557" lon="3.25093">
        <ele>842.1</ele>
      </trkpt>
      <trkpt lat="44.14568" lon="3.25103">
        <ele>842.4</ele>
      </trkpt>
      <trkpt lat="44.14571" lon="3.25108">
        <ele>842.6</ele>
      </trkpt>
      <trkpt lat="44.14573" lon="3.25111">
        <ele>842.6</ele>
      </trkpt>
      <trkpt lat="44.14574" lon="3.25115">
        <ele>842.4</ele>
      </trkpt>
      <trkpt lat="44.14578" lon="3.25116">
        <ele>842.5</ele>
      </trkpt>
      <trkpt lat="44.14585" lon="3.25121">
        <ele>842.4</ele>
      </trkpt>
      <trkpt lat="44.14595" lon="3.25128">
        <ele>842.5</ele>
      </trkpt>
      <trkpt lat="44.14603" lon="3.25133">
        <ele>842.7</ele>
      </trkpt>
      <trkpt lat="44.14611" lon="3.25135">
        <ele>843.1</ele>
      </trkpt>
      <trkpt lat="44.14616" lon="3.25139">
        <ele>843.2</ele>
      </trkpt>
      <trkpt lat="44.14621" lon="3.25145">
        <ele>843.3</ele>
      </trkpt>
      <trkpt lat="44.14625" lon="3.25151">
        <ele>843.5</ele>
      </trkpt>
      <trkpt lat="44.1463" lon="3.2516">
        <ele>844</ele>
      </trkpt>
      <trkpt lat="44.14637" lon="3.25173">
        <ele>844.8</ele>
      </trkpt>
      <trkpt lat="44.14638" lon="3.25174">
        <ele>844.9</ele>
      </trkpt>
      <trkpt lat="44.14648" lon="3.2519">
        <ele>845.1</ele>
      </trkpt>
      <trkpt lat="44.14656" lon="3.25202">
        <ele>844.9</ele>
      </trkpt>
      <trkpt lat="44.14666" lon="3.25218">
        <ele>845</ele>
      </trkpt>
      <trkpt lat="44.1467" lon="3.25226">
        <ele>845</ele>
      </trkpt>
      <trkpt lat="44.14673" lon="3.25236">
        <ele>844.7</ele>
      </trkpt>
      <trkpt lat="44.14677" lon="3.25252">
        <ele>844.5</ele>
      </trkpt>
      <trkpt lat="44.1468" lon="3.25261">
        <ele>844.7</ele>
      </trkpt>
      <trkpt lat="44.14683" lon="3.25268">
        <ele>845</ele>
      </trkpt>
      <trkpt lat="44.14687" lon="3.25275">
        <ele>845.3</ele>
      </trkpt>
      <trkpt lat="44.14693" lon="3.25284">
        <ele>845.8</ele>
      </trkpt>
      <trkpt lat="44.147" lon="3.25294">
        <ele>846.4</ele>
      </trkpt>
      <trkpt lat="44.14709" lon="3.25307">
        <ele>847</ele>
      </trkpt>
      <trkpt lat="44.14713" lon="3.25314">
        <ele>847</ele>
      </trkpt>
      <trkpt lat="44.14719" lon="3.25321">
        <ele>847.2</ele>
      </trkpt>
      <trkpt lat="44.14726" lon="3.25326">
        <ele>847.5</ele>
      </trkpt>
      <trkpt lat="44.14734" lon="3.25331">
        <ele>847.9</ele>
      </trkpt>
      <trkpt lat="44.1474" lon="3.25334">
        <ele>848.2</ele>
      </trkpt>
      <trkpt lat="44.14748" lon="3.25336">
        <ele>848.7</ele>
      </trkpt>
      <trkpt lat="44.14754" lon="3.25339">
        <ele>848.9</ele>
      </trkpt>
      <trkpt lat="44.14757" lon="3.25342">
        <ele>849</ele>
      </trkpt>
      <trkpt lat="44.14762" lon="3.25347">
        <ele>849.1</ele>
      </trkpt>
      <trkpt lat="44.14769" lon="3.25353">
        <ele>849.4</ele>
      </trkpt>
      <trkpt lat="44.14783" lon="3.25367">
        <ele>850.2</ele>
      </trkpt>
      <trkpt lat="44.14793" lon="3.25377">
        <ele>850.5</ele>
      </trkpt>
      <trkpt lat="44.14798" lon="3.25381">
        <ele>850.7</ele>
        <extensions>
          <visugpx:TrkExtension xmlns:visugpx="https://www.visugpx.com/editgpx/">
            <visugpx:node>5</visugpx:node>
            </visugpx:TrkExtension>
        </extensions>
      </trkpt>
      <trkpt lat="44.14805" lon="3.25387">
        <ele>851</ele>
      </trkpt>
      <trkpt lat="44.14816" lon="3.25403">
        <ele>851.4</ele>
      </trkpt>
      <trkpt lat="44.14828" lon="3.25418">
        <ele>851.8</ele>
      </trkpt>
      <trkpt lat="44.14836" lon="3.25428">
        <ele>851.6</ele>
      </trkpt>
      <trkpt lat="44.1484" lon="3.25433">
        <ele>851.6</ele>
      </trkpt>
      <trkpt lat="44.14849" lon="3.25446">
        <ele>851.5</ele>
      </trkpt>
      <trkpt lat="44.14857" lon="3.25457">
        <ele>851.3</ele>
      </trkpt>
      <trkpt lat="44.14865" lon="3.25463">
        <ele>851.6</ele>
      </trkpt>
      <trkpt lat="44.14868" lon="3.25466">
        <ele>851.7</ele>
      </trkpt>
      <trkpt lat="44.14872" lon="3.2547">
        <ele>851.8</ele>
      </trkpt>
      <trkpt lat="44.14877" lon="3.25475">
        <ele>851.9</ele>
      </trkpt>
      <trkpt lat="44.14882" lon="3.25481">
        <ele>852</ele>
      </trkpt>
      <trkpt lat="44.14885" lon="3.25488">
        <ele>851.9</ele>
      </trkpt>
      <trkpt lat="44.14891" lon="3.25499">
        <ele>852.3</ele>
      </trkpt>
      <trkpt lat="44.14898" lon="3.25514">
        <ele>852.5</ele>
      </trkpt>
      <trkpt lat="44.14906" lon="3.25531">
        <ele>852.6</ele>
      </trkpt>
      <trkpt lat="44.14912" lon="3.25542">
        <ele>852.5</ele>
      </trkpt>
      <trkpt lat="44.14919" lon="3.25551">
        <ele>852.5</ele>
      </trkpt>
      <trkpt lat="44.14926" lon="3.25558">
        <ele>852.5</ele>
      </trkpt>
      <trkpt lat="44.14932" lon="3.25562">
        <ele>852.6</ele>
      </trkpt>
      <trkpt lat="44.14939" lon="3.25569">
        <ele>852.6</ele>
      </trkpt>
      <trkpt lat="44.14939" lon="3.2557">
        <ele>852.6</ele>
      </trkpt>
      <trkpt lat="44.14945" lon="3.25576">
        <ele>852.6</ele>
      </trkpt>
      <trkpt lat="44.14953" lon="3.25588">
        <ele>852.6</ele>
      </trkpt>
      <trkpt lat="44.14962" lon="3.25598">
        <ele>852.8</ele>
      </trkpt>
      <trkpt lat="44.14968" lon="3.25602">
        <ele>853.2</ele>
      </trkpt>
      <trkpt lat="44.14979" lon="3.25607">
        <ele>853.8</ele>
      </trkpt>
      <trkpt lat="44.14992" lon="3.25614">
        <ele>854.3</ele>
      </trkpt>
      <trkpt lat="44.15" lon="3.25619">
        <ele>854.7</ele>
      </trkpt>
      <trkpt lat="44.15005" lon="3.25622">
        <ele>855.1</ele>
      </trkpt>
      <trkpt lat="44.15022" lon="3.25633">
        <ele>856</ele>
      </trkpt>
      <trkpt lat="44.15033" lon="3.25641">
        <ele>856.5</ele>
      </trkpt>
      <trkpt lat="44.15041" lon="3.25646">
        <ele>857.2</ele>
      </trkpt>
      <trkpt lat="44.15046" lon="3.25647">
        <ele>857.7</ele>
      </trkpt>
      <trkpt lat="44.15055" lon="3.25649">
        <ele>858.6</ele>
      </trkpt>
      <trkpt lat="44.15064" lon="3.2565">
        <ele>859.2</ele>
      </trkpt>
      <trkpt lat="44.15076" lon="3.25651">
        <ele>860</ele>
      </trkpt>
      <trkpt lat="44.15085" lon="3.25652">
        <ele>860.6</ele>
      </trkpt>
      <trkpt lat="44.15095" lon="3.25654">
        <ele>860.9</ele>
      </trkpt>
      <trkpt lat="44.15104" lon="3.25658">
        <ele>861.1</ele>
      </trkpt>
      <trkpt lat="44.15117" lon="3.25665">
        <ele>861.5</ele>
      </trkpt>
      <trkpt lat="44.15126" lon="3.25671">
        <ele>862.1</ele>
      </trkpt>
      <trkpt lat="44.15125" lon="3.25679">
        <ele>862</ele>
        <extensions>
          <visugpx:TrkExtension xmlns:visugpx="https://www.visugpx.com/editgpx/">
            <visugpx:node>6</visugpx:node>
            </visugpx:TrkExtension>
        </extensions>
      </trkpt>
    </trkseg>
  </trk>
</gpx>